GFSNGP_sfc_temp_000.txt.gz
Temp
50 51 50 50 50 51 47 49 42 50 51 57 59 61 63 58 58 58 57 57 56 55 55 55 54 54 54 54 55 56 55 54 54 54 55 55 55 56 57 57 58 58 59 59
43 51 50 47 51 51 51 52 51 52 51 62 63 54 55 53 57 57 56 56 56 56 54 52 50 52 53 52 53 54 52 53 54 54 54 53 53 54 55 55 56 56 57 57
38 47 45 41 48 49 50 53 51 46 54 59 55 56 55 55 54 56 54 54 54 51 50 50 50 51 49 50 52 52 51 52 52 52 51 51 52 52 52 52 53 53 54 55
37 40 29 49 55 56 51 55 55 55 56 56 53 54 55 56 52 54 53 51 50 49 48 48 49 49 48 49 49 49 49 49 49 49 49 50 50 50 50 51 51 52 53 53
34 36 44 49 53 51 47 48 55 53 55 54 53 50 50 55 54 50 49 49 48 47 47 47 47 47 46 45 45 46 46 46 47 47 47 47 47 47 48 49 49 50 52 52
29 29 30 46 52 56 53 39 52 54 54 51 49 40 43 51 52 50 51 50 46 46 46 45 45 44 43 42 42 42 44 45 46 46 46 45 45 46 47 48 49 50 50 51
36 33 40 53 53 55 37 41 51 52 53 51 46 48 49 52 50 49 47 46 47 47 43 42 43 42 40 40 39 42 44 44 44 45 44 45 45 45 45 46 47 47 47 49
37 33 29 54 52 44 50 52 52 52 52 50 51 53 50 48 47 46 45 46 46 42 41 42 44 41 38 37 42 43 43 42 42 43 44 45 42 43 43 43 43 44 45 45
42 40 52 53 51 55 55 53 52 52 54 54 53 51 49 46 44 45 44 42 43 41 41 42 43 40 37 39 41 41 40 40 40 41 41 42 40 40 40 41 41 42 42 41
45 48 50 55 58 51 51 49 51 50 50 50 48 48 46 44 43 43 42 40 41 39 38 38 40 40 38 39 40 39 37 37 38 38 39 39 40 40 39 39 39 40 39 38
44 50 52 54 53 50 47 46 45 47 48 47 46 41 40 40 41 40 41 39 39 37 36 36 36 36 37 39 39 37 37 37 37 37 37 37 38 38 38 40 41 39 38 38
41 49 49 49 51 46 46 46 46 44 39 40 40 39 40 40 41 40 38 37 36 35 34 34 35 35 37 38 37 35 35 35 35 35 35 35 35 36 41 42 42 42 42 42
48 50 50 50 50 48 43 44 43 43 42 38 38 40 40 40 38 40 37 36 35 33 33 34 34 34 36 37 36 35 33 34 34 35 34 33 34 33 31 36 40 41 42 42
51 49 46 46 39 40 41 39 38 36 36 36 38 40 39 36 36 36 34 35 34 34 33 33 34 34 36 37 36 34 34 37 33 32 32 32 32 32 32 31 31 33 39 40
46 43 40 39 37 35 36 35 32 33 34 36 37 35 35 34 33 33 35 35 34 33 33 33 33 34 36 36 35 33 33 32 32 32 32 33 33 32 32 32 32 32 33 36
35 34 33 33 35 34 32 33 33 32 33 35 34 34 34 33 32 32 32 33 30 29 32 32 32 34 36 35 33 32 32 35 35 32 31 31 31 30 30 30 31 32 30 30
32 30 33 33 33 33 33 33 33 34 34 33 32 32 31 30 30 29 30 32 31 30 32 31 32 35 35 33 32 31 31 31 34 31 30 30 30 29 29 29 29 29 29 32
36 35 35 35 33 35 35 36 35 33 31 32 32 31 30 29 28 28 29 30 29 30 31 32 33 33 34 33 32 31 31 30 30 29 30 29 29 30 30 30 29 29 30 31
37 35 34 35 38 37 36 34 32 32 32 31 29 28 29 29 28 28 29 28 28 27 31 33 35 35 31 32 34 32 30 29 29 29 29 31 29 29 29 29 29 29 29 30
32 32 34 36 37 34 32 33 32 31 31 30 29 27 26 27 27 27 27 27 28 30 32 32 33 32 31 31 34 31 29 29 29 29 29 30 29 27 28 30 30 29 30 30
32 32 31 32 31 32 31 32 30 29 29 29 27 26 26 26 27 27 26 25 30 32 33 35 32 31 31 32 32 31 30 28 28 28 27 27 27 27 27 28 28 28 29 30
32 31 31 31 30 29 30 30 29 28 28 27 27 26 25 25 25 25 27 26 30 34 33 31 30 32 32 35 31 30 29 28 28 28 27 27 26 25 24 24 24 26 28 27
31 32 31 29 28 29 30 28 28 27 26 26 25 25 25 26 26 24 23 28 30 31 31 30 32 33 34 32 30 29 29 28 27 27 26 24 24 23 23 23 24 25 24 24
30 30 30 30 29 26 24 26 27 27 25 26 27 27 26 25 26 28 28 32 33 31 30 30 31 33 34 30 29 28 27 27 26 24 25 28 24 24 23 23 24 24 25 25
25 21 20 20 21 24 23 22 21 20 23 24 25 26 27 27 25 28 28 28 30 30 28 31 32 32 28 27 26 26 26 25 25 25 26 24 24 23 24 24 24 23 23 24
25 25 25 25 25 24 24 24 22 23 23 23 24 24 25 26 26 27 27 28 27 28 27 27 27 27 27 26 26 26 26 26 26 26 26 25 24 24 24 24 23 23 23 22
21 28 20 23 24 25 23 23 22 21 23 22 23 25 25 26 26 27 27 25 25 25 25 26 26 26 26 26 26 26 26 26 27 26 26 25 24 23 23 24 22 22 21 23

GFSNGP_sfc_temp_003.txt.gz
Temp
47 49 49 49 48 48 45 45 41 46 48 54 51 52 53 54 53 52 52 51 51 49 46 46 48 48 49 49 50 50 49 49 49 49 50 51 51 51 52 53 53 54 54 54
42 48 48 46 48 47 48 48 45 47 48 57 57 53 53 51 52 52 51 51 49 48 45 45 44 46 47 46 47 48 47 47 48 48 48 48 48 49 50 50 50 51 51 51
36 43 44 41 46 46 45 47 48 42 50 53 52 54 52 51 52 51 49 48 47 45 45 45 45 45 43 44 45 45 45 46 46 46 46 46 47 47 47 47 48 48 48 50
34 37 29 46 50 52 48 50 50 50 52 52 52 50 51 51 49 47 47 46 45 43 43 44 44 43 43 44 43 43 43 43 44 44 44 45 45 44 44 45 45 46 47 48
32 32 39 46 47 47 45 46 48 47 50 49 49 47 43 48 48 46 45 44 44 45 44 43 43 43 42 41 40 41 40 41 42 42 42 42 42 42 43 44 44 45 46 47
25 26 28 42 48 52 50 38 49 49 48 48 47 42 43 46 47 48 48 47 45 44 45 44 43 40 39 38 37 37 39 40 41 41 41 40 40 41 42 42 43 44 44 45
32 30 36 47 51 51 36 39 51 51 50 48 45 46 45 46 47 45 45 45 46 44 41 39 40 38 37 36 35 38 39 40 40 40 39 40 40 40 40 40 41 40 41 43
33 29 27 49 48 42 46 47 48 48 51 52 50 48 47 45 43 43 43 42 43 41 38 39 39 37 35 33 37 37 37 38 38 38 39 41 38 38 38 38 37 37 38 40
38 37 48 49 48 48 49 47 44 45 47 49 48 48 46 43 43 43 42 43 42 37 37 39 38 36 33 34 36 36 35 35 36 37 37 38 36 36 36 36 35 36 37 37
42 44 44 47 46 47 48 46 46 46 46 49 48 47 44 44 41 42 42 40 39 38 37 37 38 36 34 35 36 35 34 34 35 35 36 36 36 36 35 34 34 35 35 35
40 46 46 47 46 46 45 45 44 43 43 43 42 39 38 38 40 41 40 40 39 36 34 35 34 33 35 36 34 33 33 34 34 34 34 34 35 34 34 36 37 35 35 35
35 44 43 44 47 45 44 44 44 42 38 37 37 37 39 40 40 40 38 37 35 35 34 33 32 32 34 34 33 32 33 33 33 34 33 33 32 33 38 39 39 40 40 39
43 45 46 47 43 43 41 42 41 39 38 37 40 40 40 40 39 39 36 35 33 33 33 32 31 31 34 34 33 32 30 31 32 33 32 31 31 30 29 34 38 38 39 40
43 43 40 39 39 38 38 37 39 38 38 39 39 39 39 35 35 34 33 32 32 31 31 31 31 32 34 33 33 31 32 35 32 31 30 30 30 30 30 30 29 30 36 37
39 40 40 38 35 35 37 37 35 34 34 33 36 36 35 33 31 30 31 31 31 30 30 30 30 32 34 33 32 32 31 31 31 31 31 32 31 31 30 30 29 29 31 34
34 32 30 32 34 37 35 34 33 32 34 35 33 32 32 31 30 29 30 30 28 28 29 29 30 33 34 33 31 30 29 34 34 31 31 30 30 29 29 29 28 28 28 28
33 32 32 33 33 36 34 36 36 35 34 33 31 31 30 29 28 28 28 29 29 29 30 30 30 32 32 31 29 31 30 30 33 31 29 29 29 28 28 28 27 28 29 31
34 33 34 35 34 36 35 36 35 35 31 31 30 29 28 26 25 26 27 28 27 27 28 30 31 31 31 32 30 30 30 30 29 29 29 29 29 29 29 28 27 28 28 30
36 34 32 34 35 34 33 32 32 31 30 30 28 27 27 26 26 26 26 25 25 25 29 31 33 33 30 30 33 31 30 29 28 28 29 30 28 28 27 27 27 27 27 28
34 33 33 32 33 32 31 31 30 29 29 29 28 26 25 25 26 25 25 25 26 28 30 30 31 30 30 29 33 30 29 28 28 29 28 29 28 27 27 28 28 27 27 27
32 31 30 30 30 30 30 29 28 27 28 28 26 25 25 25 25 25 24 24 28 30 31 33 30 29 30 31 32 31 30 29 28 28 27 27 26 26 26 27 27 27 26 27
30 30 29 29 28 28 28 28 27 27 27 26 26 25 24 23 23 22 25 24 28 32 31 29 29 31 31 34 31 30 29 29 28 28 27 26 26 25 23 23 22 23 24 24
29 29 29 28 27 27 27 26 26 26 26 25 25 24 24 25 25 23 22 27 29 30 30 29 31 33 33 31 30 29 28 27 26 26 25 24 23 22 21 22 22 23 22 23
29 29 29 29 27 25 24 25 25 26 25 25 26 26 24 24 25 25 26 30 31 30 29 29 30 32 33 28 26 25 25 25 24 23 24 27 23 22 22 23 23 22 23 23
25 21 19 19 22 25 22 20 19 18 22 22 24 25 26 25 23 26 26 26 29 28 27 30 31 31 27 25 25 25 24 23 23 24 25 24 24 24 23 23 23 23 23 23
24 26 25 25 25 24 24 23 21 22 22 21 22 23 23 24 23 26 25 27 26 27 25 25 25 26 26 25 25 25 25 25 25 24 25 24 24 23 23 23 23 22 22 20
21 26 20 24 24 24 23 22 20 20 22 21 21 23 23 24 24 25 26 24 24 24 24 24 24 25 25 25 25 25 24 24 25 24 24 24 24 23 23 23 23 22 21 19

GFSNGP_sfc_temp_006.txt.gz
Temp
44 47 46 46 46 45 43 42 41 42 44 47 51 52 54 53 50 50 49 49 47 44 43 43 44 44 44 44 45 46 45 44 44 44 45 45 45 45 46 46 47 47 47 47
42 47 46 44 46 46 46 45 45 44 47 53 54 50 47 44 48 48 48 47 45 45 42 41 40 42 44 43 44 44 42 42 43 43 43 42 43 43 44 44 44 45 45 45
37 43 44 40 43 43 42 44 46 41 48 51 50 51 48 46 48 48 46 45 45 43 43 43 42 43 41 41 42 42 41 41 42 42 41 41 42 42 41 41 42 42 43 44
35 37 30 41 47 50 46 47 47 48 49 48 47 46 45 46 48 46 45 44 43 42 42 41 42 41 41 41 40 39 39 39 40 40 39 40 40 39 39 40 40 40 41 42
33 31 39 43 46 46 45 42 46 46 46 47 48 44 43 45 45 43 42 42 42 42 42 41 41 40 39 38 37 38 38 37 39 39 38 38 37 37 38 38 38 39 41 40
26 27 30 40 47 49 47 36 46 46 46 45 45 39 42 43 44 43 44 43 42 43 44 41 38 38 37 35 35 35 36 37 38 38 37 36 36 36 38 38 38 39 39 39
31 29 34 44 48 49 36 37 44 45 45 45 43 44 43 44 43 43 43 45 45 42 41 39 37 36 34 33 33 35 36 36 36 36 36 36 36 37 36 36 36 35 36 37
31 28 27 46 45 40 44 43 45 45 45 44 43 43 43 43 42 43 42 42 42 38 41 41 40 35 33 31 34 34 34 35 35 35 36 38 34 34 35 34 33 33 34 35
36 35 45 45 46 46 48 47 44 43 45 46 44 43 44 42 43 43 43 42 42 41 40 40 36 33 31 32 33 33 32 32 33 34 34 34 32 33 32 33 32 32 33 33
41 41 42 45 44 45 46 46 47 45 44 44 44 44 42 41 40 42 41 40 40 39 38 35 34 34 32 32 33 32 30 31 32 32 33 33 33 34 32 31 31 31 32 31
38 42 42 42 44 45 45 44 42 42 43 44 42 39 37 37 38 41 40 40 39 37 33 32 32 31 32 32 31 30 29 30 31 32 31 32 33 32 32 33 34 33 33 33
35 42 42 41 42 44 42 42 43 42 40 37 36 37 37 37 37 37 38 38 34 32 31 30 30 30 30 32 30 29 30 31 31 31 31 31 31 31 36 37 38 38 38 37
42 43 44 42 41 41 40 41 41 38 37 36 40 37 40 39 39 40 33 32 31 29 29 29 28 29 31 31 31 30 29 30 30 32 30 30 29 28 27 32 37 37 37 37
41 43 39 39 39 39 38 36 39 39 39 40 40 40 39 37 34 32 30 30 30 30 29 28 28 29 31 31 30 29 29 34 31 29 29 29 29 29 29 28 27 28 34 35
39 40 39 37 35 33 38 37 36 35 36 36 36 35 34 31 30 30 29 30 30 28 28 29 28 30 32 31 31 30 29 29 29 29 30 31 30 29 29 28 28 28 29 32
35 32 29 32 34 34 36 36 34 34 33 33 32 31 31 30 29 29 28 28 26 27 28 28 28 31 31 30 29 29 28 32 33 30 29 29 29 28 28 28 27 27 27 28
33 29 24 25 32 32 33 35 33 36 35 34 31 30 30 29 28 27 27 27 28 27 28 28 29 31 30 29 28 29 29 29 32 30 28 28 29 28 27 27 26 26 26 30
34 32 32 34 34 34 34 33 35 35 33 31 29 28 27 25 25 25 26 26 25 25 27 28 29 30 30 29 29 29 28 29 29 28 28 28 28 29 28 26 26 26 27 29
36 34 34 34 34 33 33 32 33 32 30 29 27 26 26 25 25 25 25 24 23 23 27 28 32 32 29 29 32 30 28 28 27 28 28 29 28 26 26 26 26 26 27 27
32 32 32 32 33 31 31 30 29 28 28 27 27 26 25 25 25 25 24 23 25 26 28 28 29 28 28 28 32 29 28 28 27 28 28 29 28 26 26 28 27 27 26 26
32 32 31 30 30 30 30 29 27 26 27 27 27 26 25 25 25 24 22 22 26 28 30 32 28 28 28 30 31 30 28 27 27 26 27 26 26 26 26 26 26 26 26 26
30 30 29 29 28 28 28 27 27 27 27 26 26 25 23 22 22 21 24 23 27 31 30 28 28 30 30 33 30 28 28 27 26 26 24 24 24 23 22 22 22 23 24 23
30 30 29 28 27 27 27 25 26 26 25 25 24 24 23 23 23 21 21 26 27 29 29 27 30 32 32 30 28 26 25 24 24 24 23 22 22 21 21 22 22 23 23 23
29 29 28 29 26 25 24 25 25 25 25 25 25 25 23 22 23 24 24 29 30 29 28 28 28 32 32 27 25 24 23 23 22 21 22 25 22 21 21 22 22 23 23 23
25 22 18 17 22 25 21 19 18 18 22 22 22 23 24 24 22 24 24 24 28 27 25 29 30 30 25 24 24 23 23 22 22 23 24 22 21 21 22 22 22 23 23 23
24 25 25 24 25 24 24 23 22 21 21 20 21 22 22 22 22 24 23 25 25 26 24 24 24 24 24 24 23 23 23 23 23 23 23 22 22 21 22 22 22 22 22 22
18 25 18 23 23 23 22 22 20 20 21 19 19 21 21 22 22 24 25 22 22 22 22 23 23 23 23 24 24 23 23 23 24 23 23 22 21 21 22 22 22 23 23 22

GFSNGP_sfc_temp_009.txt.gz
Temp
42 44 44 43 44 43 42 41 40 40 41 45 46 48 51 53 50 50 49 46 45 43 42 42 42 42 42 42 43 43 42 41 40 40 40 40 39 40 41 41 42 42 42 42
38 43 43 41 43 43 43 42 42 42 43 50 50 49 50 47 46 47 46 46 44 43 40 40 39 40 41 41 41 41 40 39 40 39 39 38 39 39 39 39 39 40 40 40
35 39 40 38 42 42 42 43 45 42 47 49 47 47 45 45 46 47 46 44 43 42 41 41 40 40 39 39 40 39 38 38 38 38 37 37 38 38 37 37 37 37 38 39
34 36 31 43 47 48 46 46 48 48 48 49 47 45 44 44 46 46 45 43 42 41 40 40 40 40 40 42 39 37 36 36 37 36 36 36 36 35 35 36 36 36 36 38
35 34 38 40 45 44 45 42 47 47 48 47 46 43 43 44 44 42 41 41 41 41 40 39 39 43 41 37 35 35 35 34 35 35 35 35 34 34 35 35 35 35 37 36
29 29 32 41 47 50 48 36 45 46 44 43 43 37 41 41 42 41 42 42 41 40 41 43 41 38 37 37 34 32 34 34 34 34 34 33 33 33 35 34 35 36 35 35
34 32 37 45 47 48 36 37 43 44 43 41 41 43 44 42 41 41 41 41 41 42 41 40 40 39 37 36 32 33 34 34 33 33 32 32 32 33 33 32 33 32 33 34
32 30 31 44 45 41 42 42 45 44 44 43 43 42 41 41 40 40 40 40 40 38 40 40 40 39 36 31 32 32 32 32 32 31 33 35 31 31 31 31 30 30 30 32
37 36 43 42 44 45 46 45 44 42 44 44 43 42 42 41 40 40 39 38 40 38 37 40 39 36 30 31 31 31 30 29 30 30 31 31 28 30 30 30 29 29 30 30
39 39 40 43 44 45 44 44 44 43 43 43 41 42 41 40 39 38 38 37 38 39 38 37 35 32 30 30 31 29 27 27 29 28 31 31 30 31 30 28 28 29 30 30
37 38 40 41 41 42 43 42 41 41 41 40 39 38 37 37 37 38 40 40 39 37 35 31 30 29 29 30 29 28 28 28 28 29 27 29 30 30 30 31 32 32 31 32
36 41 41 40 42 42 41 41 41 39 39 37 36 36 36 37 39 39 38 38 36 32 29 29 28 28 29 30 29 27 28 29 29 29 28 29 29 29 35 36 37 37 37 36
41 42 43 42 42 39 40 38 37 36 36 35 35 36 37 39 39 39 36 32 30 29 28 27 27 27 29 29 29 29 27 29 28 29 28 27 28 27 26 31 36 36 36 36
40 42 39 39 37 36 36 37 39 37 36 37 38 40 40 38 37 34 30 30 29 29 28 27 27 27 29 29 29 27 27 32 29 28 28 28 28 28 29 27 27 28 33 34
39 39 38 37 35 34 34 37 36 36 37 37 38 37 36 33 31 30 29 29 29 27 27 28 28 29 30 29 29 28 28 27 28 28 28 30 30 29 28 28 27 27 28 31
33 30 31 32 33 32 31 32 35 35 36 34 30 30 30 30 29 28 28 27 26 26 27 27 27 29 29 28 27 27 27 32 32 29 29 29 28 27 27 27 27 27 26 26
32 31 27 23 26 30 31 32 37 36 32 31 30 30 29 28 27 27 27 26 27 26 26 27 27 30 29 28 26 27 27 27 31 29 27 28 28 27 27 26 25 26 26 29
34 31 32 32 33 32 33 33 32 32 31 31 29 28 27 26 26 26 25 25 25 24 25 27 28 28 28 28 28 27 27 27 27 27 28 27 27 28 28 27 26 26 26 28
35 35 33 33 32 32 32 32 32 31 30 29 27 26 26 25 25 25 24 23 22 22 25 26 30 30 26 27 31 28 27 26 26 27 28 29 28 27 26 26 26 26 26 27
33 32 33 32 32 31 31 30 29 28 28 27 27 25 25 24 25 24 23 22 23 25 25 26 27 25 26 26 31 28 27 27 27 27 27 27 26 25 26 26 26 26 25 26
33 33 32 31 30 30 30 29 28 26 27 27 26 25 25 25 24 23 21 21 24 27 28 31 27 27 27 29 30 28 27 26 26 25 25 24 23 23 24 24 24 24 25 25
30 30 30 29 28 27 28 27 26 26 26 26 25 25 23 22 22 20 23 22 25 30 29 27 26 28 29 33 29 27 26 25 24 24 23 22 22 22 21 21 21 22 23 23
29 29 30 28 27 27 26 25 25 25 25 25 24 23 23 23 22 20 20 24 26 28 28 27 29 32 32 29 27 25 24 23 23 23 22 21 20 20 20 20 21 22 22 22
29 29 29 29 26 24 24 25 24 25 24 25 25 24 23 21 22 23 23 27 29 28 27 27 28 31 32 26 23 22 22 22 21 20 21 24 21 21 21 21 21 22 22 23
24 20 18 17 20 24 21 18 17 17 21 22 22 23 24 23 21 22 22 23 27 26 24 28 29 29 24 22 22 22 22 21 20 22 23 21 20 20 20 21 21 21 22 22
24 25 25 24 23 24 23 22 21 21 21 20 21 21 21 21 21 22 21 24 24 25 23 22 22 23 23 22 22 22 22 22 22 22 22 21 20 20 20 21 21 21 21 21
17 23 17 22 22 23 22 22 21 20 20 19 18 20 20 20 21 23 23 21 20 20 20 21 21 22 22 22 22 22 22 22 23 22 22 21 21 20 20 20 20 21 21 22

GFSNGP_sfc_temp_012.txt.gz
Temp
41 43 43 43 43 41 40 41 39 40 40 45 44 45 46 46 48 47 47 45 44 43 40 40 40 40 40 40 40 40 39 38 37 38 37 37 36 36 37 37 38 38 38 38
37 41 41 39 42 41 41 40 39 40 41 47 45 46 46 44 47 47 47 45 44 42 40 38 38 39 39 39 39 39 38 39 37 37 36 36 36 36 36 36 36 36 36 36
33 38 38 37 41 40 40 41 43 39 44 47 44 47 46 47 46 46 45 44 42 40 40 39 39 39 37 37 38 38 39 36 36 36 35 35 35 34 34 34 33 34 34 35
33 34 28 40 42 45 43 43 44 45 46 47 47 45 44 43 44 45 43 42 41 40 39 38 38 38 38 40 40 37 35 34 35 34 33 33 32 32 31 33 32 33 33 34
34 32 37 40 43 43 43 40 46 45 46 46 45 42 43 44 42 41 41 40 40 39 38 37 38 41 41 38 34 34 36 34 33 33 32 32 31 30 31 31 32 32 34 33
30 30 32 39 45 49 48 37 47 47 45 44 42 37 41 43 41 40 40 40 39 38 39 39 37 36 35 34 36 36 35 32 32 32 31 30 29 30 31 31 32 33 32 32
34 32 37 45 47 48 37 38 45 45 45 44 42 44 44 41 39 39 39 39 39 39 37 36 37 39 34 33 35 33 32 31 31 31 29 30 29 30 31 30 30 29 30 31
32 30 31 43 45 41 43 42 45 45 45 43 43 43 42 40 39 39 38 38 38 36 38 40 39 34 32 35 31 30 30 30 29 29 31 33 28 29 28 28 28 28 29 29
37 36 43 42 43 44 46 44 43 43 44 45 43 41 41 40 38 38 38 37 37 36 36 35 34 36 31 30 29 29 28 27 28 29 29 29 26 28 28 28 28 27 28 28
39 40 41 43 44 45 46 45 45 43 43 42 41 41 39 39 37 37 36 35 36 37 37 37 36 31 29 29 29 28 25 26 27 26 29 28 29 29 27 27 26 29 29 29
36 37 40 41 42 44 44 43 43 42 40 40 39 37 35 36 36 36 36 37 38 37 35 34 29 28 28 29 28 27 26 27 27 28 25 27 28 27 28 29 30 30 31 31
36 40 40 40 43 42 42 41 39 39 37 36 35 36 35 35 36 36 35 37 36 34 31 28 27 27 28 28 28 25 26 28 28 28 26 28 27 27 34 35 36 36 36 35
40 40 40 40 40 39 39 36 35 35 34 33 34 35 36 35 35 39 36 34 32 29 28 27 27 27 28 28 27 28 25 27 27 28 26 26 26 26 25 30 35 35 35 36
40 41 38 37 37 35 36 37 39 38 37 36 36 37 39 37 34 33 34 30 29 29 27 27 26 26 28 27 28 26 25 32 28 27 26 27 27 28 28 26 25 27 32 33
37 37 38 35 34 33 33 33 32 33 36 37 38 38 37 32 31 30 29 29 29 27 27 27 26 27 28 27 28 26 27 27 27 27 27 29 29 28 27 27 27 26 28 31
32 31 30 31 33 30 30 29 30 32 36 36 35 33 31 30 29 28 27 27 26 25 26 26 26 28 28 27 26 26 26 30 31 28 28 28 27 27 27 26 26 26 26 26
32 31 27 24 24 30 32 32 33 33 35 31 30 30 29 28 27 26 26 25 26 25 26 26 26 28 28 27 25 26 26 26 30 27 26 27 27 26 26 25 26 26 26 28
35 33 34 35 33 32 32 32 32 32 31 31 30 28 27 25 25 26 25 25 24 24 25 27 27 27 27 27 26 25 25 26 26 26 27 26 27 28 27 25 26 25 25 28
34 35 34 34 32 32 31 31 31 31 30 29 27 26 25 25 25 25 24 23 22 22 25 26 30 29 25 26 30 27 26 25 25 25 27 28 26 26 25 24 25 25 25 25
33 33 33 33 32 31 31 30 28 28 28 27 27 25 24 24 24 24 23 22 23 24 25 25 26 24 25 25 30 27 26 25 25 25 25 26 24 23 24 25 24 24 24 25
33 33 31 30 30 29 30 29 28 26 27 26 26 25 25 25 24 23 21 20 24 27 28 30 26 26 26 28 29 27 25 24 24 24 23 23 22 22 23 23 22 22 23 24
30 29 30 29 28 28 28 27 26 26 26 25 25 25 23 21 21 19 23 22 24 30 27 25 25 27 29 33 28 26 25 24 23 23 22 21 21 20 20 20 20 21 22 22
30 29 29 28 28 27 26 25 25 25 25 24 24 23 23 22 22 20 20 24 24 26 28 26 28 31 32 29 25 24 23 22 22 21 21 19 19 19 19 20 20 21 20 20
28 29 28 28 26 24 24 25 24 24 24 24 25 24 23 21 22 24 23 27 28 27 26 26 27 31 31 24 22 21 21 21 20 19 19 23 20 20 20 19 19 20 20 21
23 18 16 17 21 24 21 18 17 18 21 21 22 23 23 23 20 21 21 21 26 26 23 27 29 28 23 21 21 21 21 19 18 20 22 20 19 19 20 20 20 20 21 21
24 25 24 24 23 23 22 21 20 20 21 21 22 22 21 21 20 20 19 23 22 24 21 21 20 22 22 21 20 20 21 20 21 20 22 20 20 19 20 20 19 19 20 20
16 23 17 21 21 22 21 21 20 19 21 20 20 20 19 19 19 22 22 19 19 19 19 19 20 20 21 21 21 21 20 20 22 22 22 20 20 19 19 19 19 19 19 19

GFSNGP_sfc_temp_015.txt.gz
Temp
40 43 45 43 43 41 42 46 44 44 42 48 50 51 52 53 51 51 49 47 46 45 45 45 44 44 44 44 44 44 43 42 42 42 42 42 41 41 41 41 41 41 40 41
38 41 43 41 42 44 45 42 43 43 44 50 51 50 50 51 51 50 49 47 46 45 44 43 43 43 43 43 43 43 42 41 41 40 40 40 40 40 39 39 40 39 39 39
36 40 41 38 42 41 44 42 48 42 51 48 47 48 49 49 50 49 49 47 46 44 43 43 43 43 42 42 42 41 40 40 39 39 38 38 38 38 38 37 38 37 38 38
34 37 29 43 44 46 45 44 45 46 46 48 47 48 48 48 49 48 48 45 44 43 42 42 42 42 42 42 41 39 39 38 38 37 37 37 37 36 36 37 36 37 37 37
34 33 39 41 43 42 44 42 46 44 45 45 47 47 47 48 46 45 46 44 43 43 41 41 41 42 41 39 39 38 38 37 36 36 36 36 35 35 36 36 36 36 36 36
32 32 34 43 47 49 49 40 47 48 45 45 46 42 45 45 44 42 42 42 41 41 41 41 40 40 40 38 37 37 36 35 36 36 35 34 35 35 36 36 35 35 35 35
34 33 38 46 48 48 39 42 46 46 45 44 44 46 45 44 42 41 41 40 41 41 40 39 40 41 38 37 36 35 35 35 35 35 34 35 35 35 34 34 34 33 33 34
33 32 33 45 46 43 44 44 45 45 46 45 45 44 43 42 40 40 39 39 39 38 38 42 41 39 36 35 35 34 33 33 33 34 34 35 33 33 33 32 31 31 32 32
38 37 43 43 44 44 46 45 45 45 45 46 45 43 42 41 40 39 39 38 39 39 39 38 37 37 34 34 33 32 32 32 32 33 33 33 32 32 32 31 30 30 31 31
39 39 40 42 44 45 46 45 45 46 45 45 43 43 41 40 38 38 37 37 37 37 37 37 37 35 33 32 32 31 30 31 32 32 34 34 32 32 31 30 29 31 31 31
35 37 40 41 42 43 43 43 43 43 43 42 41 40 39 38 37 37 37 37 37 37 38 36 33 32 31 32 31 31 31 31 31 32 30 30 31 31 31 33 33 32 32 32
37 41 41 41 43 43 42 40 41 41 39 38 38 38 37 37 37 36 36 36 35 36 35 32 30 30 31 31 31 29 30 31 31 31 30 30 30 30 33 34 36 36 36 35
41 40 39 40 40 40 38 37 37 36 37 36 36 37 37 36 36 38 36 34 35 33 31 30 30 30 30 31 31 30 29 29 30 31 29 28 28 28 27 32 34 34 34 35
39 41 38 37 38 37 37 38 39 36 36 36 37 38 39 37 38 33 32 32 31 31 30 30 30 30 31 30 30 29 29 31 30 29 29 29 29 29 30 28 27 28 33 33
36 37 40 35 35 34 34 33 33 33 34 35 40 40 38 34 31 31 30 31 31 29 29 29 29 29 30 30 30 29 29 29 29 30 29 30 30 29 29 28 28 28 29 31
31 32 33 34 33 32 30 30 33 33 33 34 36 38 33 32 31 29 28 28 29 29 28 28 28 29 30 29 28 28 28 30 31 30 29 29 28 28 28 28 27 28 27 27
33 29 28 24 28 30 30 33 34 33 33 35 32 31 30 29 28 28 28 27 28 28 28 27 28 30 29 29 27 28 28 27 30 29 27 28 28 27 28 27 26 26 27 29
38 36 36 36 32 32 32 32 32 32 34 32 30 29 28 27 27 27 27 27 26 26 27 28 29 29 29 28 28 27 27 27 27 27 28 27 28 29 27 27 26 25 26 27
36 35 34 34 33 33 32 32 32 32 31 30 28 27 27 26 26 26 25 25 24 24 27 27 30 30 27 27 31 29 27 26 27 27 27 28 26 27 26 25 25 25 25 26
33 32 33 33 32 31 31 31 30 29 29 28 27 26 25 25 25 25 24 24 25 26 26 27 28 26 26 26 30 28 27 27 26 26 26 27 26 25 25 25 25 24 24 24
32 32 32 31 31 30 31 29 28 27 28 27 26 26 25 25 25 24 23 23 26 28 29 30 27 26 26 28 30 28 27 26 26 25 24 24 23 23 23 23 22 22 23 24
29 30 30 30 29 28 28 27 26 27 26 25 25 25 24 22 21 20 24 23 26 30 28 26 25 27 30 33 29 27 26 25 24 24 23 23 22 21 20 20 20 22 22 22
30 29 30 29 29 28 26 25 25 26 25 25 24 23 23 23 23 22 22 25 25 26 28 25 28 31 32 29 26 25 24 23 22 22 22 21 20 19 20 20 21 21 20 20
28 28 28 27 25 25 25 25 24 24 24 24 24 24 23 22 22 23 23 26 28 27 26 26 27 30 31 25 22 22 21 21 21 20 20 23 20 20 20 20 19 21 21 21
21 18 16 17 21 24 19 16 17 18 20 20 21 22 22 23 22 21 21 21 25 25 22 26 28 27 23 21 21 21 21 20 18 19 21 20 19 19 20 20 20 20 21 21
24 24 23 22 23 22 21 21 19 19 20 20 21 22 21 20 19 19 19 22 21 23 20 20 20 21 22 21 20 20 21 21 21 20 21 20 20 20 20 20 20 19 19 19
19 23 17 20 21 21 20 20 19 19 21 20 20 19 19 19 19 20 21 18 18 18 18 18 19 19 20 21 21 21 20 20 21 21 21 20 20 19 19 19 18 18 18 18

GFSNGP_sfc_temp_018.txt.gz
Temp
53 53 55 53 51 52 51 55 50 56 54 61 66 64 64 64 63 63 61 59 58 57 57 56 55 55 54 53 53 52 51 50 49 49 49 49 49 48 49 48 48 48 46 47
48 50 52 50 54 55 54 56 56 57 57 66 66 64 62 64 62 61 61 59 58 57 57 55 54 53 52 51 50 51 50 48 47 47 47 47 47 47 47 47 47 46 46 46
46 48 49 45 52 52 55 58 58 52 61 61 58 59 61 61 61 61 61 59 56 56 55 53 53 53 51 51 50 49 48 47 46 46 45 46 46 46 45 45 46 45 45 45
46 47 34 54 54 60 56 59 60 60 59 61 62 60 59 61 60 59 58 57 56 55 52 52 52 51 51 50 49 47 46 46 45 44 44 45 45 45 45 45 45 44 44 44
42 44 50 51 50 51 51 54 58 58 57 57 56 57 54 55 56 56 56 56 54 54 52 50 50 51 50 48 45 46 45 44 44 44 43 44 44 44 44 44 43 43 43 42
41 37 39 52 54 58 59 49 57 58 56 54 55 53 54 53 52 51 51 52 50 50 50 51 50 50 48 44 44 45 44 43 44 44 43 43 43 43 43 43 42 42 41 42
39 37 49 53 55 57 46 50 55 57 56 55 55 55 52 50 49 50 50 48 49 49 49 49 49 47 43 42 44 44 43 43 43 44 43 43 43 43 42 41 41 41 40 41
40 40 39 54 53 51 53 54 55 55 56 53 52 51 51 49 47 46 46 46 48 48 47 48 47 45 41 43 43 43 42 42 42 43 42 42 41 42 41 40 39 39 38 38
49 49 49 51 51 53 57 54 53 54 54 53 51 51 50 48 47 47 46 46 48 48 46 44 43 45 44 43 42 41 41 41 42 42 42 42 41 39 39 39 37 37 36 36
46 47 47 49 51 54 56 54 54 55 54 54 51 51 49 49 47 47 46 46 46 46 43 41 43 42 42 42 41 40 40 41 41 41 40 41 40 40 38 37 36 35 35 35
43 45 48 50 53 52 51 52 51 52 52 52 51 49 49 48 47 47 45 45 45 45 45 44 42 41 41 40 40 39 40 40 40 40 40 39 39 39 37 38 36 34 34 34
52 54 55 53 53 53 51 50 51 49 47 47 49 48 47 47 47 46 44 44 43 44 43 41 40 40 40 40 39 38 38 39 39 38 39 38 37 37 38 37 37 36 36 35
54 55 51 54 53 52 50 48 48 49 48 45 44 46 46 45 45 44 44 43 42 42 41 40 39 38 39 39 38 37 37 37 38 38 37 36 35 34 33 37 37 36 36 36
50 49 45 50 48 49 47 46 45 45 45 45 45 45 45 44 44 43 41 42 41 40 39 39 38 38 39 38 37 37 37 35 36 36 36 35 35 34 34 32 31 33 36 36
49 46 52 48 46 42 43 42 40 42 43 42 44 44 44 42 41 41 40 39 39 38 38 37 37 38 38 37 36 36 35 36 36 36 35 34 34 34 33 33 32 32 34 35
39 40 41 40 38 37 38 39 42 41 41 41 41 42 42 42 41 39 38 38 36 37 38 36 36 38 37 36 35 36 36 34 33 34 34 34 33 32 32 32 32 32 31 31
37 34 34 33 34 38 41 43 44 43 41 41 40 40 39 38 38 37 36 37 37 37 37 36 36 37 36 36 35 35 35 34 33 33 33 33 32 31 32 31 30 30 30 32
48 47 46 45 41 40 40 41 41 40 40 39 39 38 37 36 37 37 36 35 35 35 36 37 36 35 36 35 34 34 34 33 33 32 32 32 32 32 31 30 30 29 30 30
46 45 45 44 44 43 41 40 40 40 39 38 37 36 37 37 37 37 35 34 34 34 37 35 33 34 34 34 33 34 33 32 32 32 32 31 31 31 30 29 29 28 29 28
41 42 42 39 40 41 40 39 39 38 38 37 37 35 34 35 35 34 34 34 35 37 35 34 34 34 34 33 32 33 33 32 31 31 31 30 30 29 29 28 28 27 27 26
39 40 39 39 39 39 39 39 38 37 36 35 35 35 34 34 33 33 31 33 35 33 33 33 33 33 33 32 33 34 32 31 30 30 29 29 28 28 27 27 25 25 25 25
39 39 38 38 38 37 37 36 36 35 34 33 33 33 32 31 31 30 32 32 34 30 33 33 33 32 32 33 34 32 31 30 29 29 28 28 26 25 24 24 23 24 24 24
38 38 37 37 37 37 34 34 34 34 33 32 31 31 31 33 33 31 30 31 32 31 32 32 31 31 32 32 32 30 29 28 27 27 26 25 25 24 23 23 24 24 23 23
36 36 36 34 34 34 34 31 31 31 31 30 30 31 30 30 29 31 30 29 28 29 30 30 30 30 30 30 28 27 27 27 26 25 25 25 24 24 24 23 22 23 23 24
32 29 28 29 31 31 28 26 26 27 28 28 28 28 28 29 29 29 28 28 27 28 28 28 28 27 27 27 27 26 26 25 25 25 25 24 22 22 23 23 23 22 23 22
31 31 30 30 31 30 29 29 29 28 28 27 27 27 27 27 27 27 27 26 26 26 25 26 25 26 26 25 25 25 26 25 25 24 24 23 23 22 22 22 22 22 22 21
27 28 27 27 28 28 29 28 28 26 27 27 25 25 25 25 25 25 24 24 24 23 24 24 25 24 25 25 25 25 25 24 24 23 23 22 22 21 21 21 21 21 21 21

GFSNGP_sfc_temp_021.txt.gz
Temp
57 57 57 54 53 53 52 56 52 58 58 65 68 67 68 68 67 66 64 63 63 62 62 61 60 59 59 57 56 55 54 52 51 51 51 51 50 50 50 50 49 49 48 48
51 55 56 54 56 57 56 57 58 59 60 71 72 72 68 68 67 65 64 63 63 62 62 61 59 58 56 54 53 54 52 50 50 50 49 49 49 48 48 48 48 48 47 47
46 53 52 46 55 56 57 59 59 54 62 70 64 64 66 67 66 65 65 64 62 62 61 60 58 57 54 54 53 52 50 49 49 49 48 47 48 47 47 47 47 47 47 47
45 50 36 56 60 62 59 61 63 63 65 67 66 67 67 68 66 66 65 64 62 61 60 58 58 56 54 53 51 50 48 48 48 47 46 47 47 46 46 47 46 46 45 45
43 45 53 57 55 56 56 56 65 63 65 65 62 59 56 60 64 62 63 62 61 60 57 55 53 53 52 50 48 47 47 47 47 46 45 45 45 45 45 45 44 44 44 43
44 40 39 53 57 61 64 51 67 67 64 61 57 53 55 56 57 56 57 57 56 55 54 53 52 52 50 48 47 47 46 46 46 46 45 44 44 44 45 44 43 43 43 44
40 41 48 56 58 61 48 51 59 63 63 59 57 59 57 56 54 55 53 52 53 52 52 51 51 51 48 46 46 46 46 46 46 46 45 45 44 44 44 43 42 42 41 43
39 38 37 58 56 52 55 58 60 61 61 57 54 53 53 52 50 50 49 49 51 51 49 50 50 49 45 45 46 46 45 44 44 45 45 44 43 43 43 42 40 40 40 39
51 49 53 56 55 58 61 59 59 58 58 56 53 52 51 49 49 48 48 49 51 50 48 48 47 48 46 45 45 44 44 44 44 44 44 44 42 41 40 40 39 38 37 36
51 51 53 54 54 57 61 58 59 58 57 57 53 52 51 50 49 48 48 48 50 49 46 44 45 44 45 44 44 43 43 43 43 42 42 42 42 42 40 39 37 36 34 33
50 49 51 53 56 57 57 57 56 57 58 56 54 53 52 51 50 49 48 48 49 48 46 45 45 44 44 43 43 41 42 42 42 42 41 40 41 41 39 40 38 34 34 34
52 58 58 56 56 56 54 53 54 52 51 53 54 51 52 51 51 49 47 47 47 47 46 44 44 43 43 43 41 40 39 40 40 39 40 40 39 39 41 40 40 39 38 37
57 60 59 58 57 58 55 54 55 54 52 49 51 51 52 49 49 48 47 46 45 44 44 43 42 41 42 42 40 38 38 38 38 38 38 38 37 36 33 37 39 39 39 38
56 56 53 54 51 55 53 52 52 51 51 50 49 49 49 47 45 45 44 44 44 43 42 41 41 40 42 41 39 38 38 38 37 38 37 36 36 35 35 33 32 34 37 37
54 53 56 56 53 50 49 47 45 46 47 47 48 47 46 44 43 43 44 42 41 41 40 40 39 39 41 40 38 37 37 37 37 36 36 36 35 35 34 33 33 33 34 35
47 48 48 46 42 42 42 45 47 46 46 45 45 44 44 45 44 42 41 41 39 38 39 38 38 40 40 38 37 37 37 37 36 35 35 34 34 33 33 32 32 32 31 31
38 35 35 35 37 42 46 49 48 46 45 44 44 43 41 41 40 39 39 40 40 39 39 38 38 39 38 37 36 36 36 36 36 35 34 33 33 32 32 31 30 30 30 32
53 48 48 46 46 46 45 45 45 44 44 43 42 41 40 39 39 39 38 38 38 37 37 39 38 37 36 37 36 35 35 35 34 33 33 33 32 32 32 31 30 29 30 30
51 50 50 48 48 46 44 43 43 43 42 41 40 39 40 40 40 40 39 37 36 36 39 38 35 34 36 36 34 34 33 33 33 33 33 33 32 32 31 30 29 29 29 28
47 47 46 44 45 43 42 44 44 42 42 40 40 39 38 38 38 37 37 36 38 38 36 36 35 35 35 35 34 33 33 33 32 32 31 31 30 30 30 29 29 28 27 26
42 42 41 41 41 43 43 43 42 40 38 39 38 38 37 37 36 36 34 34 36 34 34 34 34 34 34 34 34 33 33 32 31 30 30 29 29 28 28 27 26 26 25 25
43 42 40 40 40 39 40 41 40 38 37 36 36 37 35 33 33 33 35 34 34 31 33 34 34 34 32 33 32 32 32 31 30 29 28 28 27 25 24 24 23 24 24 24
42 41 41 40 39 38 38 38 37 37 36 35 34 34 34 35 35 33 32 32 33 33 32 33 33 32 32 31 31 31 30 29 28 28 27 26 25 24 24 23 23 23 23 23
40 40 39 38 38 38 35 33 33 34 33 32 32 33 33 32 31 32 32 31 30 30 30 31 31 31 31 29 29 28 28 28 27 26 26 27 25 24 23 23 22 23 23 23
34 33 32 33 35 34 30 29 28 30 31 30 30 30 31 31 31 30 30 30 29 29 29 30 30 29 28 28 28 27 27 26 25 26 25 24 23 22 22 23 22 22 22 22
36 35 34 34 34 33 32 33 32 31 31 29 29 29 29 29 29 29 29 28 27 27 27 27 27 27 27 26 26 26 26 26 25 25 24 23 22 22 22 21 21 21 21 21
31 32 30 30 31 32 32 31 30 29 30 30 26 27 27 27 27 27 26 26 26 26 26 26 26 26 26 26 25 25 25 25 25 24 23 22 21 21 21 20 20 21 20 20

GFSNGP_sfc_temp_024.txt.gz
Temp
46 48 49 47 48 48 46 47 41 46 49 53 55 54 56 57 58 58 58 57 56 54 53 51 51 50 49 48 48 48 46 45 43 44 44 44 43 43 43 42 42 42 41 41
47 49 49 47 50 50 50 50 50 51 50 62 57 59 57 56 57 58 58 57 56 55 53 51 49 49 49 47 47 47 45 44 45 44 44 43 42 42 41 40 40 40 39 39
41 49 47 41 49 50 52 53 53 47 55 59 56 58 57 57 57 57 56 56 56 54 53 52 50 49 46 45 46 45 44 44 45 44 43 42 41 40 39 38 38 37 37 38
39 41 29 48 52 57 54 55 56 56 57 57 57 55 54 57 57 57 57 56 54 53 51 50 49 47 46 46 44 44 43 46 45 43 41 40 39 38 37 37 36 36 36 36
38 38 46 48 49 49 49 50 57 55 58 53 52 50 47 52 54 53 53 53 52 51 49 48 46 46 45 43 43 43 43 43 42 41 39 38 37 35 36 35 35 34 36 36
33 31 32 45 51 56 54 41 53 57 56 51 50 42 42 49 51 50 51 51 49 48 48 47 45 45 43 42 41 41 41 41 40 40 38 36 35 35 35 35 36 38 37 36
36 35 39 50 51 54 39 42 52 55 54 51 45 46 49 50 48 48 47 47 47 46 45 43 45 45 41 40 39 40 41 40 40 38 37 36 35 35 34 34 34 33 34 34
37 35 32 52 49 45 49 50 52 52 52 47 47 48 47 47 46 45 45 45 46 44 44 44 44 42 40 38 39 40 39 39 37 36 39 40 34 33 33 32 31 31 31 32
42 42 50 51 50 50 54 52 51 49 49 50 47 46 46 44 44 44 45 45 45 44 42 41 41 40 38 37 39 39 37 35 35 36 36 36 33 32 31 31 30 30 31 30
46 45 47 50 49 49 52 51 51 51 50 49 46 46 45 44 44 43 43 42 44 42 39 37 38 39 38 38 38 37 34 34 35 34 35 34 34 33 31 30 30 31 31 30
43 44 47 47 49 51 51 52 51 51 50 49 47 45 44 43 43 42 42 43 43 40 38 37 37 37 37 38 36 33 33 32 33 33 32 31 32 31 30 31 33 33 32 31
45 52 50 47 50 52 50 49 49 48 46 47 46 45 45 43 43 42 40 41 40 39 37 37 37 37 36 36 34 33 31 31 31 30 30 30 30 32 38 39 40 39 39 37
50 52 51 51 51 51 48 48 48 46 46 45 45 45 44 42 42 45 40 40 38 37 36 37 36 35 35 36 34 32 28 30 29 31 29 28 30 29 28 33 38 38 38 38
52 52 46 48 45 48 48 48 48 45 44 44 43 43 43 40 41 39 37 38 37 36 35 34 34 34 35 35 32 30 30 36 30 28 28 28 29 29 29 28 28 29 35 36
47 47 48 48 47 43 43 43 40 40 41 41 42 41 40 37 36 36 36 36 35 34 33 33 32 33 35 34 31 30 29 28 29 28 28 30 30 29 28 28 28 28 29 32
40 42 43 41 39 38 39 39 40 39 39 39 38 38 38 37 36 35 34 33 31 30 31 31 31 33 33 32 30 29 28 35 35 29 28 27 27 28 28 28 27 27 27 27
38 34 36 35 36 38 40 41 41 39 39 37 36 36 36 35 33 32 32 33 31 31 31 31 30 31 32 31 29 28 27 28 34 28 27 27 28 28 28 27 27 27 27 29
42 39 40 40 40 41 39 40 39 38 37 37 37 35 34 32 31 30 30 30 30 29 30 31 30 29 30 30 29 27 27 26 27 26 27 27 27 28 28 27 27 26 26 28
46 43 43 43 42 40 39 37 37 37 36 36 34 33 34 33 32 31 30 29 28 28 29 29 34 30 28 31 32 27 26 26 26 26 26 30 27 27 26 26 26 26 25 26
45 45 43 39 39 39 37 37 37 35 35 34 33 32 31 31 30 30 29 28 27 28 29 29 29 28 28 29 33 27 25 25 25 25 25 27 25 26 26 27 26 25 24 24
40 40 39 38 37 38 37 37 35 33 32 33 32 31 30 29 29 29 27 26 25 29 30 32 28 27 27 29 28 26 25 24 24 23 23 24 24 24 24 23 23 23 23 24
40 39 37 36 35 33 34 33 32 31 30 30 31 30 28 26 25 25 26 25 26 33 28 27 27 31 28 32 25 25 24 24 23 22 21 22 22 21 20 21 21 22 22 22
39 37 35 34 32 31 31 31 31 30 29 29 28 28 27 26 27 25 24 26 26 29 26 25 31 32 32 25 24 24 23 23 23 22 19 17 19 19 21 21 22 21 20 21
36 33 32 32 32 30 28 27 28 28 27 28 28 28 27 25 25 25 26 30 31 29 26 27 29 32 32 23 22 21 21 21 19 17 20 25 18 19 20 21 20 21 20 21
30 28 28 29 28 27 25 24 24 24 25 24 24 25 25 26 25 24 24 24 28 26 23 28 30 29 22 21 21 21 20 17 14 18 18 15 19 19 19 20 20 20 20 19
30 29 28 29 28 27 26 26 25 25 25 23 23 23 23 24 24 23 22 25 23 25 21 22 22 23 22 21 21 20 20 19 20 19 22 20 19 19 19 19 19 19 18 18
27 29 26 26 27 26 26 26 25 23 25 24 22 23 23 23 23 22 24 21 21 21 21 21 21 22 22 21 21 20 18 18 21 21 20 17 17 17 17 17 17 18 18 17

GFSNGP_sfc_temp_027.txt.gz
Temp
40 42 45 45 45 45 42 44 42 43 45 48 49 50 52 54 55 54 54 53 52 50 50 49 48 46 46 45 45 45 43 42 41 42 42 41 41 41 41 40 41 40 39 38
40 48 47 45 48 46 47 47 48 46 44 52 50 51 51 53 55 54 54 53 52 52 50 48 47 46 47 44 44 44 42 41 42 42 42 40 40 40 39 39 38 37 36 36
35 45 45 39 45 46 46 47 49 43 49 51 51 54 53 51 56 55 54 52 52 52 50 49 47 47 44 43 43 42 42 42 43 44 41 40 40 38 37 36 34 34 34 34
37 39 31 47 50 52 49 51 50 51 55 53 50 46 47 49 54 54 54 54 53 51 50 48 46 45 44 43 42 41 41 43 44 42 40 39 37 36 34 34 33 33 33 33
33 32 41 45 48 47 47 47 52 53 52 50 48 47 45 47 49 51 53 53 50 49 47 46 45 45 43 41 41 41 41 40 41 40 38 37 34 33 33 32 32 31 33 32
30 29 30 42 49 51 50 40 48 49 49 49 48 42 40 44 47 46 48 48 46 46 45 44 43 44 42 39 39 40 40 40 39 39 36 34 33 32 33 32 33 34 33 32
34 32 37 48 50 51 38 41 48 48 50 49 46 45 44 45 43 45 45 45 46 45 43 42 42 42 39 38 38 39 40 39 38 37 35 34 33 32 31 31 31 29 29 29
36 34 30 49 47 43 47 47 46 45 45 43 44 44 43 43 43 43 42 43 44 42 42 41 40 40 36 35 37 38 38 37 36 34 36 37 32 31 30 29 28 27 27 28
41 41 48 47 47 49 51 48 45 44 45 45 43 42 42 41 41 42 42 42 43 41 39 37 38 38 35 35 37 36 36 34 33 34 34 33 30 30 28 28 27 29 29 29
42 46 45 47 46 48 49 47 46 47 46 46 42 42 41 42 42 42 42 40 40 39 37 35 36 36 35 36 36 35 32 32 32 31 33 31 31 30 27 27 26 30 30 30
43 41 43 45 46 48 48 48 47 48 47 45 44 42 42 41 40 41 40 40 39 38 36 34 34 34 34 35 34 32 31 30 29 30 29 28 29 28 27 29 32 31 31 31
42 49 48 47 48 50 49 48 47 45 43 44 45 42 42 41 41 40 39 38 37 35 34 33 34 33 34 34 33 31 29 29 29 29 27 28 26 27 35 37 38 38 38 36
50 49 48 48 48 47 46 45 46 45 46 43 43 44 42 40 39 43 38 37 35 34 33 33 33 33 33 33 32 30 27 28 27 28 26 25 25 27 26 31 36 36 36 37
49 50 46 46 44 46 46 45 45 43 43 43 42 41 41 39 39 36 35 35 34 33 33 32 32 31 32 32 30 29 28 34 28 26 26 26 26 26 27 26 26 27 33 34
45 46 47 45 44 42 43 42 40 39 39 38 39 39 38 35 34 33 33 34 33 32 31 32 31 30 32 31 30 28 28 27 27 27 27 29 28 27 27 27 26 26 28 31
39 42 42 41 39 38 39 39 39 37 37 37 36 35 34 34 32 32 32 32 31 30 30 30 30 30 31 30 28 27 27 33 33 27 27 27 26 26 26 26 26 26 26 26
39 35 36 36 37 39 39 39 40 39 38 37 34 33 33 32 31 30 30 31 31 29 30 29 28 30 31 30 27 27 26 26 33 25 26 26 26 26 26 25 25 25 26 28
41 40 42 41 40 38 37 38 40 39 37 34 34 33 32 31 30 29 29 28 28 28 28 28 28 28 29 29 28 26 26 25 25 25 26 26 26 27 26 26 25 24 25 26
41 40 40 40 40 39 37 36 38 36 34 34 32 31 32 31 29 29 28 27 27 26 26 28 34 29 27 30 30 26 25 24 24 24 25 28 24 25 24 25 24 24 24 24
42 43 42 39 39 38 37 37 35 34 33 32 31 30 29 29 28 28 28 25 26 27 28 28 27 26 26 28 33 25 24 23 23 23 23 25 23 24 24 25 24 23 23 23
40 40 39 38 36 37 35 34 34 32 31 31 31 29 28 28 29 28 26 24 26 29 29 31 27 25 26 28 26 24 23 22 22 21 21 22 22 22 22 22 21 22 22 23
40 38 37 37 34 32 32 32 32 30 30 29 29 28 27 26 25 24 26 25 26 32 27 25 25 31 28 31 24 23 22 22 21 21 20 20 20 19 18 20 20 21 21 20
38 36 35 34 33 30 30 29 29 29 28 27 28 27 27 26 27 25 23 25 26 30 25 24 31 33 32 23 22 22 21 21 21 20 19 17 18 16 19 19 20 19 18 19
36 33 31 31 30 29 25 25 26 26 27 28 27 28 27 25 24 25 27 30 31 28 25 27 28 31 29 21 20 19 19 19 17 15 17 23 16 16 16 18 18 19 19 19
31 29 28 27 26 25 24 24 23 23 24 24 24 24 25 25 24 23 23 23 28 25 22 27 28 28 20 19 19 19 17 15 12 17 19 16 17 18 18 18 17 17 19 17
31 29 27 27 27 27 26 26 24 24 25 22 22 23 22 23 23 21 21 24 22 24 19 20 21 21 20 19 19 19 18 17 18 17 20 18 17 15 15 15 16 16 16 16
28 29 26 26 26 26 26 26 25 24 24 23 21 21 21 21 23 21 23 20 19 19 19 19 19 20 21 20 19 18 16 16 19 18 17 14 14 14 15 15 15 16 16 17

GFSNGP_sfc_temp_030.txt.gz
Temp
35 37 38 42 39 41 39 40 34 39 39 46 48 48 49 51 51 50 49 49 49 48 47 46 45 44 44 44 43 43 41 40 40 40 40 40 39 39 39 39 38 37 37 36
35 44 40 39 42 43 42 40 36 46 47 53 48 48 47 49 50 50 50 50 50 49 47 45 45 44 45 43 42 42 40 40 40 40 41 40 39 38 37 36 36 36 34 33
34 43 40 35 37 43 39 45 46 43 50 50 49 50 48 49 52 52 51 50 49 49 48 47 45 45 43 42 42 40 40 40 40 43 42 39 38 37 36 34 33 32 32 32
35 38 30 45 49 51 49 51 52 51 50 50 49 45 46 46 52 52 52 51 50 49 47 46 45 44 42 42 41 40 39 40 43 42 39 37 36 34 33 33 31 31 31 31
32 30 39 46 46 44 45 45 49 50 48 46 46 46 44 44 48 49 51 51 50 49 45 44 43 43 42 40 39 39 39 41 40 39 37 35 34 32 32 31 30 30 31 30
30 28 29 40 46 49 47 39 46 48 46 46 46 44 43 40 44 45 46 46 45 44 44 43 42 43 41 38 38 38 40 38 37 37 35 33 32 31 31 30 30 31 30 29
32 31 36 46 47 48 37 40 46 46 47 48 47 44 41 41 41 43 43 42 44 44 42 41 41 41 38 37 37 37 37 37 36 35 33 33 31 30 29 29 29 27 28 27
36 30 30 48 48 43 46 43 43 43 43 41 41 41 41 41 41 41 40 41 42 41 39 39 40 40 36 34 35 36 36 35 34 33 35 35 30 29 28 27 26 25 25 26
38 39 45 45 46 47 48 46 42 41 43 43 41 40 41 39 40 40 40 40 41 40 37 36 36 37 34 33 35 34 33 32 32 32 31 30 28 27 26 26 25 24 27 27
41 46 43 44 45 47 47 44 43 43 44 44 40 41 39 40 39 39 39 38 39 38 35 33 34 35 34 34 34 33 31 30 29 29 30 28 29 28 25 24 24 29 29 28
40 41 42 44 44 45 45 45 44 44 44 43 42 40 40 39 39 38 38 37 38 36 34 32 32 32 33 33 33 31 29 29 28 29 26 26 27 25 25 26 30 30 28 29
42 49 48 46 47 47 46 44 45 43 41 42 43 41 40 39 39 38 36 36 35 33 33 31 31 31 31 32 31 29 29 29 28 27 25 27 25 24 33 36 37 37 37 34
50 50 46 47 47 47 45 44 44 43 43 41 41 42 41 38 37 41 36 35 34 32 31 31 31 31 31 31 30 30 27 28 27 27 25 23 23 24 24 29 35 35 35 35
49 50 45 46 43 44 45 44 44 42 42 42 40 40 40 38 37 35 34 33 32 32 30 30 30 29 30 30 30 28 27 34 27 25 25 24 24 25 25 25 24 26 31 33
45 45 47 44 44 42 43 43 40 38 38 37 38 38 37 34 33 32 31 32 32 31 30 31 30 29 30 30 30 28 27 26 27 26 26 28 26 26 25 25 25 25 26 29
39 41 42 41 38 39 39 39 38 36 37 36 35 34 33 32 31 30 30 31 32 29 29 29 29 29 29 29 28 27 26 32 32 27 26 25 25 25 25 24 24 24 24 25
39 34 35 35 37 38 38 39 39 37 37 38 36 33 31 30 29 29 29 30 30 29 29 28 28 29 29 29 27 27 26 26 31 25 24 25 24 24 24 24 24 24 24 26
43 42 42 42 39 37 36 37 38 39 38 36 35 32 30 30 29 27 27 27 27 27 27 27 28 28 28 28 28 26 25 25 25 24 25 24 24 24 24 24 23 23 23 25
40 39 39 39 39 38 36 36 38 37 36 35 33 29 30 29 28 27 27 27 26 25 25 27 33 29 27 30 29 25 25 23 23 23 24 26 23 24 23 23 23 22 22 23
38 40 39 38 40 39 36 38 38 36 34 31 29 29 27 27 28 27 27 24 26 26 26 27 26 26 26 27 31 24 23 22 22 21 21 22 22 22 22 23 23 22 21 22
38 39 39 38 36 37 37 37 36 33 29 30 30 29 28 27 27 26 25 24 25 29 28 30 26 25 26 27 25 22 22 21 20 19 19 20 20 20 20 20 20 21 21 21
40 38 36 36 34 31 33 32 31 30 29 29 28 28 27 24 23 23 25 24 26 31 26 25 25 30 28 28 22 21 21 20 19 19 18 18 18 17 17 18 18 19 20 18
38 36 36 34 33 29 30 29 29 29 28 28 27 26 26 25 26 25 22 25 26 29 24 24 30 32 29 21 20 20 19 19 19 18 16 14 15 14 15 16 18 18 17 17
36 33 31 30 31 30 26 25 26 26 26 27 26 27 26 24 23 24 27 30 31 27 24 26 28 30 27 19 18 17 18 17 15 13 15 21 14 15 16 17 16 16 16 17
31 29 28 28 27 24 23 22 22 23 23 23 23 24 24 24 24 22 22 24 28 23 20 27 28 27 19 18 18 17 16 13 11 14 16 14 16 15 15 14 14 15 17 16
30 29 27 28 27 26 25 26 23 24 24 22 22 22 22 22 23 20 20 22 21 23 18 18 20 20 18 18 18 17 16 15 16 15 17 15 14 13 13 14 14 14 15 15
27 28 26 25 26 26 25 25 24 23 24 23 20 20 20 20 21 20 21 18 18 18 17 17 17 19 19 19 17 16 15 14 17 16 15 12 12 13 14 14 14 15 16 16

GFSNGP_sfc_temp_033.txt.gz
Temp
35 36 37 36 35 36 34 37 33 37 36 42 49 48 47 48 47 46 46 46 47 45 44 43 43 43 43 42 42 42 40 39 38 38 38 38 39 38 37 36 35 35 35 34
32 39 37 35 36 38 40 40 40 40 40 51 51 51 47 47 48 47 47 47 47 46 43 43 43 42 43 41 41 41 39 38 38 38 39 40 40 36 35 34 34 33 32 32
32 37 37 33 37 38 40 43 42 35 43 50 47 48 48 48 50 48 48 47 47 45 45 45 44 44 42 41 40 39 39 38 39 40 40 40 38 35 34 32 31 31 31 30
33 35 28 42 46 44 42 43 44 44 46 48 51 47 47 47 50 49 49 48 48 46 45 44 44 43 41 41 40 39 38 39 40 40 39 36 34 32 31 31 30 30 30 29
34 28 38 42 41 40 38 38 45 45 46 49 46 48 45 46 49 49 50 49 48 47 45 43 42 42 41 38 38 38 37 38 41 40 35 33 32 30 30 30 30 28 29 28
33 27 28 40 45 49 48 38 49 49 48 45 46 44 47 43 45 46 48 47 44 43 43 42 41 42 40 37 37 37 38 40 39 35 33 32 30 30 30 28 30 30 29 28
32 33 35 43 47 47 35 39 46 46 46 45 47 43 40 40 40 43 44 42 43 43 42 40 41 41 38 36 36 37 37 36 34 33 32 31 30 29 27 27 28 25 26 25
36 30 28 46 47 42 45 42 42 41 43 39 38 39 39 40 39 40 40 40 41 39 38 39 40 40 36 35 35 35 34 33 32 31 34 33 28 27 26 26 24 24 24 26
37 37 45 44 45 46 47 45 40 40 41 41 39 38 38 37 37 38 39 39 40 38 37 36 36 39 35 32 33 33 32 30 30 30 30 29 26 26 24 24 23 23 26 26
40 41 41 43 44 46 46 43 41 42 43 43 38 38 37 37 38 38 38 38 39 38 36 32 33 34 33 32 33 31 29 28 28 28 28 26 29 28 23 23 23 28 28 27
39 42 45 44 44 44 42 43 43 42 43 42 41 39 39 37 37 37 37 37 38 36 34 31 31 31 31 32 31 29 28 29 28 28 25 25 27 24 23 25 28 28 27 27
42 47 46 45 46 45 44 43 43 42 41 42 42 39 39 37 37 36 35 35 34 32 32 29 30 30 30 31 30 29 28 29 28 27 24 26 23 23 32 35 36 36 36 34
50 49 45 44 45 45 44 43 43 42 42 39 39 39 39 36 35 39 34 33 33 31 30 30 29 29 29 30 30 29 27 28 26 25 23 22 22 24 23 29 34 34 35 35
46 47 44 44 42 44 44 43 43 40 40 40 39 39 38 37 36 34 33 31 31 30 29 29 29 28 29 29 29 28 27 34 26 23 24 24 24 24 24 23 23 24 30 32
43 44 46 44 43 42 43 42 39 38 38 36 38 37 36 34 32 30 30 31 31 30 29 29 29 27 28 29 29 27 27 26 25 25 25 27 25 25 24 23 23 23 24 28
38 40 41 41 39 39 39 39 37 36 36 35 35 33 32 31 30 29 29 30 31 28 28 29 28 28 29 28 27 26 26 32 31 25 24 24 24 23 23 23 22 22 23 24
39 34 35 35 37 37 39 39 39 37 35 35 35 34 31 30 29 28 28 29 29 28 28 28 27 29 28 27 26 25 24 25 31 24 23 23 23 23 23 23 22 22 22 25
41 41 42 42 39 36 35 36 37 38 37 36 35 32 30 30 28 26 26 26 26 26 27 27 27 28 28 27 26 25 24 24 24 22 23 23 23 23 22 22 22 21 22 23
40 41 40 40 40 38 37 36 37 37 36 35 32 29 28 27 27 26 26 26 25 24 24 27 33 28 26 30 26 24 23 22 22 21 22 25 21 22 22 21 21 21 21 21
37 38 38 37 38 38 35 36 37 35 34 31 29 28 26 25 27 26 26 23 25 25 25 27 25 25 25 27 30 23 22 21 20 20 19 21 20 20 20 22 21 20 20 21
36 37 37 37 35 35 36 36 35 32 30 31 30 28 27 26 26 25 24 23 24 28 27 29 25 25 25 25 23 21 20 19 19 17 18 18 18 18 18 18 18 19 19 20
36 35 35 35 33 31 34 34 32 31 30 28 28 28 26 24 23 22 24 24 25 30 26 24 25 30 26 26 21 20 19 19 18 17 16 16 16 15 15 15 15 17 18 17
37 36 36 34 33 30 31 30 30 29 28 28 27 26 26 24 26 24 22 25 25 28 24 24 30 32 28 20 19 19 18 18 17 16 14 12 14 11 13 14 16 16 15 15
34 32 32 32 32 31 26 25 26 26 26 26 26 26 26 24 23 24 27 30 31 26 24 25 28 30 26 18 17 16 17 16 13 11 13 20 11 13 14 15 14 14 14 15
31 31 30 28 27 24 22 23 23 23 23 23 23 24 24 24 24 21 22 24 28 22 20 27 28 26 17 16 16 16 14 11 8 12 13 11 12 12 13 13 12 13 16 16
32 29 28 28 26 26 25 26 23 23 24 21 21 21 21 22 23 19 20 22 20 22 17 17 19 19 17 16 16 15 14 13 14 13 16 13 12 11 12 12 13 13 14 15
27 28 25 24 25 25 25 25 24 23 23 22 19 19 20 20 21 20 21 18 17 17 17 16 16 18 18 17 15 15 13 12 15 15 12 10 11 10 12 13 13 14 16 16

GFSNGP_sfc_temp_036.txt.gz
Temp
35 37 37 35 34 34 31 33 27 35 36 43 46 49 41 44 45 46 44 44 44 43 42 42 41 41 42 41 41 41 40 38 37 36 37 36 36 36 36 36 34 34 33 32
33 39 37 33 36 35 35 35 35 37 37 49 50 42 43 42 44 45 45 46 45 44 42 41 41 41 41 40 40 41 39 37 37 37 37 36 36 36 36 34 33 32 31 30
31 37 35 33 35 36 36 39 39 32 41 49 47 49 47 44 46 47 47 47 45 44 43 43 42 42 40 40 39 39 38 37 37 38 37 36 37 37 34 31 30 30 29 29
31 35 28 40 45 42 38 42 43 44 45 47 48 48 49 49 47 47 48 47 45 44 43 42 42 41 40 40 39 38 37 37 38 37 36 37 36 33 31 29 29 28 28 28
33 32 35 41 40 39 35 37 44 44 47 48 48 44 44 46 49 48 48 48 46 46 43 42 41 41 40 38 37 37 36 36 37 37 37 36 32 29 29 28 27 27 28 27
34 30 27 38 43 46 46 37 46 46 45 45 44 39 43 44 46 46 48 47 44 42 42 41 40 41 39 37 37 36 36 36 37 38 35 31 29 29 28 27 29 30 28 27
34 32 36 44 45 46 33 39 45 46 47 45 43 43 41 43 43 45 44 42 42 42 41 40 41 41 37 36 35 35 36 36 36 35 30 29 28 27 26 26 27 24 26 24
35 32 28 46 45 40 43 41 43 42 44 46 39 39 40 40 39 40 39 41 40 38 38 39 41 40 36 34 34 34 33 34 32 30 33 31 27 26 25 24 23 23 23 25
37 36 44 44 46 47 46 45 40 40 39 40 38 37 38 37 38 38 38 38 39 38 36 35 37 41 37 30 33 32 32 29 29 29 28 28 25 24 24 23 22 22 25 25
39 41 42 42 44 44 44 42 41 41 40 40 36 37 36 37 37 37 37 37 38 38 36 33 33 34 34 32 32 31 28 27 27 27 26 25 29 27 23 22 22 27 26 26
39 42 42 44 43 41 41 42 42 42 41 39 39 37 37 36 36 37 37 38 38 36 33 31 33 32 32 31 31 29 27 28 27 27 24 24 26 23 22 24 27 28 27 27
39 48 45 44 43 42 41 40 41 40 39 40 40 38 38 37 37 37 35 35 34 33 32 30 31 29 29 30 30 28 28 28 28 26 23 26 23 22 32 34 36 36 36 33
46 45 44 43 45 44 42 42 42 41 40 38 39 39 38 35 35 38 34 34 33 30 30 29 28 28 28 29 29 29 26 27 25 24 22 21 21 23 22 28 33 34 34 34
45 46 43 45 42 43 43 42 42 40 40 39 38 38 38 35 35 34 31 30 31 30 29 29 28 27 28 28 28 26 27 33 25 22 23 22 22 23 23 22 22 23 29 31
42 44 46 44 43 40 41 42 39 37 37 36 37 36 36 33 31 29 29 31 31 29 28 29 27 26 27 28 28 26 27 25 24 24 24 26 24 23 23 22 22 21 23 26
38 40 41 40 39 38 39 39 37 35 36 35 34 33 31 30 29 28 29 30 30 28 27 28 27 27 27 27 26 26 25 32 30 24 23 23 23 22 22 22 21 21 21 22
38 35 36 36 37 38 39 39 39 37 35 34 33 33 32 30 29 28 27 27 28 27 27 27 26 28 27 27 26 24 24 24 30 23 22 22 22 21 22 22 21 21 21 24
41 42 43 43 39 37 36 36 37 37 36 35 35 33 31 30 28 26 25 26 26 25 25 26 27 27 27 26 25 24 24 23 23 21 22 21 22 22 21 21 20 20 21 22
40 40 40 40 40 38 37 36 35 35 36 35 32 29 28 27 27 26 25 25 24 24 23 27 32 27 25 29 25 23 22 21 20 20 21 23 20 21 20 20 20 20 20 20
37 38 39 37 39 38 35 36 37 35 35 32 31 29 26 25 26 26 26 23 24 25 26 27 25 24 24 27 28 21 20 19 19 18 18 19 18 19 19 20 20 19 19 19
35 36 36 35 34 35 36 37 35 32 31 31 30 28 26 26 26 26 25 24 24 28 27 28 25 23 24 24 22 20 19 18 18 16 16 16 16 16 17 17 17 17 18 19
34 34 34 34 34 33 34 34 33 31 30 29 28 27 26 24 23 23 24 24 25 30 25 24 24 29 26 26 20 19 18 18 17 16 15 15 15 14 13 14 14 15 17 16
35 35 35 35 32 30 32 32 32 30 28 28 27 26 26 25 25 24 22 25 25 28 23 24 31 31 28 19 18 18 17 16 16 15 13 11 13 11 12 12 14 15 13 14
35 34 32 32 32 31 27 26 27 27 26 26 26 26 26 24 23 24 27 30 31 26 23 25 27 29 25 17 16 15 15 15 12 10 12 19 10 11 12 13 12 13 13 14
32 31 31 31 29 24 24 23 23 23 23 23 23 23 24 23 23 21 22 24 28 22 19 27 28 25 17 16 15 15 13 10 8 11 12 10 11 10 11 11 11 13 16 16
31 30 30 30 27 26 26 27 23 23 23 20 20 20 20 22 23 19 20 21 20 22 16 16 18 18 16 15 16 14 13 12 13 12 15 12 11 10 10 11 12 13 13 14
28 29 26 25 26 25 25 25 24 23 23 22 19 19 19 19 21 19 20 17 16 16 16 16 15 17 17 16 14 14 12 11 14 14 10 9 9 9 11 12 12 13 13 14

GFSNGP_sfc_temp_039.txt.gz
Temp
36 38 37 34 34 34 31 33 29 36 35 41 46 46 47 50 46 46 43 43 44 43 44 45 45 46 45 44 45 45 44 43 42 42 42 42 41 41 41 42 41 40 39 39
33 38 38 33 37 35 36 36 34 36 35 46 48 49 47 47 46 47 44 44 43 44 44 44 44 44 44 44 44 45 43 41 41 41 41 41 41 40 40 39 39 39 38 37
29 38 38 34 37 36 36 38 38 32 40 46 45 48 49 48 48 48 45 44 43 43 44 44 44 45 43 43 44 43 41 41 41 41 40 40 40 40 39 38 38 37 37 36
31 35 27 41 44 43 38 40 42 42 44 47 47 48 48 47 47 48 47 45 44 45 44 44 45 44 43 43 42 41 40 41 41 40 39 39 39 38 37 37 36 36 36 35
32 32 37 41 42 40 37 40 43 43 45 47 47 46 45 48 48 49 48 47 47 46 44 44 43 44 42 41 41 41 40 40 40 40 39 39 37 37 36 36 35 35 35 34
33 30 28 38 43 46 44 37 46 45 45 45 45 40 42 43 47 47 48 47 44 44 44 44 43 44 42 40 41 39 40 39 40 40 39 37 36 35 34 34 35 35 34 34
33 32 34 44 44 45 36 39 46 47 47 46 44 42 41 43 43 46 46 44 45 45 44 42 43 43 40 41 39 39 39 39 38 38 36 35 34 34 33 33 32 32 32 33
35 32 28 45 44 40 45 46 46 46 46 46 40 40 40 40 40 41 41 42 43 41 40 42 43 43 41 37 38 39 38 37 36 36 36 34 33 32 32 31 31 30 30 33
37 36 45 44 46 48 46 44 44 43 43 44 40 39 39 38 38 39 40 40 41 40 38 39 42 43 37 36 38 37 36 35 34 33 33 33 32 31 32 30 29 30 31 31
39 42 42 45 45 44 43 42 41 41 40 41 37 38 37 37 37 38 38 38 39 39 37 36 40 40 37 37 36 35 33 32 32 32 31 31 33 32 30 29 29 31 30 30
40 43 43 43 44 42 41 43 41 41 40 38 38 37 37 36 36 37 37 38 39 37 35 33 35 35 36 35 34 32 31 32 32 31 30 30 31 30 30 31 32 32 32 32
40 46 45 43 44 44 41 40 41 40 39 40 39 37 37 36 37 37 36 36 35 34 33 33 33 32 32 33 34 32 31 31 31 30 29 30 29 29 32 35 35 35 35 34
46 44 43 43 44 44 41 40 41 40 39 37 38 38 37 35 36 38 35 35 33 32 32 32 31 30 31 32 33 31 30 30 31 28 28 28 27 28 26 30 33 33 33 34
45 45 42 44 43 43 42 42 42 40 40 39 38 38 37 35 35 34 32 32 32 32 31 31 30 29 30 31 31 30 31 32 29 28 28 28 28 27 27 26 25 26 30 31
42 44 46 44 42 40 41 41 38 37 37 36 38 37 36 33 31 30 32 33 32 31 30 30 29 28 30 31 30 29 29 29 28 28 28 29 27 27 26 26 25 24 26 28
39 41 42 41 39 39 40 39 37 36 36 36 35 33 32 32 31 30 31 32 32 29 29 29 28 28 29 29 28 28 29 33 31 27 26 26 26 25 25 24 24 24 24 24
37 36 36 35 37 39 40 41 39 37 36 34 32 32 32 31 30 30 28 30 30 28 28 29 27 29 28 28 28 27 27 27 30 26 25 25 25 24 24 24 23 23 23 25
41 42 43 44 41 37 36 37 37 37 35 34 34 32 32 31 28 27 26 27 27 26 26 27 28 28 28 27 27 26 26 25 25 24 24 24 25 24 23 22 22 21 22 23
39 40 40 40 40 38 37 37 36 36 36 35 33 30 29 28 28 26 27 27 26 25 25 28 32 28 27 30 26 25 24 23 23 22 22 24 22 22 22 21 21 21 21 21
36 37 38 37 39 37 35 36 37 35 34 32 30 29 27 26 27 27 27 24 25 26 26 27 26 25 26 28 27 23 22 22 21 21 20 22 20 20 20 20 20 20 20 20
34 36 35 35 35 36 36 36 35 32 32 33 31 28 26 26 27 27 25 24 25 28 27 28 25 25 25 25 23 22 21 20 20 19 18 18 18 18 18 18 17 18 18 19
33 33 33 34 34 33 35 35 34 32 30 28 28 27 26 24 23 23 25 25 26 30 26 25 25 28 26 25 21 21 20 19 19 18 17 17 16 15 15 15 15 16 17 17
33 34 34 34 32 30 31 32 31 31 30 29 27 27 26 25 26 25 22 25 26 29 24 25 30 30 27 20 20 19 18 18 17 17 16 15 15 14 14 14 15 17 15 15
34 35 32 32 32 30 26 27 28 28 27 27 26 26 26 23 23 24 28 30 32 27 24 26 28 28 24 18 18 17 17 17 15 13 14 19 14 13 14 14 13 14 15 15
31 31 32 31 29 26 25 25 24 24 24 23 23 23 24 24 24 22 23 26 29 22 20 28 28 24 17 17 17 16 15 14 12 15 15 13 13 12 13 13 13 13 17 17
32 32 31 31 28 28 27 28 24 24 24 21 20 21 21 23 24 20 20 22 20 22 17 17 19 18 17 16 17 15 15 14 14 13 16 14 13 12 12 12 13 14 14 14
29 30 28 27 28 27 26 26 25 24 24 23 19 19 20 20 21 19 20 17 17 17 16 16 16 18 18 17 15 15 14 13 15 15 15 11 11 10 11 12 12 13 14 14

GFSNGP_sfc_temp_042.txt.gz
Temp
38 41 42 39 36 35 32 33 30 40 42 48 52 51 53 56 57 54 50 49 50 52 53 52 50 49 48 48 49 49 48 49 51 52 52 51 50 51 51 50 49 48 47 46
33 43 42 35 40 38 38 38 35 36 37 52 54 55 54 55 53 49 50 47 49 50 49 47 47 46 46 46 47 48 47 47 49 49 50 49 49 49 48 47 47 46 46 45
31 42 41 37 40 38 39 39 40 33 44 52 51 51 51 51 52 53 49 47 48 47 47 46 46 46 45 46 48 47 48 49 49 49 48 48 48 47 46 45 46 45 44 44
32 38 33 45 49 44 40 42 43 46 48 51 51 52 53 50 51 53 50 49 48 46 46 47 47 47 47 48 50 50 49 48 49 48 46 47 46 45 44 45 45 45 44 44
32 33 42 46 48 44 39 41 49 47 50 52 53 52 44 48 54 53 52 52 49 48 48 50 50 51 51 51 50 49 47 47 47 47 46 46 44 43 44 44 44 44 43 42
34 30 32 46 50 49 48 38 49 49 50 51 51 48 45 46 50 50 53 52 50 51 52 52 51 52 50 49 48 46 46 46 47 47 46 44 42 43 43 44 43 43 42 42
32 31 41 53 51 51 39 39 47 48 50 50 50 46 47 50 51 51 50 50 52 52 51 50 51 51 48 47 45 46 46 45 44 44 42 42 44 44 43 42 42 42 41 42
33 32 32 53 53 47 51 50 49 48 49 48 47 45 44 45 45 47 46 47 47 44 45 47 49 47 45 42 42 42 42 40 40 41 42 43 43 42 41 41 41 40 40 41
46 45 55 54 53 55 52 51 50 48 48 46 43 44 44 43 43 44 44 45 48 47 47 49 48 45 39 39 40 40 39 39 40 42 42 42 42 41 42 41 40 39 38 38
46 54 53 54 53 51 47 48 46 45 47 49 46 42 39 40 41 43 45 45 46 46 45 44 43 41 39 39 40 40 40 41 41 41 41 41 41 41 41 40 38 37 37 36
48 54 56 54 51 49 46 45 45 45 45 46 45 44 43 41 41 42 43 44 46 44 44 41 40 39 40 40 43 42 42 41 40 40 40 40 39 40 40 40 37 36 36 36
51 54 54 51 48 48 47 44 44 44 42 44 45 42 43 41 42 42 41 42 42 42 41 40 39 38 40 43 44 42 40 40 40 40 40 39 39 39 35 35 35 35 35 35
54 53 50 49 49 48 45 44 44 43 43 41 43 43 42 41 41 41 41 41 41 40 39 40 40 39 41 42 42 41 40 39 38 39 38 38 38 36 34 37 36 35 34 34
53 52 49 49 48 47 45 44 42 43 43 42 42 42 41 39 40 40 39 39 40 40 39 39 39 38 40 41 40 39 38 36 38 37 37 37 36 35 34 32 32 33 35 33
51 51 50 47 44 42 45 44 41 40 39 39 42 40 40 38 37 37 39 40 39 38 38 38 37 36 39 40 38 38 38 37 37 36 36 34 34 33 33 32 32 31 32 33
45 45 45 42 40 39 40 42 40 39 40 41 40 39 38 38 37 37 38 38 37 36 36 36 35 36 38 38 37 37 37 34 34 35 34 33 33 32 31 31 30 30 30 29
42 38 38 37 38 39 40 40 43 41 40 39 37 37 37 36 36 36 36 38 37 36 37 37 34 36 37 37 37 36 36 35 31 33 32 31 31 30 30 29 29 28 28 30
48 45 46 48 44 43 40 41 41 41 39 38 38 38 37 38 35 34 34 35 35 34 35 35 36 35 35 35 35 35 34 33 32 31 30 30 30 30 29 28 27 27 28 28
46 46 48 47 46 44 42 41 41 39 39 38 38 37 37 35 35 34 35 35 34 31 32 35 33 34 34 33 33 34 32 31 30 30 29 28 29 28 27 27 27 27 27 26
43 45 45 43 44 43 40 40 40 39 39 38 35 34 33 33 33 33 35 34 35 35 35 34 34 34 33 32 31 32 31 30 29 28 28 28 27 27 26 25 25 25 25 25
41 42 41 41 40 41 41 41 39 37 36 37 36 34 32 32 33 33 32 30 31 33 33 32 33 32 32 31 31 30 29 28 28 27 26 25 25 25 24 24 23 23 23 24
40 40 39 39 39 39 40 41 38 37 36 35 33 32 31 30 30 30 34 32 32 33 32 32 32 31 31 29 29 28 27 26 26 26 25 25 23 22 22 22 22 22 22 23
39 39 39 38 37 36 37 37 37 36 34 33 32 32 32 32 32 30 27 31 33 32 32 32 31 30 28 29 28 26 26 25 24 24 24 23 22 22 21 21 21 22 21 21
37 38 36 36 36 35 32 33 34 35 34 33 32 31 31 29 29 32 33 32 33 31 32 32 31 28 26 27 26 25 25 24 23 23 23 22 21 21 21 20 20 21 21 21
34 33 33 33 34 31 30 30 29 30 30 30 30 30 31 33 31 30 31 31 31 30 30 30 28 25 26 25 25 24 24 23 22 24 23 21 20 20 20 20 19 20 21 22
34 35 34 35 32 32 32 33 30 30 29 27 27 28 29 30 30 28 28 28 27 27 26 25 26 25 24 24 24 23 23 23 22 21 21 20 20 19 19 19 19 19 20 20
32 32 31 31 32 32 32 31 30 29 29 28 24 26 26 26 27 26 26 25 25 24 24 24 23 23 24 23 22 22 22 21 20 20 21 19 18 18 18 18 18 18 19 19

GFSNGP_sfc_temp_045.txt.gz
Temp
40 43 43 42 41 42 34 34 30 38 38 46 49 52 55 57 58 59 58 55 54 55 57 57 58 59 56 56 56 55 54 53 51 52 52 54 53 53 53 52 51 50 49 48
33 43 44 41 46 46 42 39 38 38 36 49 54 57 53 54 56 53 52 49 50 53 54 53 51 51 51 51 50 52 51 49 50 51 52 51 51 51 50 49 48 48 47 47
32 44 45 38 44 43 40 41 40 35 47 53 51 48 46 48 48 50 51 48 49 50 50 48 47 48 47 48 49 47 47 48 49 50 50 50 50 49 47 47 47 46 46 46
35 43 32 49 55 50 44 44 48 47 49 51 51 52 49 47 50 50 49 48 49 48 47 46 47 46 47 48 46 47 46 47 49 50 49 49 48 46 46 46 46 46 45 45
34 36 43 50 51 47 42 41 48 48 52 54 54 47 45 48 53 51 51 50 49 48 46 45 44 46 47 46 46 47 46 48 50 49 48 47 45 45 45 45 45 45 44 43
36 30 30 48 52 52 50 37 52 47 49 52 54 40 41 47 53 51 48 47 44 44 43 41 42 44 43 43 44 45 48 49 50 49 47 45 44 44 45 45 43 43 43 44
32 32 42 56 55 53 41 40 50 47 47 52 48 46 47 49 50 52 47 45 46 46 43 44 47 50 49 50 48 49 49 49 47 46 44 44 44 44 44 43 42 43 42 44
34 32 32 57 56 47 53 52 52 46 48 47 49 47 46 49 48 49 49 51 53 52 52 54 55 52 48 45 46 45 43 42 41 42 44 45 43 43 42 42 42 42 42 41
43 45 59 59 56 59 57 54 53 51 46 46 44 41 43 45 44 42 42 41 44 46 45 46 45 44 39 40 41 40 40 40 41 43 44 44 43 42 42 42 41 40 38 38
50 57 58 60 61 56 53 52 51 49 51 47 45 46 46 46 45 45 46 44 45 46 45 42 42 41 40 40 41 41 41 42 42 42 42 42 40 41 41 40 39 37 37 36
52 57 60 56 54 53 50 49 49 48 49 52 45 42 42 40 44 46 47 48 49 47 42 39 39 39 40 41 43 42 42 41 41 40 41 40 40 41 41 40 37 35 35 34
51 56 56 54 53 52 50 46 48 47 47 50 49 45 46 45 46 46 46 46 43 40 38 38 39 39 41 45 44 42 40 40 40 40 41 40 40 40 36 36 36 36 35 34
56 57 55 52 52 52 48 47 47 47 47 45 47 46 45 44 45 45 45 43 40 38 38 38 39 40 43 44 44 41 41 39 38 41 40 39 39 36 35 38 37 36 36 36
59 56 52 52 51 50 46 44 45 46 46 46 45 45 44 43 43 43 41 39 39 39 38 39 39 39 42 43 41 40 39 40 39 39 37 37 36 35 35 33 32 34 37 36
56 57 54 53 50 47 46 46 43 42 43 42 43 43 43 41 39 39 41 40 40 39 39 38 37 38 42 42 40 39 39 38 38 37 35 34 35 34 34 33 32 32 33 34
51 51 49 46 43 42 42 43 41 41 42 42 42 42 41 40 39 39 39 40 38 36 37 37 37 39 40 40 39 38 36 35 36 36 35 34 34 33 32 31 31 31 30 30
44 39 40 38 39 40 40 42 42 42 41 41 39 39 38 37 38 38 39 39 38 37 38 37 36 38 39 39 38 37 36 35 33 34 33 32 32 31 31 30 29 29 29 31
52 51 47 46 43 40 39 41 44 43 40 40 40 39 38 38 36 36 36 37 37 36 37 37 37 37 37 37 37 36 35 34 33 32 31 31 31 30 30 29 28 28 28 29
50 49 46 49 47 46 42 43 44 42 41 41 40 40 40 38 36 36 37 36 34 32 33 35 35 36 35 34 36 35 34 32 32 31 30 30 30 30 29 28 27 27 27 27
47 49 51 49 49 47 44 44 42 41 42 41 38 36 35 35 36 36 37 36 36 35 36 34 36 35 33 32 34 33 32 31 30 30 29 28 28 27 27 27 26 26 25 26
44 46 45 45 45 45 44 44 42 40 38 39 37 35 34 35 36 35 32 30 33 35 35 35 35 33 33 32 33 32 31 30 29 28 27 27 26 26 25 25 25 25 24 24
44 43 43 43 42 41 43 43 41 38 38 37 36 35 34 33 33 34 36 32 33 35 34 33 33 33 31 31 31 30 28 28 28 27 26 26 25 24 23 23 22 23 23 23
43 43 43 42 41 41 42 40 39 38 36 35 34 34 33 33 34 31 28 33 33 34 34 33 32 31 30 30 29 28 27 27 26 26 25 24 23 23 22 21 22 22 21 22
41 41 41 41 40 38 36 37 37 37 36 35 35 35 34 31 32 35 34 34 34 33 33 31 30 29 29 28 28 27 26 26 25 24 24 26 23 22 22 21 20 21 21 21
37 35 35 35 36 35 33 33 32 33 33 33 33 34 35 35 33 32 33 33 33 32 31 31 29 27 27 27 26 26 25 25 23 24 23 22 21 21 21 20 20 20 20 21
36 36 37 38 35 34 34 35 32 33 32 30 30 31 31 32 33 32 31 31 29 30 28 27 27 26 26 26 25 25 24 24 24 23 22 21 21 20 19 19 19 19 19 19
34 35 33 33 34 35 35 33 32 31 31 30 28 29 30 29 30 29 29 27 27 26 26 25 25 25 25 24 24 24 23 23 23 22 21 20 19 19 19 19 18 19 19 19

GFSNGP_sfc_temp_048.txt.gz
Temp
37 40 41 38 37 37 34 34 29 36 37 43 45 46 48 50 50 50 54 51 50 49 52 53 53 54 53 53 50 50 49 50 49 51 51 51 50 50 47 48 46 45 43 43
29 39 40 35 40 40 41 41 37 38 38 46 51 51 49 48 47 47 49 47 47 49 52 51 51 51 51 49 48 50 49 49 50 49 49 48 48 47 45 43 43 44 42 43
30 39 40 35 41 42 40 43 41 36 43 49 47 50 45 45 46 48 49 47 48 48 48 47 48 48 47 47 49 49 48 48 48 48 47 46 46 45 42 42 41 42 41 40
28 35 26 43 50 48 43 44 46 45 48 51 50 47 45 46 47 47 49 48 48 47 46 46 47 47 47 47 47 46 46 46 47 47 45 45 44 42 41 42 40 39 41 41
31 33 38 44 47 43 41 41 46 44 47 50 49 46 43 46 49 48 47 47 46 46 45 45 45 46 45 45 44 44 43 44 46 45 44 44 42 41 39 38 41 41 41 40
31 27 26 42 47 50 48 36 49 45 45 47 45 41 40 45 45 45 45 45 42 43 44 43 43 45 43 43 42 41 42 44 45 43 42 40 38 39 41 41 40 40 38 36
31 30 35 49 48 49 36 39 48 46 46 45 40 43 45 44 41 41 40 40 42 41 39 40 42 41 39 38 37 38 39 38 39 41 40 41 41 41 40 37 36 35 35 35
32 29 26 50 48 43 47 49 50 46 46 45 44 44 46 46 41 40 40 40 40 38 38 40 41 39 36 35 37 39 39 40 41 42 43 42 39 37 36 35 34 34 33 32
37 37 49 50 50 52 51 48 48 47 45 45 42 42 43 42 40 40 41 44 45 42 40 43 44 43 37 36 40 40 40 39 40 40 39 38 35 34 34 34 33 32 31 29
42 48 49 50 52 49 47 46 48 44 45 45 42 42 41 40 40 39 40 39 40 39 37 36 38 39 39 40 41 41 39 38 37 36 35 35 34 35 33 32 30 29 28 27
44 49 49 50 48 47 46 46 46 45 46 46 44 43 42 40 43 43 42 41 42 40 38 37 38 39 40 41 42 39 37 34 34 35 34 33 33 31 30 29 30 27 26 27
43 49 49 44 46 48 46 44 46 45 44 44 43 40 42 41 44 45 42 40 39 38 37 37 39 40 41 42 40 37 34 33 32 32 32 31 30 29 37 37 37 36 36 33
48 50 48 47 47 47 45 44 45 44 44 43 44 44 44 43 42 42 39 39 38 37 38 39 39 39 41 40 37 34 31 31 32 32 30 29 29 27 26 30 39 39 37 37
52 50 46 47 43 44 43 42 44 44 44 42 42 43 42 41 41 39 38 37 38 38 38 38 38 37 37 37 34 32 32 38 29 28 28 28 27 27 26 26 25 25 33 35
51 50 48 46 44 41 41 42 40 39 39 39 41 41 41 38 35 36 38 39 38 37 36 36 35 33 36 35 32 31 30 28 28 27 27 29 27 27 26 26 25 24 25 29
45 45 44 41 39 39 39 41 40 39 38 39 39 39 38 37 37 37 38 38 35 32 33 32 32 32 34 33 30 28 29 36 32 28 27 27 26 26 25 25 24 23 23 24
40 36 37 34 37 39 41 42 42 41 40 39 37 37 36 35 35 34 34 35 34 32 32 32 30 31 32 31 30 28 27 27 34 27 26 26 25 25 24 24 23 23 23 27
45 43 42 42 41 40 40 41 40 41 38 38 37 37 36 34 32 31 32 32 32 30 30 30 30 31 31 30 29 27 27 26 26 25 26 26 25 24 24 24 23 22 22 26
45 46 45 45 43 42 41 40 41 40 39 38 38 36 35 33 32 32 32 31 29 28 27 31 35 30 27 32 29 26 26 26 25 25 25 27 24 24 23 23 22 22 22 24
44 47 46 44 44 42 41 41 40 39 39 39 36 34 32 32 33 33 32 29 28 29 30 31 29 27 27 30 32 25 25 24 24 23 23 22 22 22 22 25 24 23 22 23
42 43 43 42 42 42 41 41 40 38 36 37 34 33 32 33 32 31 29 27 27 31 30 32 27 26 26 27 26 24 23 23 22 21 21 20 21 21 20 21 21 22 22 22
40 40 40 41 40 39 40 40 38 36 35 34 33 33 31 29 29 28 29 28 28 34 28 27 27 30 28 30 24 23 23 22 21 20 19 19 19 17 15 15 15 19 19 17
39 39 39 38 38 38 39 37 37 36 34 34 32 31 31 31 30 27 24 27 27 32 26 26 31 32 32 23 23 22 22 21 21 19 16 13 14 12 12 13 15 15 14 16
37 37 36 36 37 35 34 33 34 34 34 33 32 32 32 29 26 27 30 33 34 31 27 27 29 31 29 22 21 20 20 20 15 12 15 22 12 12 12 13 13 14 15 17
29 29 29 29 30 30 31 31 30 30 30 29 30 30 30 30 28 27 28 29 34 28 25 31 30 29 21 20 20 19 17 12 9 12 13 11 11 11 11 13 13 14 16 14
31 31 30 31 29 31 32 33 30 30 30 28 28 29 29 30 31 28 27 28 27 28 22 22 22 22 21 20 20 19 18 15 15 14 16 12 12 11 12 13 13 15 15 14
27 31 27 28 29 30 32 32 31 30 31 30 27 28 28 27 28 26 27 24 23 23 21 21 21 22 20 20 19 18 14 14 19 15 12 10 10 10 12 13 13 15 15 15

GFSNGP_sfc_temp_051.txt.gz
Temp
34 37 37 35 34 35 28 34 29 36 36 42 47 46 49 51 48 51 51 50 49 50 47 46 45 46 47 47 48 49 49 48 48 50 50 51 49 49 49 48 47 46 44 43
27 37 37 33 37 37 37 38 38 39 37 47 50 50 51 46 47 47 49 48 49 47 45 45 46 49 48 47 47 49 48 47 49 49 48 47 47 46 45 45 44 43 42 41
24 36 36 28 37 38 38 40 42 35 43 49 48 48 43 44 45 46 47 48 47 43 43 44 47 48 46 47 48 47 47 48 47 47 45 44 44 44 43 42 42 40 40 39
25 30 25 39 46 46 41 43 45 46 47 48 48 45 44 45 46 45 44 46 45 44 43 44 45 46 47 46 47 46 45 44 43 41 40 42 43 42 41 40 39 39 40 40
29 29 34 43 44 42 39 39 48 46 48 48 46 46 42 44 44 42 43 43 43 44 44 44 44 45 44 42 43 42 42 42 39 40 41 41 40 40 41 41 40 40 40 39
30 24 24 42 45 46 46 36 47 47 46 45 42 41 39 40 42 41 42 43 42 43 43 43 43 43 40 39 37 34 36 35 41 40 39 36 37 36 37 40 40 39 38 37
31 27 33 44 47 46 34 36 46 47 46 44 41 42 40 41 39 40 41 40 42 41 40 40 40 40 37 36 34 34 38 37 36 36 35 35 37 39 39 38 37 35 33 33
33 29 24 47 44 40 45 45 46 45 45 42 44 44 41 40 39 39 38 37 38 36 34 38 39 39 34 34 33 35 36 35 34 37 40 41 38 36 35 34 32 32 32 31
34 34 46 46 47 45 47 45 43 46 43 44 43 41 41 40 41 39 38 37 37 36 37 37 36 37 34 32 34 35 37 38 39 39 38 36 33 32 32 33 32 29 29 27
40 47 46 49 44 45 44 42 42 44 44 45 42 43 41 40 40 40 40 39 40 39 37 37 39 39 39 39 40 39 37 36 36 34 33 33 33 33 31 30 28 28 27 25
42 47 43 44 45 43 42 43 43 43 44 45 43 41 41 40 40 40 40 40 39 37 36 36 37 38 39 40 41 38 36 33 33 33 32 30 31 29 28 28 29 27 25 26
40 50 47 43 42 44 42 41 42 43 40 44 43 41 41 40 42 41 41 40 38 37 37 37 39 39 40 41 40 36 32 32 31 30 29 29 28 28 37 37 38 37 36 33
47 48 46 44 43 43 42 42 43 42 41 40 42 43 42 41 40 42 39 38 37 37 38 39 39 38 39 39 35 33 31 31 31 29 28 27 26 25 24 29 36 37 38 38
52 49 42 43 41 42 41 42 43 41 42 41 41 41 40 38 38 36 36 37 38 38 38 38 37 36 35 35 33 31 31 35 28 27 26 25 25 25 25 24 23 24 31 34
46 46 46 43 40 39 40 39 38 38 38 38 40 40 39 36 35 36 37 38 38 37 37 36 34 31 34 33 31 29 29 27 26 25 26 28 26 26 25 24 23 22 23 28
42 42 41 39 37 37 37 37 36 37 37 37 37 36 36 37 36 37 37 37 35 33 34 32 31 31 32 30 28 28 29 34 30 26 26 25 25 25 24 23 22 22 22 23
43 38 36 33 36 36 38 40 41 39 38 37 36 36 36 36 36 35 34 35 34 32 30 31 29 30 30 29 27 26 26 28 32 25 25 25 24 23 23 23 22 21 21 25
43 45 43 40 38 38 40 41 41 40 38 37 36 36 34 33 32 32 31 32 30 29 29 29 29 29 29 29 27 25 25 25 25 24 24 24 24 23 22 22 22 21 21 24
45 45 44 43 43 42 40 40 39 39 37 37 36 34 33 32 31 30 31 30 28 27 27 29 34 29 28 30 27 25 25 25 24 23 24 26 22 22 22 21 21 20 20 22
43 45 45 43 43 41 39 39 39 38 38 37 34 33 31 31 32 31 30 28 28 29 29 29 26 26 27 30 30 24 23 23 22 22 22 20 21 20 20 23 22 21 20 22
40 42 42 42 41 41 39 38 38 37 36 36 34 32 31 31 31 30 28 27 27 31 29 30 25 25 26 27 24 23 22 21 21 19 20 19 19 19 18 19 19 20 20 21
40 40 40 39 39 38 39 40 39 37 35 34 34 33 31 29 28 26 27 28 28 34 27 25 25 29 28 29 22 22 21 21 20 19 18 17 18 16 13 13 13 17 17 15
38 38 38 38 38 37 38 37 36 35 33 32 32 31 31 31 30 28 24 26 28 31 25 25 32 34 32 21 22 21 21 20 19 18 14 12 12 9 10 11 13 14 13 14
36 36 36 35 35 34 32 33 34 34 33 33 32 33 31 29 27 28 30 32 33 31 26 29 31 33 28 21 20 19 19 18 13 10 13 21 9 9 10 11 12 13 13 14
29 28 27 29 29 29 28 29 30 31 31 30 30 30 31 30 29 28 29 30 33 29 26 33 33 30 21 20 19 18 15 11 7 9 11 9 8 7 9 11 11 12 12 12
30 30 30 31 29 29 30 32 31 31 31 29 28 28 28 29 30 28 28 29 28 29 24 23 23 22 20 19 18 18 16 13 14 13 14 10 9 9 10 11 12 12 13 12
26 30 26 28 28 30 31 31 30 30 31 30 27 28 29 28 28 28 29 26 25 23 22 21 22 22 20 19 18 17 13 12 17 13 10 8 8 7 10 11 11 12 13 14

GFSNGP_sfc_temp_054.txt.gz
Temp
33 36 35 35 33 33 29 34 24 31 33 40 46 49 50 52 48 49 49 51 51 50 49 46 43 41 42 42 43 44 45 45 45 47 49 49 49 48 48 47 46 45 43 42
27 35 35 31 35 35 35 36 35 36 36 48 52 51 49 44 45 46 47 47 49 48 45 44 39 40 42 43 45 45 45 45 47 48 46 46 46 44 43 42 41 40 37 37
24 34 33 26 34 36 36 37 40 34 42 50 48 48 43 41 43 43 42 46 45 43 43 43 40 42 41 42 43 43 44 44 44 44 42 42 42 41 39 38 38 37 39 40
25 29 23 37 43 43 39 41 44 46 48 49 49 43 42 42 41 41 41 42 42 42 42 43 44 42 41 41 39 39 39 40 41 40 39 39 38 36 35 35 36 37 37 37
29 25 32 40 42 41 38 40 46 46 48 49 48 42 39 41 43 41 42 41 42 43 43 43 42 43 41 39 38 37 37 38 38 38 36 36 35 35 37 38 37 37 39 38
31 22 23 38 43 45 44 34 46 48 47 43 43 40 41 40 41 40 42 42 42 42 42 41 41 41 39 38 37 35 36 35 35 34 33 33 35 35 34 33 34 37 36 35
30 29 30 42 44 45 31 36 45 45 44 42 40 42 41 40 39 41 40 40 41 40 38 39 41 41 36 36 33 33 35 33 33 35 35 34 33 32 33 34 34 34 33 31
31 28 23 45 42 39 44 45 44 43 45 41 42 41 40 40 39 39 38 37 37 35 35 38 39 37 33 32 33 34 35 35 35 35 36 35 33 33 34 33 30 29 29 28
34 33 44 44 45 50 46 43 42 41 42 42 41 40 40 39 39 38 37 36 37 36 36 35 37 36 33 33 35 34 34 33 34 36 38 37 34 31 30 30 29 28 28 26
38 44 43 46 46 44 42 41 41 41 42 43 42 41 40 39 39 38 38 38 38 37 35 34 36 37 34 35 37 38 37 36 35 32 32 32 32 32 30 28 27 27 27 24
38 46 46 43 44 42 41 41 43 42 42 42 44 41 40 39 39 39 39 40 39 37 36 36 37 37 39 39 39 38 35 31 31 32 30 29 29 28 27 27 29 27 25 26
37 48 49 48 43 43 41 40 41 41 41 45 44 41 42 39 41 40 39 39 37 37 36 37 38 38 39 39 38 34 30 30 30 29 28 27 26 26 37 37 38 37 36 32
44 48 45 43 42 42 42 40 41 41 41 40 43 43 43 41 41 42 39 38 37 36 37 38 38 38 37 35 34 32 30 30 30 28 26 25 24 24 24 28 36 36 36 36
50 48 43 44 43 42 41 41 42 40 41 42 42 43 40 37 40 37 36 38 38 38 37 37 36 34 33 34 32 30 30 34 26 24 24 23 24 24 24 24 22 23 29 32
43 43 42 40 39 38 38 39 37 36 37 37 40 38 38 36 34 36 37 38 38 37 36 36 33 30 32 32 30 28 27 25 25 25 25 26 25 25 24 23 22 20 22 26
45 43 39 38 37 36 36 36 36 35 35 36 36 37 37 35 34 36 37 38 35 34 35 33 32 30 30 30 28 27 27 32 28 25 25 24 24 23 23 22 20 20 20 21
39 40 39 36 36 35 35 37 38 37 36 35 35 36 36 35 35 35 36 37 35 33 33 33 29 29 29 29 27 26 26 27 31 25 24 23 23 22 22 21 20 20 20 23
39 40 43 44 37 38 38 40 40 39 37 37 36 35 33 33 33 32 32 33 32 31 31 29 29 28 28 27 27 25 25 24 24 23 23 23 22 22 21 21 20 19 19 22
40 41 44 44 43 42 41 40 40 38 37 36 34 32 34 34 33 32 33 32 30 28 27 29 34 29 27 29 27 24 24 24 23 22 23 25 21 21 20 20 19 19 19 21
39 42 44 43 43 42 40 39 38 36 36 35 35 33 31 32 32 32 32 31 31 29 29 30 28 27 27 30 30 23 23 22 21 21 21 19 19 19 19 21 21 20 19 20
40 41 41 41 40 39 39 37 36 35 35 35 33 32 31 31 32 31 29 28 26 31 28 31 26 25 26 28 24 22 21 21 20 18 19 18 18 18 17 17 18 19 19 19
38 39 40 40 39 37 36 37 37 35 33 32 32 32 30 28 29 27 28 29 28 34 28 25 25 29 27 30 22 21 21 20 19 18 17 16 17 14 12 11 11 15 16 14
37 38 38 38 37 36 37 36 36 35 33 33 32 31 31 31 31 29 25 27 30 31 25 25 30 34 33 21 22 21 20 19 19 17 13 10 11 8 9 9 11 12 11 13
33 34 35 35 35 33 31 32 32 33 32 32 32 33 31 29 27 28 31 32 32 32 25 28 33 34 29 21 20 19 18 18 13 9 11 20 8 7 8 9 10 11 12 14
30 30 28 28 30 30 29 29 30 31 31 31 31 31 31 31 30 27 30 30 34 29 26 35 35 32 21 20 19 18 15 10 6 8 10 8 7 6 7 9 9 10 12 11
29 30 30 31 30 29 29 30 30 31 31 29 29 29 28 28 30 29 29 31 29 30 25 26 24 22 21 20 19 18 15 12 13 12 13 9 8 7 8 9 10 10 12 11
28 34 30 30 29 29 29 29 29 30 32 31 29 28 28 29 29 29 30 27 27 25 23 23 23 23 20 20 19 17 12 11 16 12 9 7 6 5 9 10 9 10 12 13

GFSNGP_sfc_temp_057.txt.gz
Temp
32 35 34 33 32 32 29 31 23 28 31 38 45 46 50 46 46 46 47 45 45 48 47 42 44 43 41 42 42 44 44 45 45 47 47 48 48 48 47 46 45 44 42 41
26 34 34 31 34 34 34 35 34 36 35 47 50 52 49 44 43 44 44 43 46 45 44 41 40 37 39 39 42 44 45 44 46 46 45 44 43 42 42 41 40 39 38 38
21 33 32 27 32 34 35 35 38 32 41 50 48 49 45 42 42 42 42 42 41 41 42 41 40 38 37 39 43 42 41 41 42 42 41 41 41 40 38 37 37 36 35 37
26 28 24 35 40 41 38 40 41 45 47 49 49 46 43 42 41 41 41 41 41 42 42 41 41 41 41 40 39 39 38 38 39 39 38 38 37 35 34 34 34 33 33 33
29 26 30 37 39 37 36 39 44 44 48 49 47 41 42 42 41 41 41 41 41 42 42 42 40 40 39 38 38 37 36 35 36 38 36 35 33 33 33 33 32 32 32 34
30 24 22 35 40 44 44 35 46 48 48 42 41 38 40 39 39 40 41 42 41 40 41 39 40 41 39 38 37 35 36 35 36 35 35 33 33 32 32 33 32 33 33 33
31 28 30 40 44 45 32 36 48 44 44 45 42 42 39 39 37 37 40 39 40 39 38 39 39 38 35 34 32 33 36 35 35 35 34 33 32 32 32 33 32 31 32 31
32 28 23 43 41 38 46 46 47 43 44 44 42 41 40 38 38 38 37 37 37 36 36 38 38 36 33 32 33 33 33 33 33 33 35 35 33 33 30 30 30 31 30 29
33 32 42 46 45 49 49 45 44 42 42 42 40 40 40 39 39 36 37 37 37 36 36 37 37 35 33 33 35 35 34 34 34 35 36 34 31 29 28 28 27 26 29 26
36 43 44 47 45 45 47 42 40 42 43 43 41 41 40 39 38 37 37 37 37 36 35 34 36 35 35 36 37 36 34 35 32 30 29 29 30 29 27 26 26 28 27 25
40 42 46 47 45 48 45 41 41 42 42 43 42 41 40 39 37 37 38 38 37 37 36 35 36 36 38 38 39 37 31 30 29 29 27 27 28 26 26 26 29 27 26 26
34 43 45 45 48 46 41 41 42 42 40 42 44 41 41 39 40 39 36 37 36 37 36 36 37 38 39 39 37 31 29 29 28 27 27 27 26 25 38 37 38 37 35 32
42 44 45 46 44 42 41 41 40 41 42 42 43 43 42 40 40 41 39 38 35 36 37 37 37 34 34 34 33 31 28 28 28 26 24 23 23 24 24 28 35 36 35 35
48 47 44 42 42 41 40 40 41 39 40 41 42 43 42 40 40 38 37 38 37 37 37 34 33 32 33 33 31 30 29 34 26 23 23 23 24 24 24 23 21 22 28 31
43 42 41 40 37 37 37 37 36 36 36 36 41 40 39 37 34 35 36 38 38 37 36 35 31 30 31 31 30 27 26 25 24 24 24 26 24 24 23 22 21 19 20 25
41 43 43 41 39 36 36 35 35 34 35 34 35 38 38 37 35 36 37 37 35 34 35 34 30 30 30 29 27 26 27 32 28 25 24 24 23 23 22 21 19 19 19 20
36 36 40 39 39 38 35 36 37 35 35 34 34 35 35 33 33 33 35 36 36 35 34 34 30 30 29 28 27 26 26 27 31 24 23 23 22 21 21 20 19 19 19 22
36 37 38 39 41 41 39 39 38 36 37 37 36 35 34 33 32 32 31 33 32 32 32 32 29 29 28 27 27 25 25 24 24 22 22 22 21 21 20 20 19 18 18 21
41 39 39 40 41 42 41 40 40 39 37 37 35 33 34 33 32 31 33 32 32 31 29 29 34 29 26 28 27 24 24 23 22 22 22 25 21 20 19 19 18 18 17 20
39 41 40 40 42 40 40 40 38 36 37 35 34 32 31 31 31 32 33 32 33 33 29 30 27 26 26 30 31 23 22 21 21 20 20 19 19 18 18 21 20 19 18 19
37 39 40 40 40 39 39 38 37 34 34 34 32 31 30 31 33 33 30 29 27 32 29 31 26 25 26 28 25 22 21 20 20 18 19 18 18 17 17 17 17 18 18 18
34 36 37 39 38 36 37 37 36 35 33 32 32 31 30 29 29 28 29 30 28 35 29 26 26 29 26 31 21 21 20 20 19 17 16 16 16 15 12 11 11 15 15 13
33 35 37 37 37 36 37 36 34 33 31 31 31 30 30 30 30 28 27 27 30 32 26 25 29 34 35 21 21 21 20 19 18 17 13 10 11 8 8 8 10 12 10 11
32 32 32 33 34 34 33 32 32 32 32 32 31 32 31 28 27 29 31 33 33 32 25 27 32 35 33 21 20 19 19 18 13 10 11 20 8 7 7 9 10 10 11 13
29 30 28 29 30 31 28 28 30 30 30 30 30 31 31 32 31 28 29 31 34 30 26 34 36 35 20 19 19 18 16 11 6 8 10 8 7 6 8 9 9 10 10 11
28 29 29 30 29 30 30 29 28 29 31 29 30 30 30 29 30 30 29 31 31 30 27 28 27 24 20 19 19 19 17 13 14 13 13 10 8 7 8 9 9 10 11 10
29 32 27 29 31 30 29 29 28 28 32 31 29 29 30 29 30 29 31 29 28 27 25 25 26 25 21 20 19 18 15 13 17 13 11 7 6 6 9 10 10 10 10 11

GFSNGP_sfc_temp_060.txt.gz
Temp
33 34 33 32 32 31 27 28 23 27 28 37 41 44 46 50 45 42 43 40 41 40 37 37 39 41 42 39 40 42 41 42 44 46 46 46 45 45 45 44 44 44 42 42
26 34 33 31 33 33 32 33 31 33 33 47 50 50 49 45 42 40 41 42 42 40 41 39 39 36 37 37 39 40 40 42 43 43 42 42 42 41 40 40 41 41 40 39
21 31 31 26 32 33 33 33 36 29 40 49 47 48 46 42 41 40 41 41 41 39 40 40 40 40 38 39 42 41 41 41 41 41 40 39 39 38 38 37 37 36 37 38
27 28 22 35 39 40 37 38 39 41 46 48 49 46 43 42 39 38 40 40 40 41 40 40 40 40 40 40 39 39 39 39 40 39 37 37 37 36 35 35 35 35 34 35
28 25 30 36 37 36 36 36 42 42 46 49 47 43 39 41 41 37 38 41 41 40 40 40 39 40 39 38 38 37 36 36 37 37 36 35 33 33 34 33 33 33 32 33
29 24 22 34 39 42 42 36 47 46 46 45 43 38 40 39 39 36 38 41 40 40 40 39 39 40 37 35 35 34 35 35 36 35 34 33 33 32 32 33 32 32 32 33
29 28 29 38 43 43 33 35 47 46 43 45 41 42 39 39 36 37 40 39 39 39 37 38 38 37 34 34 33 34 36 35 35 35 34 33 33 32 32 32 31 30 30 31
31 27 22 41 41 39 46 46 45 42 43 44 40 40 40 39 38 36 37 38 38 37 36 37 38 36 33 32 33 34 35 34 33 33 34 34 32 32 31 31 30 29 28 28
32 32 40 46 45 49 48 47 43 40 41 43 41 40 40 37 38 34 36 37 37 36 36 36 36 35 33 33 36 35 34 34 34 34 35 33 30 29 27 28 27 26 28 25
35 42 41 46 47 46 44 43 41 40 42 41 41 41 40 38 36 36 37 36 37 36 35 34 35 36 35 36 36 35 33 33 30 28 28 28 29 28 26 26 25 27 27 25
37 40 43 44 47 48 46 44 41 41 41 42 41 41 40 38 37 37 38 38 38 36 35 34 36 36 37 38 39 34 29 29 28 28 26 26 27 25 25 25 28 26 25 26
33 41 41 42 47 47 44 42 41 40 40 41 43 41 41 39 39 37 36 34 37 36 36 36 37 37 38 38 33 30 28 28 27 26 25 26 25 24 38 37 38 37 35 32
43 41 43 44 43 42 41 41 40 40 41 40 44 43 42 39 39 39 37 34 37 36 37 37 37 36 37 34 32 30 27 27 27 25 23 22 22 24 23 28 35 35 35 35
43 45 43 44 40 41 40 39 41 38 39 40 41 42 41 40 40 38 36 37 34 35 37 36 34 31 32 32 31 29 28 33 25 23 23 22 23 23 23 22 21 21 28 31
39 41 41 40 38 37 37 37 36 36 36 36 38 39 40 38 36 36 38 37 36 35 33 33 31 30 31 31 30 28 27 25 24 23 24 25 23 23 22 21 20 18 19 24
39 40 41 40 41 40 38 38 35 35 34 34 35 36 39 38 36 35 36 37 35 33 33 32 31 30 30 29 28 27 27 31 28 24 24 23 22 22 21 20 18 18 18 19
35 36 38 37 39 40 39 40 39 36 34 34 34 34 35 35 34 33 34 36 36 35 35 34 31 30 30 29 28 27 26 27 30 24 22 22 21 21 20 20 19 18 18 21
38 37 36 36 36 37 41 40 40 39 37 37 36 36 34 33 32 32 32 33 32 32 33 33 31 30 30 29 28 26 25 24 23 22 22 22 21 20 19 19 18 17 17 20
39 39 40 40 38 38 39 41 40 39 38 37 36 34 35 34 32 31 31 31 30 30 31 31 34 31 28 29 27 24 24 23 22 21 21 24 20 20 19 18 18 17 17 19
37 39 40 40 39 38 38 39 39 37 36 37 35 33 32 32 31 30 30 29 31 33 31 32 30 28 28 31 31 23 22 21 21 20 20 18 18 18 18 21 20 18 17 19
35 36 37 39 39 39 39 38 37 35 35 35 34 32 31 30 30 29 28 28 29 33 32 33 29 28 27 29 25 22 21 20 20 18 19 18 18 17 17 17 17 18 18 18
33 33 34 36 37 36 37 37 36 34 33 32 32 32 30 29 29 29 31 31 29 35 31 28 28 30 28 32 21 21 20 20 19 17 16 16 16 15 12 11 11 14 15 13
32 32 32 33 34 34 36 36 35 34 32 32 31 30 30 30 31 29 28 29 31 33 28 27 31 34 35 20 21 21 20 19 18 17 13 10 11 9 9 9 10 12 10 11
31 31 31 32 34 33 33 32 32 33 32 31 30 30 29 27 27 29 31 33 34 33 26 29 33 36 34 21 20 19 18 18 13 10 11 20 8 8 8 10 10 11 10 12
29 29 30 30 30 30 28 29 30 30 30 30 30 31 30 30 30 28 29 31 35 30 27 35 36 36 21 19 19 18 16 12 9 11 11 8 8 8 9 10 9 10 9 10
28 29 28 29 29 29 29 29 27 28 30 29 29 29 29 29 30 29 29 31 31 30 27 30 30 27 22 20 20 19 17 15 17 16 14 11 10 10 10 10 10 10 11 10
26 31 29 28 29 29 29 29 28 28 30 30 30 29 30 30 30 29 30 30 29 28 28 28 29 27 23 22 21 20 18 16 19 15 12 10 10 9 10 10 9 10 10 11

GFSNGP_sfc_temp_063.txt.gz
Temp
34 35 35 33 33 32 27 29 27 31 30 38 42 43 46 48 46 45 43 42 43 42 41 41 41 40 41 42 42 44 44 44 43 45 45 44 43 43 43 43 43 43 42 41
28 35 34 31 34 33 34 34 32 33 34 46 49 51 49 45 44 43 42 42 43 42 41 40 40 39 40 40 41 43 42 42 43 42 42 40 40 40 40 40 41 41 40 40
23 32 32 27 32 33 34 35 37 31 39 48 47 48 46 44 43 42 41 42 42 41 40 39 39 40 39 40 42 41 41 41 41 40 39 38 39 38 37 36 37 37 38 38
26 29 23 36 40 40 37 38 38 40 45 48 49 47 43 43 42 40 40 40 41 41 40 40 40 40 41 41 40 39 38 38 39 38 37 37 36 34 33 34 34 33 32 33
27 25 31 36 37 36 36 37 42 42 46 48 49 45 41 42 42 40 39 40 41 41 41 41 40 41 40 38 38 37 36 36 37 37 36 35 33 33 34 33 32 32 33 34
26 22 23 35 42 43 42 35 48 46 46 46 45 40 43 40 40 39 40 41 40 40 40 39 39 39 37 35 35 34 35 35 36 35 35 33 33 33 32 32 32 33 32 33
27 23 30 40 44 43 33 37 48 47 46 46 42 43 40 39 38 39 39 39 40 39 37 38 39 37 34 34 33 34 36 35 35 35 34 34 33 33 32 31 31 30 30 32
31 24 22 41 42 39 46 45 47 44 44 44 43 40 40 39 37 37 37 38 38 37 36 37 37 35 34 32 34 35 35 34 33 34 35 34 33 33 33 33 32 31 32 32
33 33 42 46 44 49 48 45 43 43 42 44 41 40 39 36 36 36 37 37 38 38 36 37 36 36 34 34 36 36 35 34 34 35 35 34 34 33 32 32 32 31 31 30
35 42 40 46 47 47 48 46 42 42 43 42 42 41 40 38 36 36 37 37 37 37 35 34 36 36 36 36 37 36 35 33 33 32 31 32 33 32 31 31 30 31 31 29
35 39 42 43 45 47 48 46 44 43 43 42 42 40 40 37 37 37 37 38 38 37 35 34 36 36 37 38 38 34 33 32 32 31 30 30 31 32 32 31 33 31 30 30
33 41 41 42 45 48 47 45 45 42 40 41 43 41 41 39 38 38 38 38 37 37 36 36 36 36 38 39 35 33 31 31 31 30 31 31 31 31 38 38 38 37 35 33
41 44 42 43 43 42 43 42 41 41 41 40 42 43 42 39 38 39 37 38 37 37 37 37 37 37 37 35 34 33 31 30 31 29 29 28 28 29 28 31 35 35 35 34
39 41 40 42 41 41 40 41 42 39 40 40 40 42 41 39 39 38 36 37 38 38 37 37 36 34 34 34 33 32 31 33 29 28 28 27 28 28 28 27 26 26 29 32
37 38 38 39 40 41 39 38 37 38 37 37 38 38 40 38 38 38 39 38 37 38 37 36 33 32 33 33 33 31 30 29 28 28 28 28 27 26 26 26 24 23 24 27
36 38 40 39 40 41 40 39 38 38 36 35 36 36 38 40 38 36 37 37 35 34 35 34 33 32 32 32 31 30 30 31 29 28 28 26 26 25 25 24 23 23 23 23
34 35 37 35 37 39 40 40 40 40 39 37 36 35 38 37 35 34 35 37 37 37 36 34 33 32 32 32 31 30 29 31 30 27 26 26 25 25 24 23 23 22 22 23
37 38 38 37 36 35 36 40 42 41 39 39 38 37 36 35 34 34 33 34 33 33 35 35 33 32 32 31 30 29 28 27 26 25 25 24 24 24 23 23 22 21 22 22
38 38 39 39 40 40 38 37 38 41 39 38 36 35 36 36 35 33 32 32 31 30 31 34 35 33 31 31 30 29 27 26 24 24 24 27 24 23 22 22 22 21 21 21
35 36 38 38 40 38 36 37 37 37 38 37 36 34 33 33 32 31 32 31 33 33 30 32 33 31 30 33 33 27 26 24 24 23 23 22 22 22 21 23 23 21 21 21
34 34 35 36 37 38 38 38 35 36 35 36 35 33 32 32 32 31 30 29 30 31 30 32 31 30 31 32 29 25 24 23 23 22 22 21 21 21 20 20 20 20 20 20
32 32 33 33 34 35 36 37 37 35 34 33 33 32 31 29 30 29 30 31 29 33 31 31 31 32 31 33 25 24 23 23 22 21 20 20 20 20 19 18 17 18 18 17
31 31 32 31 31 32 33 34 34 34 32 32 31 31 31 31 31 28 27 28 30 32 31 30 32 35 36 24 24 23 23 22 21 20 19 18 18 17 17 17 16 16 16 16
30 31 30 31 33 33 30 31 32 33 33 32 32 32 31 28 28 31 33 34 35 34 29 31 35 36 34 24 23 23 22 21 19 17 18 22 16 16 15 15 15 16 15 16
28 28 29 29 29 29 29 28 30 30 30 30 30 30 31 31 30 29 30 31 35 32 29 36 37 37 24 24 23 22 21 19 16 16 17 17 17 15 15 14 14 14 14 14
27 28 29 28 28 28 29 30 28 29 30 30 30 30 30 29 30 30 30 32 32 31 28 32 33 30 25 24 23 23 21 20 22 22 19 18 17 15 15 15 14 14 15 14
24 29 25 26 26 27 28 29 28 28 30 29 29 30 30 29 29 29 31 30 30 29 29 30 31 28 25 25 24 23 22 21 22 20 20 18 17 16 16 14 13 13 13 13

GFSNGP_sfc_temp_066.txt.gz
Temp
39 40 40 38 37 37 33 38 35 41 42 50 52 54 55 57 54 52 50 50 50 48 49 50 49 50 50 50 50 51 50 49 48 48 48 46 45 44 45 45 44 44 43 43
33 39 39 35 39 39 39 41 40 41 42 55 57 57 54 53 49 48 46 47 48 46 46 49 48 47 48 48 49 50 48 47 47 45 44 42 42 41 41 41 41 41 41 41
31 37 37 33 38 39 40 42 43 37 47 54 52 53 51 50 47 46 46 48 46 45 44 46 47 47 47 47 48 47 44 45 44 44 43 41 40 40 36 36 36 36 37 39
35 36 28 41 46 45 42 44 46 47 49 51 52 53 48 48 48 45 44 46 47 45 44 45 47 47 47 47 46 44 43 43 42 41 39 38 37 35 34 34 33 33 32 32
33 34 38 40 42 42 41 42 50 48 50 51 52 48 47 47 46 44 45 47 46 46 44 44 45 45 44 43 43 42 40 39 40 39 37 36 35 34 35 34 33 33 33 33
33 28 29 41 46 50 49 36 51 50 50 49 49 46 50 45 43 43 46 47 44 44 44 44 43 43 42 40 38 36 37 36 37 37 36 34 35 34 33 34 33 35 33 36
36 33 39 47 49 50 36 40 52 52 51 50 48 49 46 43 42 45 45 43 43 43 42 42 41 40 37 36 34 36 37 37 36 36 35 34 33 33 33 34 34 35 37 39
36 32 30 50 47 43 50 53 53 52 53 51 49 43 42 42 42 43 43 43 41 40 39 41 41 38 35 34 35 35 36 35 35 35 36 36 35 37 38 38 38 38 38 38
42 43 49 52 52 56 55 51 51 51 52 51 46 43 42 41 42 41 42 41 41 41 40 39 39 38 35 35 37 37 37 36 37 40 42 43 42 40 40 40 40 39 38 38
43 49 50 53 56 54 54 52 51 51 51 50 48 47 43 41 40 40 41 41 40 39 38 36 38 38 37 37 40 41 40 41 42 41 41 41 41 42 41 40 40 39 37 36
44 49 52 52 53 54 52 52 50 51 51 51 50 46 44 40 41 41 41 41 40 39 38 36 37 38 39 41 44 42 42 41 41 40 40 40 40 42 41 40 40 38 37 37
44 52 51 53 54 51 49 51 50 50 50 50 50 48 45 40 42 42 42 42 41 41 38 38 40 41 42 42 44 42 40 39 39 39 40 40 40 39 39 38 37 36 35 37
50 50 50 52 52 49 48 49 49 50 50 49 50 50 48 42 40 43 43 42 42 41 42 41 41 41 42 43 43 41 40 39 38 39 39 39 39 38 35 35 35 35 35 35
48 48 48 49 49 49 48 48 47 48 49 49 50 49 48 44 42 41 39 43 43 43 42 41 41 41 43 42 41 39 39 37 38 38 39 38 38 37 37 35 34 34 32 33
45 45 45 47 47 47 47 44 43 45 47 45 47 47 47 44 41 39 40 42 42 43 42 42 41 40 41 41 39 39 38 37 37 37 37 36 36 35 35 34 33 32 33 32
42 42 42 42 43 43 45 44 42 43 45 45 44 45 46 47 43 40 39 39 38 39 41 41 40 41 40 39 39 38 38 36 36 37 36 35 34 33 33 32 32 31 31 30
37 39 39 39 40 42 43 43 44 44 42 41 41 43 43 44 41 37 37 38 38 38 40 42 41 40 39 39 38 39 38 37 36 36 35 34 34 33 32 32 31 30 30 30
38 40 41 40 39 40 41 43 44 44 43 44 43 40 40 38 37 36 36 36 34 34 35 38 40 39 38 38 38 38 37 37 35 35 34 32 33 33 32 30 30 29 30 29
39 37 39 39 40 39 40 41 44 45 45 46 43 40 39 39 38 37 35 34 33 33 33 34 36 37 37 37 37 37 36 34 33 33 33 32 32 31 30 30 29 29 29 28
36 36 37 37 39 38 37 40 42 43 44 43 42 39 37 38 37 35 34 33 35 36 32 32 33 36 37 37 36 36 35 34 33 33 32 32 32 31 30 28 29 28 28 27
34 34 34 34 35 36 37 39 40 40 40 40 39 37 36 36 34 34 31 31 32 33 32 32 30 35 36 37 36 35 33 33 32 32 31 32 31 30 29 28 27 27 26 26
33 33 33 33 33 34 35 35 36 36 36 35 35 35 34 32 32 32 33 34 32 35 32 31 30 32 35 37 33 33 32 31 32 31 31 30 29 28 28 28 27 27 26 25
32 32 33 32 32 32 33 33 32 32 32 32 32 31 32 32 32 30 28 31 32 33 32 31 31 32 36 34 31 31 30 30 30 29 30 29 28 27 27 27 26 25 25 25
32 32 33 33 33 32 30 30 31 31 32 31 31 31 31 29 29 30 32 33 33 33 30 30 32 35 37 30 30 30 30 30 30 29 29 28 27 26 25 25 24 25 24 23
31 31 32 31 32 30 30 30 33 33 32 30 30 30 31 31 31 30 30 31 33 33 29 32 34 37 35 30 30 30 30 29 29 29 28 26 26 25 25 24 23 23 23 23
30 31 31 30 31 30 30 32 32 33 33 32 31 30 31 31 32 34 34 34 35 34 32 35 36 36 30 30 30 30 29 29 29 29 27 26 25 24 24 23 22 22 22 22
29 30 30 30 30 30 30 31 30 30 32 33 32 33 32 30 29 29 31 32 33 33 32 35 36 35 31 30 29 30 29 29 29 28 28 26 25 24 23 23 22 22 22 21

GFSNGP_sfc_temp_069.txt.gz
Temp
43 44 43 40 39 41 33 40 36 45 47 51 55 56 58 59 58 57 55 54 54 53 54 54 53 53 53 52 53 54 52 51 49 49 48 47 46 45 45 45 46 45 44 43
35 42 42 37 42 43 41 43 44 46 45 57 60 60 58 58 56 53 52 51 52 50 51 52 52 51 51 51 51 52 50 49 48 48 46 44 44 44 44 43 43 43 41 41
34 40 40 35 41 42 43 46 46 39 49 56 54 55 56 55 52 51 50 51 51 50 50 50 50 51 50 50 51 49 48 47 47 46 43 42 42 41 39 38 37 36 36 35
37 39 29 42 49 48 45 47 49 50 52 54 55 57 56 54 53 51 49 49 50 50 48 49 50 50 50 50 48 46 46 45 45 43 40 38 37 35 35 35 34 34 33 33
35 36 42 42 44 44 43 43 51 49 53 55 55 51 50 53 52 50 48 50 51 51 49 47 48 48 46 46 45 44 42 40 41 40 37 36 35 34 35 34 33 33 34 34
36 30 30 43 48 53 52 38 52 53 52 51 51 46 50 50 48 45 49 50 48 47 46 46 45 46 43 42 42 39 38 38 38 37 36 35 35 34 33 34 34 35 35 39
37 35 41 50 51 53 36 39 52 54 54 52 51 51 50 47 44 49 49 47 46 45 44 44 43 43 39 38 35 36 38 37 37 36 35 35 34 34 35 35 36 37 39 41
38 34 31 52 49 44 49 55 55 54 55 54 51 47 46 44 44 47 46 44 44 42 41 43 42 39 35 34 36 36 37 36 35 37 38 38 36 38 39 39 39 40 39 38
44 43 52 56 55 57 57 54 54 53 55 53 51 45 45 43 45 46 46 45 43 41 42 40 40 38 35 36 37 37 37 38 39 41 43 44 43 42 42 43 42 40 38 38
45 52 53 56 58 57 57 54 53 54 54 53 51 49 46 45 44 44 45 44 45 44 39 37 39 39 38 38 41 42 42 42 43 43 43 43 42 44 42 42 40 38 37 36
48 53 54 56 58 56 54 54 51 52 54 54 54 51 47 45 44 45 44 44 43 41 39 38 39 38 41 42 44 44 44 43 42 42 42 41 41 42 41 39 38 38 36 36
46 54 54 54 57 55 53 52 52 51 53 53 53 53 50 45 45 46 45 44 41 42 39 38 39 40 42 45 46 44 42 41 40 40 41 40 38 37 38 38 37 37 37 36
53 54 54 54 55 53 51 51 52 51 53 53 54 54 51 47 45 46 46 44 43 42 41 41 41 42 44 45 45 43 42 40 39 41 40 40 40 38 34 34 35 35 35 35
54 52 50 54 52 52 52 52 51 51 51 53 54 54 52 48 45 44 43 44 46 45 44 44 44 43 45 45 44 42 41 40 39 40 39 39 39 37 37 36 34 34 32 33
50 49 49 50 50 51 51 50 47 48 50 50 51 51 51 48 45 44 43 43 45 45 44 44 43 43 45 44 41 40 39 38 38 37 38 38 37 36 36 34 34 33 33 32
48 47 46 45 46 47 47 47 47 48 47 48 48 48 50 50 47 45 42 42 40 41 43 43 43 43 43 42 40 39 39 39 39 37 36 36 35 34 34 33 33 32 31 31
40 40 41 41 43 45 45 46 47 47 47 45 45 46 46 47 46 42 40 41 41 41 42 43 42 42 41 41 40 38 38 36 38 37 36 36 35 34 33 33 32 31 31 32
40 40 42 43 42 42 43 45 46 46 46 48 47 44 42 41 41 39 39 39 38 36 38 39 42 40 40 40 39 39 38 37 36 35 35 33 33 34 33 32 31 30 31 31
41 39 39 39 40 40 40 40 41 43 45 47 47 44 43 43 42 40 38 36 36 35 35 35 38 38 38 39 39 38 37 36 35 35 34 34 33 32 31 31 31 30 30 30
38 37 36 37 38 37 37 38 40 41 43 46 46 45 44 43 41 38 37 35 37 39 35 34 34 34 37 38 39 37 36 35 34 34 33 32 32 31 31 31 30 30 29 29
35 35 35 34 34 36 36 35 36 39 41 41 42 42 41 41 39 38 34 33 34 35 33 34 33 32 34 36 37 35 35 35 34 33 32 32 31 31 29 29 29 29 28 28
33 34 34 34 34 34 35 34 34 34 36 37 37 38 37 35 35 34 36 35 33 36 34 33 33 33 31 34 35 34 33 34 33 33 31 32 30 29 27 27 26 27 27 26
34 34 34 33 33 33 34 32 32 32 31 32 32 32 33 33 33 31 29 32 32 34 33 32 33 34 34 31 32 32 32 32 32 32 31 30 29 28 27 26 26 26 25 25
34 34 34 35 36 34 32 32 31 32 31 30 31 31 31 30 30 31 32 33 34 34 33 33 34 35 34 30 30 32 32 31 31 30 29 32 27 26 25 25 24 25 24 24
32 33 33 32 33 33 32 32 33 33 34 32 31 30 30 31 30 30 31 31 34 33 32 34 35 35 32 30 30 31 31 30 29 29 29 27 26 25 25 24 23 24 23 23
32 32 32 32 31 31 32 32 31 33 34 33 34 33 30 29 30 31 31 30 31 33 30 32 33 33 31 29 29 31 31 30 31 30 29 27 26 25 25 24 23 23 23 22
31 32 32 32 32 31 31 31 31 31 32 32 32 35 34 33 31 30 30 32 33 32 29 30 31 32 32 30 31 31 31 30 30 29 29 27 26 25 24 23 23 23 22 21

GFSNGP_sfc_temp_072.txt.gz
Temp
39 41 41 37 36 37 28 33 26 37 41 45 49 48 50 52 53 52 51 50 50 49 47 47 46 46 45 45 46 46 45 43 42 42 42 41 40 41 41 40 41 42 42 42
29 41 40 34 40 39 38 38 39 41 40 51 53 53 52 50 51 50 49 49 48 48 47 45 44 44 46 44 44 45 43 42 43 42 41 41 42 41 41 40 40 40 39 40
26 36 36 29 37 39 39 41 41 34 42 49 49 52 50 49 49 48 48 50 49 46 46 45 44 45 43 43 44 43 42 42 42 41 40 39 39 38 37 35 35 35 35 36
27 31 22 37 45 46 42 45 45 46 47 50 49 48 48 48 47 46 47 49 49 48 44 44 46 45 44 43 42 41 40 40 42 39 37 37 36 35 34 34 33 33 33 33
26 29 36 37 41 41 39 39 47 45 47 49 49 44 44 49 47 46 47 47 48 44 43 43 46 46 42 42 40 39 38 39 39 38 36 36 34 34 34 33 32 33 34 34
32 25 26 39 45 49 50 36 47 48 48 47 46 38 40 44 44 45 48 46 42 42 45 44 44 44 42 41 39 37 38 37 38 37 36 34 34 33 33 34 33 36 33 32
31 28 35 45 47 49 34 37 50 48 48 48 44 44 44 43 44 46 46 42 42 41 43 42 43 42 38 37 35 36 38 37 36 36 35 35 34 33 32 30 28 27 31 32
36 29 25 47 45 39 46 50 51 50 49 48 45 45 44 44 44 45 41 41 41 40 39 41 41 38 35 34 36 36 36 36 35 35 36 35 32 30 31 31 30 30 30 29
37 36 47 49 50 51 51 49 47 48 48 48 45 44 44 42 44 44 41 40 39 39 40 40 39 38 35 35 37 37 36 36 37 36 35 34 32 32 32 32 31 30 29 27
39 45 46 49 50 51 50 48 48 49 48 48 46 45 44 44 43 43 41 39 39 38 37 37 38 38 37 37 38 39 38 38 35 34 34 34 35 35 33 32 31 30 29 28
41 45 46 48 50 49 48 48 47 49 49 49 50 46 45 43 43 43 40 40 39 38 38 37 38 38 38 39 41 40 37 35 34 34 33 31 31 31 30 29 32 29 27 28
37 45 45 45 48 50 47 46 46 45 47 49 50 48 45 42 44 44 40 39 38 41 39 38 38 38 40 42 43 38 34 32 31 31 32 31 30 29 38 37 38 38 37 33
44 47 47 48 49 48 45 45 45 45 46 46 49 49 46 42 42 44 44 40 39 40 39 39 39 39 42 43 40 37 33 31 32 34 32 32 32 29 26 30 36 36 35 35
48 47 44 46 43 45 45 46 46 45 45 46 48 49 47 42 42 41 40 42 42 40 40 39 40 40 43 40 38 34 32 38 31 32 32 32 31 30 28 26 25 25 33 32
46 45 43 43 43 44 44 44 41 42 43 44 46 46 46 42 39 39 43 43 44 42 39 39 40 40 40 38 35 32 31 30 30 30 30 31 30 29 29 28 27 26 25 30
44 43 41 42 41 41 41 41 40 41 42 42 43 44 45 45 41 40 41 42 41 40 41 41 39 39 38 36 33 31 31 35 33 30 30 29 28 28 27 27 26 25 25 26
36 35 37 39 41 42 39 40 40 40 41 42 42 42 44 45 44 41 40 41 42 42 43 42 40 38 37 36 33 31 31 32 36 30 29 28 28 27 27 27 26 26 25 29
39 39 40 40 39 39 38 41 42 42 41 41 42 42 40 41 41 39 39 39 38 38 40 41 40 39 38 37 34 33 32 31 30 29 29 29 28 28 27 27 26 25 25 28
40 38 38 38 39 38 38 39 40 40 41 41 40 39 38 39 40 39 38 36 36 35 37 38 39 38 36 37 37 35 33 31 31 30 30 32 29 28 27 27 26 25 25 27
36 37 37 36 37 36 35 37 37 38 40 41 41 42 41 38 38 37 36 34 36 38 38 37 37 35 35 36 39 35 34 32 31 30 29 28 27 27 26 29 26 26 25 26
34 35 35 34 34 35 35 35 34 34 36 38 38 38 37 38 35 33 30 32 34 36 35 36 35 35 35 36 37 34 33 32 31 30 30 28 28 27 25 25 26 26 26 26
33 33 33 34 34 34 34 33 33 33 33 33 34 34 34 34 32 29 31 31 30 38 35 34 34 35 35 36 32 32 33 32 32 31 29 28 28 26 23 21 21 23 23 21
33 33 33 33 32 32 33 32 31 31 31 31 31 31 31 32 32 31 30 33 32 36 33 33 34 35 35 33 31 29 29 31 31 31 29 27 26 24 22 21 21 22 20 20
32 31 31 32 33 33 30 30 31 32 31 31 31 31 30 30 30 31 32 33 35 34 33 32 34 36 36 31 29 28 27 30 30 28 28 31 25 23 22 20 21 21 20 23
29 27 27 25 28 28 28 29 31 31 32 31 31 31 30 31 30 30 30 31 33 33 32 35 35 36 33 30 29 28 27 30 28 28 27 27 26 23 22 21 21 20 18 18
27 27 27 28 27 27 27 28 28 29 30 29 31 32 31 30 29 29 29 31 30 32 30 31 33 33 31 29 28 28 27 27 29 30 27 26 25 23 23 22 21 21 19 17
22 29 22 26 27 27 26 27 26 26 27 27 30 32 31 31 30 31 31 29 30 31 29 30 31 33 31 29 28 27 27 26 29 28 27 26 25 25 24 23 21 21 19 17

GFSNGP_sfc_temp_075.txt.gz
Temp
36 39 38 35 35 34 27 33 27 36 38 43 46 46 47 48 48 48 48 49 48 45 44 44 44 43 44 44 44 44 42 41 39 39 39 39 38 38 38 38 39 40 40 40
26 38 38 32 37 36 37 38 36 38 38 48 52 50 49 47 48 47 47 48 47 46 45 43 42 43 44 43 43 43 41 40 40 40 42 40 40 39 39 38 38 39 40 40
23 35 34 27 34 36 36 38 38 33 41 46 48 50 48 47 47 47 47 47 46 45 44 43 43 43 41 41 42 40 39 40 39 40 39 38 38 37 36 35 35 35 37 38
25 29 20 36 41 43 40 41 41 43 45 49 49 48 47 48 47 46 46 46 46 46 45 45 43 42 42 41 40 39 38 39 40 38 37 36 36 35 34 34 33 33 33 34
25 24 32 35 39 39 37 37 44 43 46 47 46 44 42 46 45 45 45 46 46 47 43 41 42 45 42 38 37 37 36 38 38 37 36 36 34 34 34 33 33 33 32 30
30 22 24 35 41 45 45 35 44 46 46 45 44 37 41 42 42 44 45 45 43 41 41 41 42 44 41 38 38 37 36 37 38 37 36 34 34 33 33 34 32 30 27 29
27 24 32 40 44 47 34 35 45 47 46 45 42 42 42 42 41 44 43 43 41 40 39 42 42 41 38 37 35 36 37 37 36 36 35 35 33 33 31 25 26 25 29 29
34 31 24 45 44 40 44 48 50 48 46 45 44 42 42 42 43 43 41 40 39 38 39 41 41 39 36 34 36 36 36 35 35 35 36 35 32 29 29 28 27 27 27 27
35 34 44 46 46 48 49 47 46 47 46 47 44 43 43 42 43 42 41 38 38 37 39 39 39 38 35 35 37 36 36 35 36 37 33 32 29 29 28 29 28 27 28 26
38 41 43 47 47 48 48 46 46 47 48 48 46 44 43 43 43 42 40 37 37 36 34 35 38 38 37 37 37 37 37 37 33 32 31 30 31 31 30 28 28 28 28 27
38 42 42 46 46 47 47 47 45 45 46 47 47 44 42 42 42 43 40 38 37 35 35 37 38 37 37 38 39 39 38 35 32 31 30 29 30 28 27 28 30 28 28 28
36 44 44 41 45 46 45 44 44 43 44 49 49 47 44 41 42 42 41 39 37 36 36 37 38 38 38 40 41 37 35 31 30 30 28 28 27 27 38 37 39 38 37 32
43 45 45 46 45 45 44 43 43 42 43 43 46 47 46 41 41 44 42 40 38 38 38 38 38 38 40 41 41 37 33 31 31 31 28 27 26 26 25 31 37 36 36 36
46 47 43 43 42 43 44 43 44 42 43 44 45 47 45 42 41 40 39 40 41 40 39 39 39 38 41 42 39 34 32 37 29 29 29 29 28 28 27 26 25 26 33 33
43 43 43 43 43 43 41 42 39 40 41 41 43 44 44 42 40 39 39 42 41 40 39 39 38 38 41 40 36 33 31 30 29 29 29 31 29 28 28 27 26 25 24 31
40 40 40 40 39 39 39 39 37 37 38 39 40 41 42 42 41 40 40 42 40 38 39 39 39 40 39 37 33 31 30 35 32 28 29 29 29 28 27 26 25 25 25 25
37 34 35 36 37 39 40 40 38 38 37 38 38 40 41 42 43 40 40 42 42 42 41 40 40 41 38 37 34 32 30 31 35 29 28 28 28 28 27 26 26 25 25 28
39 39 39 37 38 38 39 40 39 40 41 42 42 39 38 40 40 40 39 40 39 39 41 42 42 40 39 38 36 33 33 32 32 29 28 28 28 27 26 26 26 25 24 27
39 37 37 37 36 35 36 37 38 39 40 40 38 36 36 37 37 39 39 37 37 36 39 39 40 39 38 38 37 35 34 32 32 30 30 32 31 28 27 26 25 25 25 26
34 35 36 36 36 35 35 36 36 35 37 38 38 38 38 40 39 36 35 36 37 37 38 37 38 38 38 36 38 35 34 33 32 32 30 30 29 29 27 30 27 27 26 27
35 35 35 34 34 35 35 34 33 33 34 35 34 35 34 36 37 36 33 31 34 34 34 37 37 38 36 36 37 34 35 33 33 31 31 32 30 29 28 27 28 28 27 26
33 32 33 33 33 33 34 33 32 32 32 32 32 32 32 33 33 32 33 32 30 38 32 33 36 37 36 37 35 34 34 33 33 32 31 31 30 29 28 26 26 26 25 23
33 33 33 32 30 31 33 32 31 31 30 30 30 30 30 31 31 30 30 33 30 33 30 31 35 37 37 35 33 31 30 30 29 29 31 30 29 27 27 26 25 24 22 22
31 31 30 31 31 30 27 28 28 29 29 31 30 31 30 29 30 31 31 33 35 34 33 33 35 37 38 34 32 31 30 29 29 28 28 32 27 26 26 25 25 23 23 25
28 25 25 24 27 27 26 26 27 27 27 28 30 31 31 31 29 30 30 30 32 33 32 34 36 36 35 32 31 30 29 29 28 27 26 28 26 26 25 25 24 24 23 22
26 27 26 27 26 26 26 26 25 26 27 27 28 29 30 30 30 30 30 30 30 31 31 31 32 32 32 30 29 29 28 28 28 27 27 26 26 26 26 25 24 24 23 23
22 28 20 24 25 25 25 26 25 24 26 26 26 28 28 28 29 31 32 30 30 30 30 30 31 32 31 30 29 28 28 28 29 28 27 26 26 26 25 25 23 22 22 21

GFSNGP_sfc_temp_078.txt.gz
Temp
35 37 36 34 34 33 29 33 27 34 36 42 46 44 46 46 46 46 46 47 46 44 43 43 42 42 42 42 42 42 40 39 38 38 38 38 38 38 38 38 38 38 37 37
26 36 35 32 35 35 35 37 35 36 36 49 49 48 46 45 46 46 46 47 47 46 43 42 40 41 42 41 41 41 40 39 40 41 41 40 39 38 39 38 39 40 41 38
22 32 32 27 33 34 34 37 39 33 40 44 47 48 48 46 47 47 46 47 46 46 44 42 42 42 40 40 41 39 39 38 39 41 39 38 38 37 36 35 36 36 37 38
24 27 20 34 39 41 38 39 40 41 43 46 48 48 47 46 47 46 46 46 45 44 42 43 44 43 41 40 39 38 37 37 40 39 37 37 36 35 34 34 34 34 34 34
25 23 30 34 37 37 36 35 42 41 43 44 45 44 42 46 45 46 46 46 45 45 44 44 41 41 40 40 38 37 36 38 38 37 36 35 34 33 34 33 33 33 33 31
25 21 23 33 39 43 43 32 42 43 43 43 42 36 41 42 42 42 44 44 44 44 43 41 40 41 39 38 37 35 37 37 37 37 36 34 34 33 33 30 27 28 27 28
26 22 30 38 41 44 31 33 43 43 43 42 41 42 43 42 41 42 42 41 41 41 39 40 41 41 39 38 35 37 38 37 37 36 35 35 34 34 32 25 26 24 27 27
29 27 22 43 42 40 42 48 47 45 44 44 42 41 41 41 41 41 40 41 39 37 37 39 41 40 37 35 36 37 37 36 35 35 36 36 34 28 28 27 26 25 26 26
33 32 42 44 44 47 49 46 45 48 46 46 43 42 42 41 43 42 41 40 39 36 36 38 39 39 36 36 37 37 36 35 35 36 36 35 29 28 27 27 26 25 27 26
37 39 42 44 45 47 47 46 45 47 47 48 46 44 43 42 43 42 41 39 37 36 34 33 36 38 38 37 38 37 36 36 36 34 32 29 30 29 27 26 26 27 27 26
36 40 41 43 44 46 45 46 46 46 46 46 46 45 42 42 41 41 41 39 37 35 34 33 34 35 37 38 38 37 37 35 34 31 30 28 29 27 26 27 29 27 27 27
35 42 42 41 43 46 45 44 44 43 43 46 48 47 44 41 41 41 39 37 37 35 34 34 35 37 38 39 39 38 36 32 30 28 27 27 27 26 36 37 39 39 37 31
43 44 44 44 44 43 43 43 42 42 41 41 44 44 42 41 41 42 40 39 39 37 37 36 38 38 39 39 40 38 36 31 30 29 27 26 26 26 25 31 38 38 38 38
44 45 42 43 41 42 43 43 44 40 41 41 41 44 43 41 40 40 38 40 40 39 38 37 38 38 40 40 39 36 31 37 31 29 29 28 27 26 26 26 25 26 34 34
41 41 42 42 42 40 40 40 37 38 38 39 40 40 41 40 40 41 40 39 40 39 38 39 38 38 40 40 39 35 32 30 29 29 29 31 28 27 27 26 26 25 24 30
38 39 39 39 39 38 37 36 35 36 37 37 37 38 39 40 40 39 40 41 39 38 39 39 39 40 39 40 36 32 32 36 34 30 30 28 27 28 27 27 26 25 24 25
36 34 35 34 36 35 35 38 40 38 36 36 37 37 37 38 38 38 40 41 41 41 41 40 39 41 40 37 35 34 32 33 36 30 29 29 29 28 28 26 25 24 24 28
37 39 39 39 38 37 38 39 39 40 39 39 40 39 36 35 35 37 39 40 39 39 40 41 41 40 40 39 38 35 33 33 34 31 31 30 29 29 28 27 26 25 25 27
38 37 36 36 36 36 36 37 37 37 38 38 38 37 34 34 34 36 38 36 36 36 39 39 40 39 39 39 38 36 35 33 34 32 31 33 32 30 28 27 27 26 25 26
34 34 35 35 36 35 34 35 35 35 36 36 36 36 36 36 37 37 37 34 36 37 39 39 39 39 38 38 40 37 35 35 34 34 32 31 31 30 29 31 28 29 27 27
35 35 34 34 34 35 34 33 32 33 33 34 33 33 33 34 35 34 33 33 35 35 33 36 37 37 38 38 38 36 35 34 34 33 32 32 31 31 29 29 29 29 28 28
33 32 32 32 31 31 33 33 29 30 31 31 32 31 31 31 32 32 33 33 33 37 34 28 31 36 36 39 36 35 34 34 33 32 32 33 31 31 29 28 27 28 28 27
32 33 33 32 30 28 30 31 30 30 30 29 30 29 29 30 31 30 30 33 32 33 33 29 33 37 39 37 35 35 33 33 31 30 29 29 30 30 28 27 27 27 26 26
31 31 29 30 30 29 26 26 25 28 28 29 29 29 29 28 29 31 31 32 33 33 33 33 35 37 38 35 33 33 32 31 31 30 30 31 28 28 27 27 27 26 26 27
28 25 24 23 26 26 24 25 26 27 25 25 26 28 29 30 29 30 30 30 32 32 31 34 35 36 34 33 32 32 31 31 31 30 29 29 28 27 28 28 26 26 26 25
28 27 26 26 26 26 25 25 24 26 26 25 26 27 28 28 27 29 29 32 31 31 30 31 31 32 32 31 31 31 30 30 30 30 29 28 28 28 28 27 26 27 27 24
24 28 20 24 24 24 23 24 23 23 25 25 25 27 26 27 27 28 29 28 28 30 30 30 30 31 31 30 30 29 29 29 30 29 28 27 28 28 27 26 27 26 24 23

GFSNGP_sfc_temp_081.txt.gz
Temp
34 36 35 33 33 34 33 34 27 32 33 41 41 41 43 46 46 45 44 44 44 42 42 42 42 42 42 42 41 40 39 38 37 37 37 37 37 37 37 37 37 37 36 37
27 36 35 33 34 35 35 36 34 35 35 44 47 44 44 43 43 45 46 46 45 43 42 42 41 40 41 40 40 40 38 37 38 40 40 38 39 39 39 39 39 37 37 39
21 32 32 26 32 33 35 35 38 33 41 43 42 47 45 43 45 46 46 46 46 46 44 41 42 42 40 40 40 38 37 38 39 41 39 38 38 38 37 36 37 37 38 39
23 26 19 32 37 39 38 38 38 40 43 45 45 48 47 46 48 47 46 45 45 44 42 43 42 41 40 40 39 38 36 37 39 39 37 37 36 35 34 35 35 35 34 34
24 22 29 32 35 35 34 35 41 41 43 43 43 43 42 47 46 48 47 47 45 44 42 41 42 42 41 38 37 37 36 36 38 38 36 35 34 34 34 34 33 33 33 31
24 20 21 32 38 42 41 30 40 42 42 42 40 36 40 45 43 43 43 44 43 42 41 41 40 42 39 37 37 37 37 37 38 37 36 34 34 33 33 33 32 30 28 28
27 21 28 37 40 42 27 31 41 41 42 42 40 42 42 41 42 41 42 42 40 40 40 41 40 38 36 37 36 37 38 38 37 36 35 35 34 33 30 27 26 23 27 26
29 28 21 40 39 36 40 44 43 41 42 42 42 40 40 41 41 41 41 40 39 38 38 38 39 38 37 36 37 37 37 36 35 35 36 35 34 32 28 27 26 25 25 26
32 31 41 42 41 44 49 47 43 48 44 44 42 42 41 40 41 41 42 41 40 39 37 37 38 40 37 36 37 37 36 35 35 36 36 36 31 27 26 26 25 24 27 25
37 39 40 42 43 45 46 45 43 45 46 48 46 45 44 43 42 42 40 39 39 38 34 34 36 38 39 37 38 37 36 35 36 35 34 33 30 29 26 25 24 27 27 26
36 40 40 42 43 44 44 45 44 45 45 46 47 46 45 42 41 42 39 40 38 37 34 34 34 36 38 38 38 37 37 36 35 34 34 30 28 26 25 26 28 27 26 27
35 42 42 42 42 45 44 43 43 43 43 45 45 46 45 42 41 40 38 38 37 35 35 34 34 35 38 39 39 37 35 35 35 33 30 27 26 25 36 36 38 39 38 31
43 44 43 42 43 43 43 42 42 42 41 40 42 43 42 41 40 41 39 38 39 38 38 35 35 35 38 39 39 37 36 34 34 30 26 24 25 25 26 32 39 39 39 38
43 44 41 42 41 42 43 42 43 40 40 40 40 42 42 41 40 39 38 40 39 39 38 38 37 36 39 39 39 37 36 37 30 28 27 25 26 27 27 26 25 25 34 36
41 40 41 41 40 40 39 40 37 37 37 37 38 38 38 38 38 40 41 39 39 38 37 38 38 37 39 39 38 36 35 35 30 28 28 29 28 28 27 27 26 25 24 31
38 39 39 38 38 38 37 36 34 35 36 35 36 36 37 37 37 38 38 39 39 37 38 38 38 39 40 39 37 36 35 35 33 30 28 28 27 28 27 26 25 24 24 25
35 33 34 34 36 35 34 36 36 38 38 38 37 36 36 36 36 36 37 37 38 40 41 40 39 40 39 39 38 36 34 33 37 31 30 30 29 28 28 27 26 25 26 28
37 38 38 39 38 37 37 38 38 38 38 38 38 36 36 34 32 33 35 36 36 36 38 40 40 40 39 39 38 37 34 33 34 31 31 30 30 29 28 28 28 27 26 27
37 36 36 36 36 36 36 36 36 36 37 36 36 35 36 36 34 33 34 34 34 33 37 39 40 39 39 39 38 38 35 34 34 33 31 34 33 31 30 30 29 28 27 28
35 36 36 35 36 35 34 34 34 35 35 35 35 35 35 35 35 34 34 34 36 36 36 37 38 38 38 38 40 37 36 35 35 35 33 32 32 32 31 32 30 29 28 28
34 35 33 32 32 33 35 34 32 31 30 33 32 32 32 33 33 32 31 32 33 35 35 36 34 36 37 38 39 38 36 35 35 34 34 33 32 32 30 30 30 30 29 29
32 32 32 31 30 29 30 30 29 29 29 28 29 30 30 30 30 31 32 31 33 36 34 33 33 36 36 39 36 36 35 35 35 35 33 32 31 31 31 30 29 29 29 28
32 32 33 31 29 29 30 29 27 26 26 27 27 28 28 28 29 29 28 31 32 33 33 33 34 36 38 37 35 35 34 34 34 33 32 31 30 29 30 30 30 29 28 27
31 31 30 30 28 28 22 23 23 25 26 27 26 27 26 27 28 28 30 32 33 33 32 33 34 36 37 34 34 33 33 32 32 31 31 32 30 30 30 29 28 27 27 29
31 27 24 22 26 26 24 24 25 24 25 22 25 27 26 26 25 27 27 29 32 32 31 33 34 35 33 32 32 32 33 32 32 31 31 30 30 30 29 29 29 29 27 27
29 28 26 26 25 25 24 24 23 25 26 25 25 26 26 26 26 26 26 29 29 31 29 30 31 31 31 31 32 32 32 31 32 32 31 30 30 29 29 29 29 30 29 27
26 30 24 25 24 24 23 23 22 21 23 23 23 26 26 25 25 27 27 26 26 26 27 28 29 30 30 30 31 30 30 30 31 30 31 29 29 29 28 29 29 28 28 27

GFSNGP_sfc_temp_084.txt.gz
Temp
33 35 33 32 32 33 29 32 27 28 32 39 42 41 40 42 43 43 42 42 42 41 40 41 40 41 42 41 40 39 38 37 36 36 36 36 36 36 36 36 36 36 36 36
27 34 33 32 33 34 35 36 32 34 33 41 43 38 40 41 42 44 44 44 43 43 41 40 40 39 41 40 40 40 37 37 37 37 37 37 38 38 37 37 37 37 37 38
23 31 31 27 32 33 34 35 36 30 40 43 40 43 43 42 43 46 45 45 45 44 43 41 40 40 40 39 39 38 38 37 38 40 39 39 39 38 37 37 37 37 38 39
24 27 20 34 36 38 36 37 38 38 40 43 43 44 46 44 45 44 45 46 45 45 42 42 41 40 39 40 38 37 36 37 38 39 38 37 37 36 35 36 35 35 34 35
23 22 29 32 34 34 33 35 40 39 42 43 41 39 43 47 47 46 46 46 47 46 43 42 42 41 38 37 37 37 35 37 37 39 37 36 34 34 35 34 33 33 34 33
24 20 21 31 37 39 38 30 39 40 41 41 41 35 40 43 43 43 45 46 44 42 41 41 39 40 38 37 38 35 36 38 38 38 36 35 34 34 33 34 33 33 29 30
30 24 28 35 38 40 28 31 41 39 40 40 39 41 41 40 42 41 42 41 41 41 41 40 40 39 38 37 36 37 38 38 37 37 36 35 34 33 33 32 30 26 28 27
31 28 21 39 37 33 40 45 45 39 39 41 40 39 39 40 40 41 39 40 40 38 37 38 38 38 36 35 37 38 38 37 36 36 36 35 34 32 31 29 27 26 26 27
31 30 39 40 40 42 47 47 44 46 41 43 41 39 39 39 39 40 40 39 40 38 37 37 37 37 35 36 38 37 36 36 35 36 36 35 33 30 27 27 26 25 28 26
35 37 38 40 41 42 43 46 43 43 45 46 44 43 44 43 40 41 40 38 38 37 37 37 36 37 37 37 38 37 36 35 36 35 34 34 33 31 27 25 25 27 27 26
35 38 39 41 41 43 42 45 44 44 44 45 46 46 45 44 43 42 40 38 37 38 36 37 34 35 36 38 38 37 36 35 35 35 34 32 30 28 26 26 29 27 27 27
34 41 41 41 41 43 43 42 42 43 42 44 44 44 44 43 42 41 40 38 37 38 38 35 34 36 38 38 38 37 35 34 34 34 32 32 28 26 35 35 37 38 38 31
42 42 42 39 41 42 42 42 42 41 42 41 41 42 42 41 40 41 39 38 37 39 39 38 36 35 38 39 39 37 36 35 35 34 31 30 26 25 25 31 39 40 40 39
43 42 40 40 39 41 41 41 42 39 39 39 39 39 39 39 39 38 38 38 38 39 39 39 37 37 37 39 38 37 36 37 35 33 32 28 25 27 26 26 26 26 34 36
40 39 40 40 39 39 39 40 37 36 36 37 37 37 37 36 36 37 38 39 39 38 39 38 38 38 39 38 37 36 35 35 33 30 31 30 28 26 26 26 25 24 24 31
36 37 38 38 37 37 37 36 34 35 35 35 35 35 35 36 35 36 36 37 36 37 39 38 38 39 39 39 37 36 35 36 34 32 29 28 27 27 26 26 24 25 25 26
34 33 34 34 36 35 34 35 35 35 36 37 37 37 37 35 34 34 34 35 36 36 39 39 39 40 39 38 37 36 35 35 37 33 30 30 29 28 28 27 27 26 27 28
35 36 38 38 36 37 36 36 37 37 36 37 37 36 34 32 32 32 32 33 34 35 37 40 40 39 39 39 38 37 35 35 35 32 31 30 30 30 29 29 29 28 27 27
37 36 36 36 36 36 35 35 35 36 36 35 34 34 35 35 35 35 34 32 32 31 34 37 39 38 37 38 39 37 35 34 34 34 32 33 32 30 30 30 30 29 28 28
35 36 36 35 36 35 34 34 32 31 32 31 34 34 33 34 34 34 34 31 33 34 35 35 36 36 36 37 40 37 35 34 34 35 33 33 33 31 30 32 30 30 29 29
33 34 32 32 32 33 32 33 31 30 28 29 28 30 30 32 32 31 31 30 32 33 34 35 34 34 35 37 38 37 35 35 35 35 34 34 34 32 32 31 31 30 30 30
33 32 31 32 31 30 29 28 26 27 27 27 27 27 27 26 27 29 30 30 32 34 34 33 33 34 35 38 36 36 36 35 35 35 33 33 32 31 30 30 29 30 30 30
32 31 33 30 27 25 27 26 25 25 24 25 25 27 27 26 26 27 26 29 32 33 33 32 34 36 37 36 35 35 35 34 33 33 33 34 33 32 31 30 29 29 28 29
31 31 30 30 29 29 25 23 23 25 24 25 25 23 23 23 25 24 25 29 32 34 33 32 34 35 36 34 33 33 33 33 33 33 32 34 32 31 31 31 30 29 29 29
30 28 26 25 27 27 24 23 24 24 24 23 22 24 25 24 22 25 25 26 30 29 27 32 34 34 32 32 32 32 32 32 33 32 32 32 32 31 31 31 31 30 29 29
30 29 27 28 27 25 25 24 23 23 24 23 24 25 25 24 24 25 24 27 26 28 25 26 29 30 30 30 31 31 32 32 32 32 32 31 31 31 30 30 30 30 31 29
24 30 25 25 25 24 24 23 22 21 22 21 21 24 23 23 23 24 26 24 24 25 25 26 24 27 28 28 28 29 30 30 32 31 31 31 30 30 30 29 29 29 30 30

GFSNGP_sfc_temp_087.txt.gz
Temp
34 36 35 34 33 33 27 32 28 33 33 43 43 44 44 45 44 44 44 44 45 44 45 45 45 45 45 45 44 44 43 42 41 40 41 41 40 40 40 41 41 41 41 40
29 35 34 33 34 34 34 35 34 34 33 42 45 45 44 44 43 43 45 46 45 45 44 44 44 44 44 43 43 43 42 40 40 40 41 40 41 40 40 40 41 41 41 42
25 32 33 28 32 33 34 35 37 32 41 44 43 44 46 44 44 45 46 47 46 46 46 45 45 45 43 43 43 42 41 40 40 41 40 41 41 41 40 39 40 40 40 41
26 28 20 34 36 38 36 37 38 39 40 44 45 47 47 46 46 46 47 47 48 48 47 46 46 44 43 42 41 40 40 40 41 41 40 40 39 37 37 37 37 37 35 36
27 25 31 34 35 35 34 36 40 40 42 42 44 43 45 47 47 48 48 49 49 50 48 46 45 45 43 41 40 39 39 39 40 40 39 38 36 35 36 35 34 34 36 36
27 22 23 33 38 41 40 32 41 41 41 40 42 37 41 44 45 47 48 48 47 46 45 45 44 43 41 40 39 39 39 40 40 40 38 36 36 35 34 35 33 34 33 35
30 27 29 36 39 41 30 33 41 41 41 40 40 42 42 43 43 44 44 45 44 43 43 43 42 42 40 39 38 39 40 40 39 39 37 36 34 34 33 33 33 32 33 34
30 26 21 39 38 34 41 46 46 43 41 41 41 41 41 42 42 42 42 42 41 41 40 40 41 41 39 37 38 39 39 38 37 37 37 36 34 34 34 32 32 32 32 32
31 31 39 40 41 43 46 47 46 47 43 43 42 41 41 41 42 42 42 41 41 40 39 39 40 41 38 38 38 38 38 37 36 36 36 36 34 33 32 32 32 31 32 32
34 37 38 40 41 42 44 46 46 45 45 45 44 43 43 43 43 42 42 41 40 39 38 38 39 39 40 38 39 39 37 36 36 35 35 35 35 33 32 31 31 31 32 31
34 38 40 41 42 43 43 46 46 45 45 45 46 45 45 45 44 43 42 40 40 39 39 40 39 39 39 39 40 38 38 36 35 35 35 33 34 33 32 33 34 32 32 32
35 40 39 40 42 43 43 43 43 44 43 43 44 43 44 43 43 43 41 40 39 39 40 40 38 38 38 39 39 38 37 35 35 35 33 33 32 30 36 36 37 38 37 34
40 41 42 41 40 43 43 42 42 41 41 41 41 41 42 41 41 42 41 40 39 39 40 40 39 37 39 39 39 38 37 35 35 35 33 32 31 31 30 33 38 39 39 40
41 41 40 40 39 40 42 41 41 38 38 38 39 39 40 39 39 38 38 39 39 39 39 40 39 38 39 40 39 38 37 38 35 35 33 32 32 31 31 31 31 31 37 40
38 39 39 39 39 38 39 39 37 36 37 37 37 37 37 36 36 37 38 38 39 39 40 39 39 38 39 39 38 37 36 36 35 34 34 34 32 31 31 31 31 30 29 33
36 36 37 37 37 37 37 37 35 35 35 35 35 36 36 36 36 36 36 37 36 36 40 40 39 40 39 39 37 37 36 37 36 33 33 33 31 30 30 30 29 29 29 30
33 32 33 34 36 35 34 35 35 35 35 35 36 37 37 36 36 35 34 34 35 35 37 40 40 40 39 39 37 37 36 36 38 34 32 33 32 31 31 30 30 30 30 31
36 35 35 37 36 36 35 36 37 36 35 36 36 36 34 32 31 33 34 34 33 34 35 38 40 40 39 39 38 37 36 35 35 33 32 31 32 32 31 31 31 30 31 30
36 34 35 34 36 36 35 34 34 35 34 33 32 33 35 34 34 34 34 33 33 32 34 35 37 38 38 39 38 38 36 35 34 34 32 32 31 32 32 32 32 32 32 31
35 35 35 35 35 34 33 33 32 30 29 29 30 31 29 30 33 32 32 31 33 32 34 35 35 36 36 37 40 37 36 35 34 34 34 32 31 31 31 33 32 32 32 31
32 32 33 32 31 31 31 30 28 28 28 28 28 29 27 27 27 28 30 30 31 33 34 34 33 33 34 36 37 37 35 35 34 34 34 33 32 32 31 30 30 31 32 32
33 32 31 31 31 30 30 29 27 27 28 27 27 27 28 28 26 28 29 29 28 34 34 33 32 34 35 37 35 35 36 35 34 34 33 33 32 32 32 31 30 30 29 29
32 32 32 30 28 27 28 27 25 25 24 23 24 24 25 25 25 25 27 27 28 30 33 32 34 36 37 34 34 34 34 34 34 34 33 33 33 33 33 32 32 31 30 30
31 32 31 31 30 29 26 26 25 25 24 24 25 25 24 23 24 25 24 28 30 32 29 30 33 35 35 32 32 32 33 33 33 33 33 35 33 33 33 33 32 32 31 31
30 29 27 25 27 28 26 26 25 25 24 23 23 23 23 24 23 24 23 24 28 28 25 29 32 32 30 30 30 31 31 32 32 33 33 33 33 33 32 32 32 32 32 31
29 29 28 28 27 26 25 25 24 25 25 23 24 24 24 22 22 23 23 26 25 27 23 24 25 27 25 26 29 28 29 30 31 32 32 32 32 32 32 32 32 32 32 32
22 29 22 25 25 25 24 24 22 23 23 22 21 23 23 22 22 23 24 22 22 22 22 23 24 25 25 25 26 25 25 27 29 30 31 31 31 31 31 31 31 31 31 31

GFSNGP_sfc_temp_090.txt.gz
Temp
40 41 41 39 39 39 34 40 36 43 42 52 57 56 57 56 55 55 54 55 56 57 58 58 57 57 57 56 55 55 52 51 50 50 49 49 49 49 49 50 50 49 49 48
34 40 40 38 40 41 42 43 42 42 42 52 56 59 56 58 54 53 54 55 56 57 58 58 58 57 56 55 53 53 52 50 49 48 48 48 48 47 48 47 48 48 47 47
32 38 39 35 40 40 41 43 44 38 47 53 52 52 55 58 55 55 56 57 56 57 57 58 58 58 55 55 54 52 51 50 48 48 47 47 47 47 46 45 46 45 44 44
35 37 29 40 46 44 43 44 46 47 48 52 53 56 58 59 58 58 58 58 59 59 59 59 59 57 57 55 52 50 50 49 48 48 47 46 45 43 41 41 41 40 38 39
34 34 38 40 43 43 41 42 48 47 50 52 53 53 54 58 58 59 61 62 62 62 61 60 58 57 54 52 50 49 48 47 47 47 45 44 41 39 39 37 36 36 38 39
35 29 29 41 46 49 48 39 49 49 50 49 49 44 52 52 53 55 57 59 59 60 59 58 57 56 53 51 49 47 48 48 48 46 44 42 41 37 35 37 35 36 36 39
36 33 38 46 47 48 36 40 50 49 49 47 47 51 49 51 51 52 52 52 53 55 55 55 54 52 50 50 46 47 47 46 46 44 42 41 37 35 35 35 35 35 36 40
37 32 28 48 46 41 48 51 51 50 49 49 50 49 49 49 49 49 49 50 50 50 49 50 50 50 48 45 46 46 46 44 43 42 41 38 36 35 35 35 34 35 39 39
42 42 49 50 50 53 52 51 52 52 49 51 49 49 49 49 49 49 49 49 49 49 48 48 48 49 45 47 46 45 44 43 42 41 39 38 36 35 33 34 34 36 38 38
42 46 48 51 52 52 53 53 52 53 53 52 51 51 51 51 51 50 50 50 48 48 47 47 47 48 50 47 46 45 45 43 41 38 37 36 36 35 34 33 34 37 37 37
44 48 51 50 51 52 52 51 51 52 52 52 52 50 51 49 48 47 47 47 46 48 49 48 47 46 46 47 47 45 44 42 39 38 37 35 35 35 35 36 37 38 38 39
44 48 48 50 50 51 50 50 50 50 49 49 51 49 50 49 49 48 48 47 46 44 46 47 44 44 43 44 44 45 43 40 38 37 36 35 34 33 38 38 39 40 40 40
46 50 50 51 49 49 48 48 48 48 48 47 47 48 47 47 46 46 46 46 46 46 48 48 46 42 42 41 42 43 43 41 39 37 36 34 33 32 31 36 38 38 39 39
48 46 47 48 48 47 47 46 45 45 45 44 45 45 45 44 44 44 43 44 45 45 45 46 45 43 41 41 40 40 41 40 39 39 37 34 33 33 35 36 35 36 39 40
44 46 46 46 45 44 45 45 43 42 43 42 43 43 43 42 42 42 43 43 44 44 45 45 44 41 42 40 39 39 38 37 38 37 36 35 33 33 35 36 37 38 37 37
40 43 44 44 42 42 42 42 42 40 41 40 40 41 41 42 41 42 42 42 41 42 43 43 43 43 43 40 38 38 38 38 37 35 34 34 33 32 32 33 35 36 36 36
36 40 40 39 41 40 40 41 41 40 39 39 38 40 40 39 40 39 40 41 40 41 42 42 42 44 42 41 40 38 36 36 38 34 33 33 33 33 33 33 35 35 36 38
39 39 39 41 42 40 39 39 39 38 37 37 38 38 38 37 35 35 35 36 36 37 38 40 40 40 42 41 40 39 38 36 36 35 33 32 32 33 34 34 35 36 37 37
37 36 37 38 39 39 38 37 36 36 36 36 36 35 36 36 35 35 35 34 34 33 34 37 36 38 39 41 41 39 36 36 36 36 34 34 33 32 32 32 34 36 37 36
35 35 35 34 36 37 36 36 35 35 34 34 34 34 33 33 34 34 34 33 32 32 35 35 35 35 35 36 38 38 37 37 36 36 35 33 33 32 32 32 31 31 32 35
34 33 32 34 34 35 35 35 34 34 33 33 33 32 30 32 32 32 32 31 33 33 34 35 34 34 35 36 36 35 35 35 35 34 34 34 33 33 32 32 31 31 31 31
33 33 32 31 31 32 32 33 33 33 33 32 32 31 32 32 31 31 33 32 33 33 35 35 34 35 36 37 35 34 34 35 35 35 34 34 33 33 33 33 32 32 32 31
33 33 33 33 31 31 31 31 31 31 30 30 30 30 30 31 31 30 31 33 32 33 34 34 34 35 35 35 33 33 33 33 34 34 34 34 34 33 33 33 33 33 32 32
33 33 32 34 34 32 31 32 30 31 30 29 29 29 29 29 30 32 32 31 31 32 32 32 32 33 34 32 31 31 32 32 32 32 33 35 34 34 33 33 33 34 33 33
33 33 30 31 31 32 32 31 30 30 30 30 29 30 29 30 28 30 29 29 30 30 30 31 31 31 31 31 31 30 30 31 31 32 32 33 33 33 33 33 33 34 34 34
33 33 34 33 33 33 32 31 30 31 31 30 30 31 30 30 29 29 30 30 29 29 29 29 29 30 30 30 30 31 31 31 31 31 31 32 32 32 33 33 34 34 34 34
31 32 31 31 32 31 30 30 29 30 29 28 27 29 29 28 29 29 28 28 28 28 28 28 29 28 29 28 29 29 29 29 30 30 30 30 30 31 32 32 33 33 33 33

GFSNGP_sfc_temp_093.txt.gz
Temp
43 45 44 41 42 43 34 42 38 45 46 54 58 58 60 62 60 59 59 59 59 61 62 62 61 61 62 60 59 59 57 56 54 54 53 53 52 52 52 52 52 52 51 51
37 44 43 40 44 44 44 45 45 46 45 57 60 60 60 61 59 57 58 59 60 61 62 61 61 61 60 58 58 57 56 55 53 52 51 51 50 50 50 50 50 50 49 49
34 41 42 36 42 43 44 47 46 39 48 56 55 57 57 59 59 58 59 60 60 61 61 62 62 62 59 58 58 56 55 54 52 52 51 50 50 49 48 47 48 46 45 46
38 40 30 43 49 49 46 48 49 48 50 53 54 58 59 61 60 61 61 61 62 62 62 63 63 62 61 59 57 54 54 53 52 52 50 49 48 47 44 44 43 42 39 40
36 37 40 41 45 45 44 44 50 49 52 54 55 56 54 60 60 60 63 64 65 65 65 64 62 61 60 57 55 53 53 52 51 51 50 48 45 42 42 40 37 37 38 39
38 32 30 42 48 52 51 39 51 51 51 51 52 45 50 55 56 58 60 63 64 65 65 63 62 61 58 55 54 51 52 52 52 50 49 46 45 41 37 38 36 37 36 39
39 36 41 48 50 52 36 38 52 52 52 51 50 51 53 55 54 55 55 55 57 61 61 61 61 59 55 54 51 52 52 51 50 48 46 45 41 38 36 36 35 35 36 38
39 34 31 52 49 43 49 55 54 54 53 52 53 53 52 52 52 53 53 53 53 54 53 55 55 54 51 50 50 49 49 47 46 45 45 42 39 37 36 35 34 34 36 37
42 42 51 53 52 56 56 54 55 55 53 54 52 52 52 52 53 52 53 52 53 53 52 52 52 53 51 50 49 48 47 46 45 45 43 42 39 36 34 35 34 34 35 36
44 49 51 53 56 55 56 55 54 55 55 55 52 53 53 53 53 53 53 52 52 51 51 50 51 51 53 52 50 49 47 47 46 43 41 40 38 37 35 34 33 33 35 36
47 51 53 53 54 54 55 54 54 55 54 54 51 49 53 49 50 50 48 50 51 51 52 52 51 50 51 50 49 47 48 47 44 42 40 38 36 36 35 36 35 33 35 37
39 49 49 52 54 54 53 52 53 53 51 52 53 52 53 51 51 51 50 50 49 49 48 48 47 47 46 46 46 45 44 45 43 40 40 37 35 34 38 38 38 38 40 41
46 51 51 52 53 52 52 51 51 51 51 49 49 50 50 49 48 48 49 49 48 48 49 50 50 48 46 44 43 42 43 42 42 40 39 36 34 33 32 35 38 38 39 40
51 49 50 50 48 50 50 49 48 48 48 48 48 48 47 46 47 46 45 46 46 47 47 48 48 47 47 45 42 40 40 42 38 39 39 37 35 33 33 32 32 33 38 39
46 46 47 50 49 46 48 48 46 45 45 45 46 45 44 43 43 43 45 45 45 46 47 46 46 46 46 44 41 40 38 37 37 36 36 36 34 33 33 33 34 36 37 38
42 43 46 46 46 45 45 45 45 43 43 43 43 42 42 43 43 43 43 43 41 41 43 44 44 46 46 44 41 39 38 38 38 35 34 34 33 32 32 32 32 34 36 35
36 39 40 43 43 44 44 44 43 42 42 41 40 41 41 41 41 41 40 41 40 41 42 42 41 42 43 43 41 38 38 37 39 35 33 33 33 32 32 32 32 32 32 36
38 40 42 41 42 42 41 42 42 41 39 39 40 40 40 38 37 37 37 37 37 38 37 37 38 38 41 42 41 40 37 36 35 36 34 33 33 33 32 32 32 32 32 33
36 36 36 36 38 41 40 40 39 39 38 39 39 38 38 37 36 36 37 36 34 34 34 36 36 37 37 37 38 39 37 36 35 35 35 35 34 33 32 32 33 33 33 33
35 35 35 34 35 35 34 37 38 38 38 37 38 37 36 36 35 35 34 33 33 34 34 35 36 36 35 36 38 37 36 35 35 35 35 34 33 33 33 33 33 33 33 33
34 34 33 35 35 37 37 37 37 36 35 36 35 35 33 35 35 33 33 33 34 33 34 36 34 34 35 36 37 35 34 34 34 34 34 34 34 34 33 33 32 32 32 32
33 33 33 32 32 32 33 34 35 35 34 34 34 34 33 33 34 33 34 32 34 35 34 35 35 35 35 36 35 34 33 33 33 34 34 34 33 33 33 33 33 33 32 32
33 33 33 32 31 31 32 31 31 31 32 32 32 31 31 32 32 31 32 34 33 33 33 34 34 34 35 34 33 32 32 32 32 32 32 33 34 34 33 34 34 34 33 33
34 34 33 33 32 31 31 34 32 32 32 31 31 31 30 30 32 34 34 33 33 32 31 32 32 33 34 32 32 31 31 30 31 31 31 33 32 33 33 33 33 34 34 34
33 33 33 32 30 29 33 33 32 32 31 31 31 32 31 32 30 31 30 30 31 31 30 32 32 32 31 31 30 30 30 30 31 30 30 30 31 31 32 32 33 33 33 34
34 34 35 35 35 35 34 33 32 33 33 32 33 32 32 32 31 31 31 31 30 31 30 30 30 30 29 29 29 29 30 30 30 30 30 29 29 30 30 31 32 32 33 33
33 34 34 33 34 33 33 32 31 31 32 31 30 31 31 30 30 30 30 29 29 29 29 29 29 29 29 28 28 29 28 28 29 28 27 28 28 29 29 29 30 31 32 32

GFSNGP_sfc_temp_096.txt.gz
Temp
41 43 41 38 37 40 34 38 32 39 41 47 48 46 50 51 53 53 52 52 52 51 51 51 51 52 52 51 50 50 49 48 46 46 46 46 46 46 46 46 46 46 46 45
32 43 42 36 42 42 41 42 41 41 39 48 51 52 51 48 53 52 52 53 53 54 52 50 50 51 51 50 50 50 48 46 46 46 45 44 44 44 44 44 44 45 44 44
30 38 39 31 39 40 41 42 42 36 43 47 48 51 49 50 52 53 53 53 53 53 52 52 52 52 49 49 49 49 48 47 46 46 45 44 44 43 42 41 41 40 40 41
28 30 22 36 44 45 43 45 45 45 46 48 48 50 50 51 50 52 54 54 54 53 53 53 53 52 51 50 48 47 47 46 47 46 45 44 43 41 39 39 41 39 36 38
28 29 33 36 40 40 38 39 47 44 47 49 49 47 46 51 51 50 52 55 55 55 54 54 53 52 50 48 47 46 46 45 46 46 44 42 39 39 41 39 36 36 37 38
30 26 25 35 42 48 45 32 47 47 46 45 45 35 39 48 49 49 51 51 52 55 55 53 52 51 49 47 45 44 46 45 46 45 43 40 39 39 36 38 35 37 36 38
31 27 33 42 45 46 28 34 47 47 45 45 41 42 45 47 47 48 48 47 50 52 52 52 52 50 47 46 44 45 47 45 44 43 41 40 37 37 36 35 35 35 35 37
33 28 24 46 43 38 45 47 49 47 45 45 46 47 47 47 47 47 46 46 47 45 45 46 48 47 45 44 44 44 44 43 42 40 41 39 38 36 36 35 34 34 35 35
36 36 45 46 45 48 49 47 47 48 47 47 47 46 47 46 46 46 46 46 46 45 44 44 45 46 43 42 43 43 42 40 40 40 40 41 37 36 34 35 34 33 33 33
39 43 44 47 48 48 48 47 48 49 49 49 46 47 46 47 46 45 45 44 46 45 44 42 43 45 45 44 44 42 40 40 39 38 40 39 37 36 35 34 33 33 33 33
40 44 43 46 46 47 49 49 49 50 49 48 47 48 49 47 47 45 45 45 44 43 43 43 43 43 43 44 45 42 42 43 41 40 40 37 36 36 35 36 36 34 34 34
36 43 41 42 46 48 47 46 47 47 46 47 48 47 47 44 44 44 43 44 43 43 43 43 43 42 44 45 45 44 43 42 40 38 38 36 35 34 40 39 40 40 39 38
40 44 43 45 46 46 46 46 46 46 47 43 44 45 44 42 42 44 42 41 40 41 42 42 43 42 41 41 43 42 41 41 40 38 37 35 34 33 32 35 39 39 39 40
43 43 42 44 41 44 45 44 45 43 44 45 45 44 43 41 41 40 39 40 40 40 41 41 41 40 41 41 40 40 40 42 37 38 37 36 34 33 33 32 32 33 38 39
40 41 40 43 44 42 43 43 42 41 42 42 43 41 40 39 38 38 39 40 40 40 40 41 40 40 42 41 39 39 38 37 37 36 35 35 34 33 32 32 32 32 32 35
38 40 41 40 41 40 39 39 40 40 40 40 39 38 39 39 39 39 39 38 36 36 38 39 38 39 40 40 39 38 37 39 38 35 34 34 33 32 32 32 32 32 31 32
34 34 36 37 39 42 40 42 41 40 39 37 37 38 38 37 38 36 36 36 36 36 38 37 37 38 38 41 40 38 37 36 39 35 34 33 33 32 32 32 32 32 32 33
37 37 39 38 38 40 41 41 40 39 36 37 37 37 36 34 32 33 33 34 36 36 35 35 36 36 38 38 37 38 37 35 35 35 34 33 33 33 32 32 32 32 32 33
36 35 36 35 36 36 36 35 35 37 36 35 34 33 34 33 32 32 32 34 34 29 30 32 35 36 35 36 37 37 35 35 34 34 34 35 34 33 32 32 32 32 33 33
35 35 35 34 34 34 33 33 32 33 36 35 34 34 32 32 32 30 30 29 32 29 30 31 34 34 34 35 37 36 35 34 34 34 34 34 33 33 33 33 33 33 33 33
34 34 33 32 32 34 34 34 34 32 32 34 32 32 31 32 32 30 27 24 28 30 31 33 29 29 30 34 35 34 33 32 33 33 33 33 33 33 33 32 32 32 32 32
33 32 33 32 31 30 32 32 32 31 30 30 31 31 31 29 29 27 28 27 25 34 28 25 26 32 31 35 27 29 31 31 32 32 32 32 33 33 33 33 33 33 32 32
32 32 32 29 28 28 30 30 30 30 29 30 30 29 28 28 28 26 25 28 25 29 26 24 31 34 35 25 24 24 24 26 30 30 30 31 31 31 32 33 33 33 33 33
33 32 32 32 32 28 27 29 31 30 29 28 28 28 26 25 25 25 25 31 33 31 28 28 30 34 35 24 23 23 23 24 28 29 29 31 29 30 31 31 32 32 33 33
33 33 32 30 26 28 28 28 28 29 29 28 28 28 27 26 25 23 23 25 31 30 26 31 33 33 26 24 23 22 21 20 18 27 29 28 28 28 28 29 30 31 32 32
30 31 33 33 32 29 29 30 28 29 29 28 29 29 28 27 26 26 24 28 26 28 23 23 24 24 22 21 21 21 22 22 23 22 23 21 21 26 27 28 28 28 29 30
23 31 23 27 28 28 27 27 26 27 29 28 27 28 27 27 26 27 29 26 25 25 24 24 23 25 24 23 22 21 20 20 25 22 17 17 20 24 26 26 26 27 28 28

GFSNGP_sfc_temp_099.txt.gz
Temp
36 39 38 35 35 38 33 37 32 37 39 42 43 44 45 47 49 49 50 50 50 49 47 47 48 47 47 47 47 47 46 45 44 44 44 44 44 44 44 44 45 44 43 44
28 40 39 34 38 38 39 40 38 41 37 43 45 48 50 47 50 50 50 51 51 50 48 46 46 47 48 47 47 47 45 44 44 44 43 43 42 42 42 42 42 42 41 42
25 35 38 30 37 39 40 42 42 34 40 44 46 49 49 49 51 51 51 51 51 50 49 48 48 48 46 46 46 46 44 44 44 44 43 42 42 41 40 39 39 38 38 39
25 30 23 35 42 43 41 43 43 42 43 45 45 47 46 48 49 49 50 52 52 51 49 49 49 48 47 47 46 45 44 44 44 43 42 42 41 39 38 38 38 37 36 36
26 24 31 34 39 39 37 37 44 42 44 45 46 44 42 47 47 46 47 49 52 52 51 50 49 48 47 45 45 44 43 43 44 43 42 40 38 37 38 39 37 37 38 35
27 23 23 33 40 44 43 30 43 45 43 43 43 36 38 45 46 46 46 47 47 51 52 50 49 48 47 44 43 43 43 43 44 43 41 39 38 37 36 38 36 36 35 36
27 25 31 39 41 43 29 33 47 45 43 42 39 40 43 45 45 45 45 45 46 47 48 49 49 48 45 43 42 44 45 44 43 42 40 39 36 36 37 36 35 35 35 37
27 27 23 43 42 35 41 44 47 44 42 43 43 44 44 45 44 44 44 45 45 44 43 44 46 46 44 42 44 43 43 42 41 40 40 38 36 37 36 36 35 35 35 35
32 32 43 44 42 46 48 46 44 44 43 45 44 43 44 43 44 44 43 43 44 42 42 42 43 44 42 42 42 41 41 40 39 38 38 37 37 36 35 35 34 34 33 33
37 40 40 43 44 45 47 45 46 47 47 47 45 45 43 43 43 43 43 43 43 42 41 41 42 43 43 41 42 41 39 38 38 37 38 39 37 37 35 34 34 33 33 33
36 38 39 44 44 44 45 46 46 46 46 46 47 46 46 44 45 44 43 43 42 41 41 41 42 41 42 42 41 39 39 40 41 40 40 37 37 36 36 37 36 34 34 34
31 37 38 41 44 46 45 45 45 45 43 44 46 45 44 41 42 42 41 41 41 40 40 40 40 40 41 41 41 41 41 41 40 39 38 36 35 35 40 40 40 41 40 37
38 42 43 44 43 44 44 44 44 44 44 42 43 43 42 41 40 42 39 39 38 38 39 40 40 40 40 40 40 39 38 41 40 39 36 36 35 34 32 35 40 40 40 40
38 41 40 41 38 42 43 42 44 42 44 44 42 42 43 41 39 38 37 37 38 38 38 38 38 37 38 39 38 37 37 41 37 38 37 37 35 34 33 32 32 33 38 39
35 37 38 41 42 42 41 42 40 39 40 41 42 41 40 38 37 36 37 37 37 37 37 37 37 36 37 37 37 36 36 37 37 36 35 36 34 33 33 32 32 33 32 35
38 36 37 37 38 40 39 38 38 38 39 40 39 38 38 38 37 36 36 35 34 33 35 35 35 36 37 38 39 37 38 39 39 35 35 34 34 33 32 32 32 32 32 32
34 34 35 35 37 39 40 41 41 40 39 38 37 37 37 36 35 33 33 34 34 36 36 35 35 36 37 38 36 36 37 37 39 36 34 34 33 33 33 32 32 32 33 34
37 37 37 37 36 37 39 38 37 36 34 33 36 35 34 32 31 31 31 32 35 34 32 32 35 35 36 36 36 36 35 35 34 34 34 33 33 33 33 32 32 32 33 33
36 35 35 35 35 36 36 34 34 34 33 34 34 33 32 31 31 31 31 31 31 28 29 30 34 34 34 34 36 35 34 33 33 34 34 35 34 34 32 32 32 32 32 32
36 35 35 34 34 34 33 33 33 33 35 34 34 33 32 31 31 30 29 29 29 28 29 30 31 30 30 31 35 31 33 32 32 33 33 33 33 33 33 33 33 32 32 33
35 34 34 33 30 31 31 33 33 31 32 33 32 32 31 32 32 31 29 26 28 30 30 31 28 28 29 32 30 28 28 28 31 31 31 32 32 33 33 32 32 32 32 32
33 32 32 33 32 32 31 29 31 31 30 30 30 29 29 29 29 28 29 27 26 34 27 25 26 30 31 34 26 26 26 26 26 26 29 30 30 30 31 32 32 33 33 33
33 33 33 32 29 28 27 25 28 29 29 29 29 29 29 29 28 26 26 28 25 29 26 24 30 34 35 24 22 23 23 23 23 27 28 28 29 29 29 29 30 31 32 32
33 33 32 33 32 30 27 28 30 29 30 29 28 29 27 26 26 27 26 31 32 31 28 28 30 34 35 23 22 21 21 21 19 24 28 30 28 28 27 28 27 29 30 31
27 28 32 31 30 29 28 29 28 27 28 27 27 28 28 28 27 26 24 25 30 29 24 30 33 32 24 21 20 21 21 21 21 21 21 21 25 25 25 25 27 27 27 28
27 28 29 33 33 32 32 28 25 27 27 27 28 29 28 27 25 27 24 27 25 28 22 23 23 24 22 21 21 21 21 20 20 19 22 19 18 18 21 23 25 26 26 26
21 29 21 25 27 27 26 26 25 25 27 27 27 28 27 27 26 27 28 26 25 24 22 22 21 23 22 21 20 20 20 19 23 21 17 15 16 16 19 20 20 21 22 25

GFSNGP_sfc_temp_102.txt.gz
Temp
36 37 35 33 33 36 28 34 31 34 36 39 40 40 45 45 46 46 46 48 47 47 47 47 47 47 47 47 46 46 46 45 44 44 44 43 43 43 43 43 42 42 42 42
28 38 37 32 36 36 36 38 37 38 37 44 44 45 45 43 46 47 48 48 49 48 47 46 46 46 47 45 45 46 44 43 43 43 42 42 41 41 41 41 41 41 40 41
24 34 35 27 36 36 38 39 40 34 40 44 45 47 46 46 48 49 49 50 50 49 49 48 47 47 45 45 44 44 43 43 43 42 42 41 41 40 39 39 39 38 37 38
24 29 21 34 42 43 41 42 42 41 42 46 46 44 46 46 47 47 48 49 50 49 49 48 48 47 46 45 44 43 43 42 42 42 41 40 40 38 37 37 36 36 37 36
24 23 29 35 39 38 37 36 43 41 42 43 46 43 43 47 46 45 46 48 49 51 50 49 47 47 46 44 43 43 42 42 42 42 40 39 38 37 36 36 35 37 38 37
26 22 23 32 40 44 42 31 42 43 41 41 41 34 39 44 44 44 45 46 47 51 51 50 48 46 45 43 42 41 42 42 42 42 40 39 37 36 34 36 37 37 35 34
27 26 29 37 40 42 28 33 47 45 41 41 39 40 42 44 44 44 44 44 45 47 48 48 48 48 45 43 42 44 44 43 42 41 40 39 36 36 35 36 36 35 35 36
26 24 22 41 40 34 39 42 44 43 41 41 42 42 43 43 42 43 42 43 44 42 42 44 46 46 43 43 44 44 43 42 41 40 40 38 35 35 35 36 36 35 35 35
31 31 39 40 41 43 46 44 42 42 42 44 42 42 43 42 42 41 41 42 42 42 43 42 43 45 43 43 43 42 41 40 39 38 37 38 37 34 35 36 35 35 34 34
35 36 36 40 41 43 44 44 44 45 44 44 42 46 43 42 41 41 41 41 41 41 40 40 41 42 43 42 41 40 39 38 37 36 36 37 38 37 36 35 34 33 33 33
33 34 37 40 40 42 44 45 44 45 45 46 45 45 45 43 42 42 42 41 40 40 41 40 41 41 41 41 40 39 38 37 39 39 40 38 37 37 36 37 36 34 34 34
30 36 36 38 40 42 43 43 44 43 42 44 46 43 42 40 40 39 38 39 38 38 39 38 39 39 40 40 40 39 40 39 39 38 39 37 36 36 41 40 41 41 41 38
37 38 41 43 42 42 41 42 43 42 43 42 43 45 44 41 40 41 38 37 37 37 38 38 38 37 37 38 38 38 37 37 37 40 38 37 35 34 33 36 40 41 41 41
35 36 36 38 37 41 41 42 42 41 42 43 42 42 41 40 39 38 36 35 36 37 36 36 35 34 35 36 36 36 35 39 36 35 35 37 36 34 34 33 33 33 38 41
33 34 33 36 37 38 40 41 39 38 39 40 42 40 40 38 36 35 35 35 35 35 35 35 34 33 35 35 36 35 34 35 37 36 35 36 35 34 33 33 33 33 33 35
34 39 35 34 36 39 38 38 37 38 39 39 39 38 38 37 35 34 33 34 33 32 33 33 35 34 35 38 37 37 37 39 39 35 35 34 34 33 33 33 33 33 32 33
34 34 36 36 37 37 38 40 39 39 38 37 37 38 37 36 34 32 32 33 34 35 35 34 33 34 37 35 36 36 36 35 38 35 34 34 34 33 33 33 32 32 33 34
37 37 37 36 36 36 38 37 36 35 34 33 34 34 34 32 30 30 30 32 32 31 30 30 32 35 35 33 35 34 34 34 33 33 33 33 33 33 33 33 33 32 33 33
37 36 36 36 35 35 36 34 34 34 33 33 32 31 32 31 31 31 30 30 29 29 29 30 33 32 31 32 34 31 30 31 32 33 33 34 33 33 32 32 32 33 33 33
36 36 36 35 35 34 33 34 34 33 33 33 34 33 32 31 32 31 31 29 29 29 30 30 29 29 29 30 34 29 28 28 28 29 31 32 32 32 32 33 33 32 32 33
35 35 34 33 32 30 30 31 32 31 30 32 32 31 30 30 30 30 28 28 30 31 31 31 28 28 29 31 30 27 27 26 26 26 27 28 31 31 31 31 32 32 32 33
35 33 33 33 32 32 33 29 28 30 31 28 29 30 30 29 29 29 30 28 28 34 28 26 26 30 31 33 27 26 26 26 25 25 24 25 28 28 28 29 29 30 31 31
33 33 33 32 31 29 30 29 29 30 28 28 29 29 29 30 29 27 27 29 28 30 28 26 31 34 35 25 24 24 24 24 24 23 26 27 27 27 27 27 27 28 27 29
31 33 33 33 33 30 24 24 27 30 28 29 30 29 28 27 27 28 28 32 33 31 28 28 30 34 34 25 22 21 23 22 19 17 18 27 24 26 27 27 25 23 25 28
27 25 24 28 30 30 30 30 27 28 28 26 26 26 27 27 28 25 25 25 31 29 26 30 32 32 25 23 19 18 18 15 13 14 15 15 16 17 18 19 20 22 25 26
26 27 27 28 30 32 33 31 29 28 26 26 26 27 27 26 25 28 26 27 25 27 22 22 21 23 22 21 19 19 18 18 19 18 20 16 16 15 17 18 19 20 21 20
19 27 20 24 26 26 26 26 24 24 27 26 25 27 27 26 26 27 28 26 25 24 21 21 20 22 21 20 20 19 17 17 20 18 14 12 13 13 16 17 17 18 18 19

GFSNGP_sfc_temp_105.txt.gz
Temp
36 37 33 32 32 32 25 28 23 31 32 35 38 40 42 43 44 45 46 46 46 45 44 45 46 46 46 45 46 46 46 45 44 43 43 43 43 42 42 42 42 42 41 41
27 36 34 31 33 33 35 34 35 35 32 40 41 40 43 43 46 47 46 46 45 45 44 44 45 45 46 45 45 46 44 44 44 43 42 42 41 40 41 40 40 40 39 40
23 31 33 27 34 32 35 36 36 33 39 42 44 44 41 42 44 45 46 45 46 46 47 46 45 46 45 45 44 44 44 43 42 42 41 40 40 40 39 38 38 37 36 37
24 28 20 34 40 40 38 39 39 39 40 42 41 41 42 42 41 43 44 46 47 47 46 47 48 46 46 45 44 44 43 42 42 41 40 39 39 38 37 36 36 35 37 37
24 23 27 32 38 38 38 35 41 39 40 41 43 41 39 44 44 42 44 45 46 47 48 47 47 47 45 44 43 43 42 41 42 41 40 39 38 36 36 36 35 35 38 37
25 21 22 31 37 41 41 31 41 43 41 41 41 35 38 42 42 42 44 44 44 45 49 48 46 46 45 43 42 42 42 42 42 41 40 38 37 36 34 35 35 36 36 37
25 22 27 35 39 42 28 31 44 44 40 40 39 40 41 42 42 42 43 43 44 45 46 46 46 46 44 42 42 43 43 42 41 40 40 38 36 36 35 33 34 36 36 36
25 23 20 39 38 32 38 41 42 42 40 40 40 40 41 41 41 41 41 42 42 41 41 43 45 45 43 42 43 44 43 42 41 40 39 38 35 35 34 36 36 36 36 35
29 29 36 37 37 39 41 42 41 40 41 42 41 40 40 40 40 40 40 40 41 41 41 41 42 44 43 42 43 42 41 40 39 38 37 36 35 35 36 36 36 35 34 34
32 33 33 36 38 40 41 41 42 42 43 43 40 45 40 40 40 39 39 39 40 40 41 41 42 43 42 41 42 41 39 39 37 37 36 36 37 37 36 35 35 34 33 33
31 32 34 36 37 38 41 43 43 43 43 44 44 45 45 41 40 39 39 40 40 40 41 39 39 39 40 40 41 39 39 38 37 37 37 36 37 38 36 37 37 34 35 34
33 35 35 37 38 41 40 40 41 42 41 45 46 44 42 40 39 39 37 37 37 37 38 38 37 36 37 39 39 38 38 38 38 38 36 36 36 36 41 41 41 41 42 39
35 34 37 39 39 38 39 40 41 41 41 43 44 44 43 40 40 42 38 37 36 36 36 36 35 34 35 35 36 36 35 36 35 38 38 38 36 34 32 37 41 41 42 42
32 34 34 35 33 36 37 39 41 38 39 42 43 43 42 40 40 38 37 36 36 36 35 34 33 32 33 34 34 34 34 38 33 33 33 35 34 33 34 33 33 34 39 40
31 33 32 33 34 36 36 38 37 37 37 38 41 40 40 38 37 35 35 35 35 34 33 34 32 32 34 36 36 36 35 33 33 32 34 35 34 34 34 34 33 34 34 36
33 34 35 34 33 36 37 39 38 38 39 39 38 38 38 38 36 35 34 34 32 32 32 32 35 32 36 36 35 36 36 37 38 35 35 34 34 34 33 33 33 33 33 33
30 30 33 34 37 35 36 39 39 38 37 36 35 36 35 35 33 33 32 33 33 35 34 31 30 32 36 32 35 35 35 34 36 33 34 34 34 33 33 33 33 33 33 34
35 38 37 37 36 36 37 38 37 36 35 34 34 34 32 31 31 32 31 32 31 30 29 29 30 31 32 31 32 30 30 33 33 32 32 33 33 33 33 33 33 33 33 33
33 36 36 36 36 35 36 36 35 34 34 33 32 31 31 31 31 30 29 30 29 28 29 29 33 31 29 31 33 29 28 28 28 30 31 33 32 32 32 32 32 32 32 32
34 36 36 35 35 34 34 34 34 33 34 33 31 31 30 30 30 31 30 29 30 29 30 30 30 29 29 30 34 29 28 27 27 27 27 28 29 31 31 32 32 32 32 32
36 36 35 34 33 33 30 29 31 31 32 30 29 29 28 28 28 29 28 28 31 32 31 32 29 29 30 31 30 28 27 26 26 25 25 26 26 27 27 28 30 30 31 30
35 34 33 33 33 32 33 31 27 28 30 28 27 26 27 27 27 27 30 28 29 33 30 28 28 30 31 34 28 28 27 27 26 26 25 25 25 26 27 27 27 28 28 27
34 34 34 33 32 32 32 31 28 28 29 27 27 27 27 27 27 26 26 30 29 31 30 28 30 34 35 26 26 26 25 24 24 24 23 22 23 22 26 26 27 27 25 22
28 32 32 34 33 31 29 29 28 30 30 28 27 28 27 25 26 28 28 32 33 32 30 29 31 34 35 26 24 23 23 22 20 18 19 25 15 16 17 19 19 19 20 22
26 24 22 22 27 30 31 31 30 28 27 26 27 27 26 25 26 22 21 25 32 31 26 31 33 33 24 22 20 20 20 17 14 16 15 14 14 13 16 17 16 18 19 20
26 26 27 27 28 28 29 31 29 30 30 28 26 26 26 24 23 26 22 25 25 28 25 23 23 24 21 20 20 20 19 18 18 18 19 16 15 15 16 16 16 17 18 17
18 27 18 23 25 26 26 27 26 26 27 25 25 26 26 25 25 25 27 24 24 24 23 23 21 23 21 20 20 19 17 17 20 19 17 15 14 13 15 16 15 16 16 17

GFSNGP_sfc_temp_108.txt.gz
Temp
36 37 33 32 32 32 24 27 23 30 31 34 37 38 40 42 44 45 46 46 45 44 44 44 45 46 47 45 46 45 45 44 43 42 42 42 42 41 42 42 41 42 41 40
28 34 34 31 33 32 33 32 33 32 33 38 40 41 41 40 43 44 44 45 46 46 44 43 44 45 45 44 45 45 44 42 42 42 41 41 40 40 40 39 39 39 39 39
23 30 31 25 32 33 36 35 35 34 36 41 40 42 40 40 42 42 43 44 46 46 45 45 45 45 44 43 44 44 43 42 42 41 40 40 39 39 38 38 38 37 36 37
22 26 19 31 38 38 36 37 38 40 41 43 43 42 41 41 40 41 41 42 44 44 44 45 45 45 43 43 43 42 41 41 41 41 39 39 39 38 36 37 36 36 37 37
23 21 25 31 36 37 36 33 38 36 38 41 42 40 40 43 42 40 41 43 44 45 45 45 45 44 43 42 41 42 40 40 41 41 39 38 37 36 36 36 34 34 37 38
25 20 20 28 35 39 41 31 40 41 39 37 39 34 36 41 42 42 42 42 42 43 46 45 44 43 42 41 41 41 41 41 41 41 39 39 37 36 34 36 35 34 36 37
25 21 26 33 37 39 26 29 41 42 38 39 37 39 39 40 41 41 42 42 42 42 42 44 44 44 43 42 41 42 42 41 41 40 40 39 36 36 36 34 34 35 36 37
25 22 19 36 36 30 36 39 40 40 39 39 39 40 40 40 39 40 39 41 41 40 39 41 43 44 42 42 43 43 42 41 40 39 39 38 35 36 34 34 34 35 36 34
29 29 35 35 35 37 39 39 38 38 39 40 40 39 39 39 39 39 39 38 39 39 39 40 42 44 42 41 42 42 41 41 40 39 38 37 36 35 34 35 35 36 35 34
31 32 32 34 36 37 38 38 39 40 41 41 39 42 39 39 38 38 38 38 39 38 40 40 42 42 42 42 42 41 40 39 38 37 36 35 36 36 35 36 36 34 34 34
30 30 32 35 35 36 39 40 40 41 41 40 42 45 44 41 39 37 37 37 38 38 39 38 38 38 40 41 42 41 40 39 38 38 38 36 36 36 35 37 36 33 34 34
29 35 35 35 37 37 37 38 39 39 40 43 46 44 43 39 38 37 36 36 36 36 36 37 35 34 35 37 38 38 38 38 38 37 37 36 35 37 41 41 42 42 42 38
34 34 36 36 37 35 36 37 38 38 39 43 44 44 40 39 38 40 37 35 34 35 35 35 34 33 33 34 35 35 34 35 35 37 37 38 36 35 34 38 42 42 42 42
31 33 33 33 32 35 36 38 39 36 37 39 43 43 42 40 40 38 36 36 36 36 34 34 33 32 33 34 34 33 33 37 32 32 32 32 32 33 34 34 33 35 40 41
31 32 33 32 32 34 35 36 34 35 36 36 38 40 40 39 37 36 36 36 36 35 34 33 33 31 34 37 36 35 36 36 35 32 31 33 33 34 34 34 34 34 34 37
32 33 33 31 31 33 34 34 35 39 39 39 38 37 37 37 35 35 35 35 34 33 32 32 33 32 36 35 35 35 36 36 37 34 34 34 34 34 33 33 33 33 33 33
31 29 30 30 35 37 37 39 36 36 37 36 35 36 36 35 34 32 32 33 33 34 32 31 30 32 35 33 33 33 32 33 36 33 33 33 33 33 33 33 32 32 33 34
34 35 36 37 37 36 36 37 37 36 35 34 35 34 33 32 31 31 32 32 32 31 31 31 30 31 31 30 31 30 29 29 29 30 32 32 33 33 32 32 32 32 33 33
33 33 34 36 36 36 36 36 35 34 34 33 32 31 32 29 29 29 27 28 29 29 31 31 33 31 30 31 32 29 28 27 27 27 27 30 28 31 31 32 32 32 32 32
32 34 35 36 36 35 34 34 34 33 33 33 33 31 28 28 28 28 27 26 28 30 31 31 31 29 29 30 33 29 28 27 27 26 26 26 26 27 27 29 30 30 30 31
32 33 34 35 34 34 33 32 29 30 30 32 29 28 28 28 27 25 24 23 27 30 30 32 29 29 29 32 31 29 28 27 27 26 26 26 26 26 26 26 26 27 28 28
28 30 33 34 33 33 33 32 29 27 27 28 27 25 25 26 26 25 27 26 26 35 28 28 28 30 31 35 29 28 28 27 27 26 25 25 25 25 24 24 23 26 27 25
25 29 33 33 32 32 32 32 31 30 26 29 27 27 27 27 26 24 25 28 25 30 28 28 31 33 35 28 27 26 25 25 25 25 23 21 22 22 22 22 24 24 23 22
25 27 27 32 34 31 29 31 30 31 30 30 27 27 25 24 25 26 26 32 34 32 28 28 30 34 35 26 24 24 24 23 21 19 19 24 16 17 19 19 19 20 19 20
25 23 21 23 28 29 27 29 30 30 29 27 25 27 27 27 26 24 20 22 31 29 23 31 34 34 27 24 22 21 20 18 15 16 17 16 16 16 17 17 16 17 17 17
26 26 26 27 28 27 27 27 27 29 30 29 29 29 26 25 23 26 22 25 22 26 21 20 22 25 23 22 21 21 20 20 19 18 19 16 15 15 16 16 16 16 16 16
18 26 21 22 24 25 25 26 25 26 28 26 25 26 26 25 25 25 27 23 23 22 19 19 20 23 22 21 20 19 17 17 20 18 15 13 13 13 15 15 15 16 16 16

GFSNGP_sfc_temp_111.txt.gz
Temp
36 37 36 33 33 34 29 31 27 32 33 37 39 40 41 43 45 46 47 47 47 47 47 48 49 49 49 49 49 50 49 49 48 48 48 48 47 47 48 48 47 47 46 46
28 34 34 32 33 34 35 35 34 35 35 42 43 43 43 41 43 43 44 45 46 47 47 47 48 48 48 48 48 49 48 46 46 46 46 45 45 45 45 45 45 45 45 45
23 31 32 26 32 35 36 36 36 32 37 42 41 41 40 41 42 42 43 44 44 45 47 48 47 48 47 48 49 48 47 46 46 46 45 44 44 44 43 43 43 41 42 43
23 27 19 32 39 39 38 37 38 39 40 42 41 41 41 42 41 41 42 43 44 45 46 48 48 47 46 47 47 46 46 45 45 45 44 43 43 42 41 41 39 39 39 39
24 22 27 31 36 38 38 34 40 39 40 41 42 42 41 42 42 41 41 43 44 45 45 47 47 46 46 45 45 44 44 44 44 44 42 42 41 40 40 40 37 38 40 40
26 21 21 30 36 39 39 31 41 42 40 40 41 35 38 41 42 41 42 42 43 44 46 48 46 46 45 44 45 44 44 44 44 43 43 42 41 39 37 39 38 39 39 41
26 22 27 34 37 39 28 31 41 42 40 39 38 39 41 41 41 41 42 42 43 43 42 44 46 46 45 44 44 45 44 44 43 43 42 41 39 38 38 37 38 39 39 40
25 23 21 35 36 32 37 39 41 41 41 40 40 40 40 41 40 40 40 41 42 41 41 42 45 46 44 44 44 44 44 43 42 42 42 40 39 39 38 38 38 38 39 38
29 29 35 35 35 38 39 39 39 40 41 41 41 40 41 40 40 40 39 40 41 41 41 42 43 45 43 42 44 43 43 42 42 41 41 40 39 38 38 38 38 38 37 37
31 32 32 35 36 38 39 39 39 40 41 42 40 42 43 41 39 39 39 39 40 40 40 40 41 42 42 43 44 44 43 42 41 41 40 40 39 39 39 38 38 37 36 36
29 30 32 35 36 37 39 39 40 41 41 42 44 44 44 42 40 39 38 38 39 39 39 38 39 38 39 40 42 41 41 40 39 39 40 39 39 39 40 41 40 37 37 36
29 34 35 35 38 38 38 38 38 39 40 43 46 44 43 40 40 39 38 37 37 36 36 36 36 36 36 37 39 40 40 40 39 39 39 37 38 39 42 41 42 42 42 40
34 35 36 37 36 36 36 37 38 38 38 40 42 44 42 40 39 40 38 37 36 36 36 36 35 34 35 36 36 36 35 36 37 38 38 39 38 37 36 39 42 42 42 42
33 36 33 34 33 34 35 36 39 36 37 38 40 41 42 40 40 38 36 37 37 37 36 35 35 33 35 37 37 36 36 38 35 35 35 35 35 35 35 35 36 37 41 42
32 32 34 33 33 33 34 35 34 36 36 36 37 38 38 37 37 36 36 36 36 36 35 35 34 33 36 37 36 36 36 36 36 35 35 36 35 35 35 35 35 35 35 38
32 32 32 32 33 33 33 33 32 34 36 37 38 38 38 37 36 35 35 35 34 33 33 33 33 32 34 35 35 36 36 36 37 34 33 34 34 34 34 34 34 34 34 34
30 29 30 30 33 34 34 38 38 36 35 34 35 36 36 35 34 33 33 33 34 34 34 33 32 33 34 33 33 32 32 32 35 33 33 33 33 33 33 32 32 32 33 34
34 34 34 34 33 34 37 38 37 36 36 35 35 35 33 32 32 32 32 29 30 30 31 31 32 33 33 32 32 31 31 30 30 30 30 31 33 32 32 32 32 32 32 33
33 33 33 34 34 35 37 36 36 35 35 34 31 30 31 32 31 29 28 28 28 28 30 30 33 32 32 32 33 31 30 30 30 29 29 31 29 30 30 31 31 31 31 32
32 33 33 33 34 36 35 35 35 34 35 32 31 32 31 29 29 29 28 27 28 29 29 30 31 30 30 31 34 31 30 29 29 29 29 29 28 28 28 29 29 29 29 30
31 31 32 32 32 34 34 34 32 29 30 30 29 29 29 29 28 27 27 27 28 30 30 32 28 29 30 31 32 30 30 29 28 28 28 27 27 28 28 28 28 28 28 28
27 28 29 29 30 33 34 33 31 29 27 27 27 25 25 27 27 25 27 27 26 34 27 26 27 30 30 34 30 30 29 28 28 27 26 26 26 25 25 26 25 27 27 27
26 27 30 27 27 29 32 32 32 31 28 26 27 27 27 27 27 26 26 29 27 29 28 26 30 33 35 30 29 28 27 26 26 26 25 24 23 23 23 23 24 25 24 24
25 28 26 31 30 26 25 27 31 32 30 30 30 30 28 26 27 28 28 32 34 33 28 27 29 34 35 27 27 26 25 24 23 22 23 25 22 21 21 21 21 22 21 21
26 23 21 23 28 30 29 26 25 26 27 29 30 29 29 29 29 27 26 24 31 30 25 32 34 35 26 24 24 24 23 22 21 20 21 20 20 19 19 19 19 20 20 20
26 26 26 27 29 29 30 26 26 27 27 27 28 29 29 28 27 27 23 25 22 27 22 21 22 23 21 20 22 23 23 22 23 21 22 20 19 18 18 18 18 18 19 18
18 27 23 23 24 24 24 25 24 25 27 26 26 26 26 26 25 25 27 23 23 22 21 21 20 23 20 20 21 21 21 20 22 20 19 17 17 16 16 17 17 17 17 17

GFSNGP_sfc_temp_117.txt.gz
Temp
43 43 44 42 43 45 38 43 35 39 39 44 48 50 50 52 53 51 50 49 49 50 55 57 57 57 55 54 55 57 58 57 57 57 57 56 55 56 57 58 58 58 57 57
38 45 45 39 43 44 45 45 44 44 41 51 52 53 51 51 50 49 50 52 53 53 53 55 56 56 56 55 55 57 57 55 56 56 56 55 55 55 54 54 54 55 54 54
34 42 42 37 38 42 44 46 46 39 45 53 49 48 48 51 52 50 51 52 53 53 55 56 57 58 56 56 57 55 54 54 54 55 54 54 54 54 53 52 53 52 52 52
39 41 30 40 48 47 45 45 49 48 49 50 50 50 51 52 51 50 51 51 53 54 55 57 59 58 58 57 56 55 54 53 54 54 53 53 52 51 50 50 49 49 49 50
37 36 38 41 44 43 40 41 49 49 51 52 52 55 48 52 53 51 52 52 53 55 57 57 57 58 58 57 56 54 54 53 54 53 51 52 49 48 49 47 46 46 48 48
39 32 30 42 47 51 50 34 50 51 50 51 55 46 44 51 52 52 52 52 53 55 57 57 57 59 58 56 56 54 54 53 54 53 52 50 50 48 47 46 44 46 46 48
40 36 39 47 49 51 36 37 50 52 51 51 46 48 50 52 51 52 52 51 54 53 52 53 56 58 55 54 51 52 53 53 52 53 51 51 48 47 46 44 44 45 45 47
40 36 31 49 48 42 47 52 52 52 52 50 51 51 51 51 50 50 50 50 52 50 48 49 52 55 50 49 52 53 53 52 51 51 50 49 47 46 46 45 45 44 46 46
42 40 46 48 48 51 53 52 51 52 52 52 51 50 51 50 50 50 50 50 52 50 47 46 45 45 42 43 48 51 53 52 51 51 51 51 49 48 48 48 48 47 45 44
43 44 47 48 50 51 53 51 52 52 52 52 51 52 50 50 50 50 49 49 51 50 48 46 45 44 42 42 46 45 45 45 46 49 50 51 50 50 50 49 48 47 44 42
44 46 47 48 51 51 50 51 51 52 52 52 53 52 52 50 49 49 49 49 50 49 48 46 47 46 47 47 47 42 41 40 40 40 41 41 42 44 45 48 46 45 45 45
46 52 52 52 52 52 50 49 49 50 50 52 52 52 52 50 50 50 49 49 48 47 47 46 46 45 45 46 46 46 46 45 43 42 40 39 38 39 42 42 42 42 42 41
51 55 54 54 52 52 50 49 49 50 49 50 51 52 51 49 47 46 47 47 46 44 44 44 43 41 41 42 43 42 41 42 43 44 44 44 43 38 36 39 42 42 42 42
53 49 45 48 47 49 50 49 47 49 49 49 50 50 50 48 47 46 45 44 44 43 43 43 41 39 40 41 41 40 40 39 40 40 39 39 38 38 38 38 38 38 42 42
50 49 53 51 50 47 48 47 46 47 48 47 48 48 48 47 46 45 43 42 42 42 41 40 40 39 39 40 40 39 39 39 39 37 37 36 35 35 35 36 36 38 40 41
49 47 47 46 46 45 45 45 44 46 46 47 46 45 45 45 44 43 41 41 39 39 39 38 38 39 40 40 39 39 39 36 37 37 36 34 34 33 33 34 34 34 34 35
41 39 42 43 44 45 44 47 46 46 44 44 44 42 41 41 40 39 38 39 39 39 40 40 39 40 40 39 38 38 37 36 36 35 35 34 34 33 33 33 32 33 33 34
50 50 48 49 46 46 45 45 45 44 42 42 41 39 38 37 37 39 39 39 38 38 39 40 40 40 39 39 38 38 37 36 35 34 34 33 33 33 33 34 34 33 33 33
48 48 48 48 48 47 46 44 43 43 41 40 38 37 38 38 38 38 38 35 35 34 38 40 37 36 38 38 35 37 35 34 34 34 33 33 32 33 32 32 33 33 33 33
45 47 46 45 46 45 43 44 44 42 42 40 38 37 37 38 38 37 36 34 36 38 37 36 36 36 37 37 36 35 35 35 34 34 34 33 33 32 32 32 31 31 31 32
42 42 42 42 42 43 43 43 41 40 39 37 36 36 37 38 37 35 33 32 36 36 35 35 35 35 36 36 35 35 35 35 34 34 33 32 32 32 31 31 31 30 30 30
39 38 38 39 39 39 41 41 40 38 36 34 35 34 34 33 35 34 35 34 38 37 36 35 36 36 36 36 34 35 35 34 33 33 32 31 30 29 29 29 28 29 29 29
34 35 37 36 35 35 38 37 37 36 34 34 33 34 34 35 36 34 33 37 36 36 35 35 37 36 36 34 34 34 33 33 32 31 30 29 29 27 27 27 27 27 27 27
36 38 38 38 38 36 33 35 34 35 35 34 34 34 34 34 34 36 36 37 37 36 35 36 36 36 36 34 34 34 33 32 31 29 29 30 27 27 26 26 25 26 26 25
36 35 35 34 35 36 36 35 34 33 33 34 34 35 34 36 34 37 36 35 36 34 33 36 37 36 34 34 34 33 32 31 29 28 27 26 25 25 25 25 24 24 24 24
37 38 38 37 38 38 38 36 33 35 35 34 36 36 36 36 36 35 34 35 33 33 33 34 34 34 34 34 33 32 31 30 29 28 28 26 25 24 24 24 23 23 23 23
35 37 36 35 35 35 35 34 32 32 34 34 33 35 35 35 34 34 34 33 32 32 32 32 32 32 32 31 30 30 29 28 29 26 25 24 23 23 23 22 22 22 22 22

GFSNGP_sfc_temp_120.txt.gz
Temp
42 43 41 38 40 40 36 37 29 36 36 40 43 44 45 47 47 46 46 47 48 48 49 50 51 52 53 54 55 56 55 55 55 55 55 55 55 54 55 55 55 55 55 54
35 43 41 36 38 40 38 37 40 39 37 45 46 46 45 45 46 46 46 47 49 50 51 51 51 51 53 53 54 55 53 52 53 53 53 52 53 52 52 51 51 52 51 51
26 37 38 29 35 39 41 43 42 34 41 45 42 43 43 44 45 45 46 47 49 49 51 51 51 52 52 53 54 52 52 52 52 52 51 51 51 51 50 49 51 50 50 49
27 32 22 38 46 45 43 44 45 44 44 44 42 43 45 46 45 45 46 47 49 50 51 52 53 51 51 51 52 51 51 51 52 51 50 50 49 48 48 48 48 48 47 46
27 26 32 37 41 42 40 38 44 43 45 46 45 45 42 46 47 46 46 48 49 51 51 51 51 52 52 51 50 49 49 50 50 50 49 48 46 45 46 44 43 43 45 45
31 26 25 34 41 46 45 32 45 45 44 43 45 34 37 44 46 45 46 47 47 48 50 50 51 52 50 47 47 47 48 48 49 50 49 47 46 45 44 44 43 43 43 43
31 25 31 40 43 45 29 34 45 46 45 43 38 39 43 46 45 46 46 46 46 45 44 44 49 49 46 46 44 47 48 48 47 47 47 47 45 44 43 42 42 41 41 42
30 26 22 43 41 35 41 45 46 45 45 44 44 45 46 45 44 44 44 45 45 42 41 42 44 45 42 41 45 48 48 47 46 44 45 44 41 41 41 40 40 39 40 40
33 32 41 42 42 45 47 45 44 44 45 47 45 45 45 44 44 44 44 44 44 42 40 40 40 40 39 39 43 46 45 45 45 45 45 44 42 41 40 41 40 39 39 38
36 37 40 42 43 45 47 45 46 47 47 47 45 46 44 44 43 42 43 43 44 42 40 39 40 40 39 40 41 43 42 40 41 41 42 43 44 43 41 40 40 41 39 38
36 38 40 43 45 45 45 47 47 47 47 47 47 47 46 44 43 42 42 43 43 41 40 39 40 39 40 41 41 40 40 40 39 39 40 41 41 41 42 42 42 41 41 41
34 42 41 42 45 47 44 44 45 45 45 47 47 47 46 43 43 43 41 42 41 41 40 39 39 38 39 40 40 39 40 39 38 38 38 38 39 39 42 42 42 43 43 42
43 46 46 46 46 47 45 44 45 45 44 44 45 46 45 42 42 44 41 41 39 38 39 42 41 36 36 37 38 38 36 39 38 39 37 37 38 35 35 39 42 42 42 42
43 44 41 42 40 45 45 45 45 44 44 44 44 45 45 43 41 41 39 39 39 39 41 40 36 35 36 37 36 36 35 40 37 35 34 36 36 35 35 34 35 36 42 42
42 41 43 43 43 42 43 42 41 41 41 41 43 42 42 41 41 39 38 38 38 38 37 36 35 35 35 36 36 34 34 36 36 35 34 34 34 33 34 34 34 35 36 39
42 42 42 41 40 40 40 40 39 40 41 41 41 40 39 39 38 37 36 36 34 34 35 34 34 35 36 36 34 33 33 36 35 30 30 30 32 33 33 33 33 33 33 34
36 35 38 38 39 38 39 40 40 40 39 39 38 38 37 39 36 36 38 38 35 34 35 35 34 35 36 35 33 31 31 31 36 29 29 29 29 29 30 30 32 32 32 33
41 42 42 41 40 40 40 41 40 40 38 38 37 36 37 36 36 37 37 34 33 32 33 34 35 35 35 35 33 31 30 30 30 29 29 29 28 29 28 28 29 29 31 32
42 41 42 43 42 41 40 39 38 38 37 36 34 34 36 36 35 35 33 30 29 28 31 34 37 34 32 34 33 30 29 29 29 29 29 31 27 28 25 26 26 27 28 30
41 42 41 41 41 40 38 38 38 36 36 35 34 33 32 36 36 32 30 28 29 30 31 32 32 30 30 32 36 28 28 29 29 29 29 28 27 27 27 29 27 27 26 29
37 38 38 38 37 38 38 37 36 34 34 33 31 31 31 35 34 30 26 24 29 32 32 34 29 29 29 32 32 28 27 28 28 28 28 27 27 26 24 25 25 26 26 28
34 34 34 35 34 33 35 35 34 32 31 30 29 28 32 31 29 27 29 28 27 38 28 26 27 32 30 36 28 27 28 28 28 27 25 25 24 22 21 21 20 24 24 23
31 32 33 32 31 29 31 30 30 29 27 29 29 29 30 29 29 27 27 31 29 32 31 26 32 37 37 29 25 26 26 26 25 24 22 19 20 18 18 18 20 23 20 21
32 32 33 33 32 29 25 26 25 28 30 28 29 28 27 26 27 28 29 36 38 35 30 29 32 37 37 25 25 25 25 24 22 18 18 28 15 16 16 18 19 21 21 23
31 29 29 28 29 29 27 27 26 26 26 25 27 28 29 28 29 27 26 28 35 35 32 35 36 37 32 28 25 24 25 21 17 17 17 15 16 15 16 17 19 20 21 21
31 31 30 31 31 31 30 30 28 29 29 29 30 30 30 30 29 30 27 30 29 30 26 25 25 27 25 24 25 26 24 22 24 21 20 18 17 14 16 17 18 19 19 19
27 33 26 29 30 30 29 29 27 27 29 28 28 29 29 29 29 30 31 28 27 26 24 25 24 26 22 22 22 21 20 19 23 18 17 15 15 14 16 17 17 17 18 18